GFSSW_850_rhum_000.txt.gz
RH
54 27 31 37 44 46 42 36 36 67 96 94 91 99 95 97 94 86 77 67 63 61 62 57 52 56 67 63 63 67 80 83 66 57 45 32 31 26 22 22 25 24 25 26 25
75 42 32 36 45 50 44 38 35 40 83 85 100 100 100 99 100 97 68 73 70 70 68 68 52 58 67 68 58 77 92 76 56 49 46 38 32 27 28 30 29 28 27 28 27
94 69 33 36 45 50 45 41 36 37 40 60 76 76 99 99 99 87 69 61 71 95 70 70 56 72 71 66 71 76 84 61 51 43 40 40 37 32 29 35 29 27 27 30 25
88 80 55 30 41 50 44 45 47 48 46 45 46 48 61 87 89 59 60 66 70 77 81 74 68 76 74 80 66 83 66 61 57 51 50 50 40 36 32 28 26 27 27 29 31
88 75 72 38 34 50 44 54 55 56 60 56 64 72 64 86 81 63 64 62 59 66 85 91 88 81 78 69 68 79 66 62 61 57 52 48 49 43 37 32 29 29 28 26 28
90 86 78 63 34 53 53 63 67 64 63 65 64 79 78 92 43 51 68 72 72 62 68 78 80 73 78 72 71 60 62 63 57 53 51 52 48 43 37 31 31 31 30 28 28
85 90 85 78 40 48 62 68 74 74 67 61 70 72 86 66 55 56 60 59 67 70 62 81 67 90 80 77 66 63 69 61 58 59 54 47 56 53 37 32 30 31 30 28 31
85 86 89 69 60 44 58 96 76 87 80 80 70 84 85 60 54 64 65 63 72 72 66 68 59 79 70 72 69 75 73 86 60 58 58 52 70 47 37 33 34 32 30 30 31
78 85 88 74 75 54 86 88 84 73 81 86 88 83 80 70 62 54 63 63 64 66 64 63 59 61 63 83 86 86 94 80 70 57 59 61 61 46 36 36 35 31 31 32 33
84 78 82 83 79 69 85 82 88 94 87 92 88 97 82 66 60 58 60 67 64 62 60 63 65 78 87 88 89 72 84 72 69 65 64 65 64 53 38 36 36 32 32 32 32
85 91 91 84 77 69 88 91 88 90 93 77 80 78 63 68 66 61 65 72 69 70 79 64 89 88 80 83 78 82 84 78 69 55 66 65 64 54 48 42 40 35 33 31 33
89 91 97 92 81 69 90 86 82 82 92 79 76 79 65 71 73 69 67 75 74 90 78 84 87 69 69 72 78 83 84 85 67 55 62 72 75 61 47 44 39 38 34 30 38
90 93 98 95 84 79 85 92 82 81 94 82 72 92 82 69 76 74 70 72 70 74 70 87 65 55 68 76 81 81 82 76 80 64 53 53 61 67 55 45 37 37 33 30 37
91 96 99 98 95 74 88 97 85 84 97 76 85 84 85 80 80 70 67 68 74 81 74 76 66 68 67 75 72 86 65 67 68 81 91 71 90 66 54 54 45 40 36 35 40
92 99 100 94 76 72 69 82 79 94 74 66 84 78 82 81 73 76 71 68 85 84 81 81 81 81 75 69 60 74 55 60 66 74 84 73 89 74 52 57 48 43 37 40 38
100 100 100 100 73 61 70 78 96 96 92 93 81 86 87 80 73 74 76 74 78 76 76 74 62 66 66 56 53 60 66 65 69 80 91 69 82 76 69 50 46 43 42 47 45
100 100 99 83 71 71 89 99 97 95 62 88 89 88 82 86 80 75 92 95 99 99 99 98 93 74 72 80 65 62 74 94 97 96 82 60 82 63 56 50 36 41 48 52 48
94 100 100 89 72 78 94 94 94 65 83 78 79 86 91 73 86 76 90 95 88 97 100 95 98 86 75 73 77 74 70 86 91 97 78 73 79 73 53 41 39 39 38 52 52
99 99 100 92 82 80 83 98 82 72 77 86 83 93 92 87 77 86 92 88 69 95 95 97 92 75 72 65 61 78 84 59 78 74 90 87 82 70 60 48 45 48 55 57 58
99 100 96 83 87 84 89 76 80 67 81 78 94 89 93 82 91 90 88 70 81 74 71 78 97 80 72 70 68 71 60 82 81 100 92 82 84 66 59 43 53 54 54 56 62
100 99 100 84 99 96 96 88 76 77 75 83 94 96 86 81 86 83 83 70 72 65 74 83 92 98 91 90 84 86 82 70 61 77 98 92 78 55 47 43 53 52 51 59 66
100 100 95 100 98 96 97 76 63 77 78 79 84 93 90 76 89 85 82 59 58 59 89 75 94 97 80 68 74 65 67 63 68 66 73 98 74 40 44 38 45 49 51 59 62
97 99 95 100 97 97 82 73 67 79 80 78 91 83 78 70 78 71 62 46 50 63 76 78 99 98 97 90 88 95 63 61 55 67 99 97 72 42 40 44 43 48 52 58 61
93 98 99 99 90 80 81 82 82 71 69 72 84 81 86 79 64 64 65 53 46 52 58 70 95 100 92 100 86 90 82 69 82 77 71 76 76 60 52 41 50 50 52 55 56
93 94 87 97 98 85 78 78 82 83 78 83 90 91 88 88 75 76 60 48 58 70 79 83 100 100 94 94 99 88 80 78 94 74 76 59 68 56 48 40 46 48 53 57 60
93 93 78 80 80 91 84 88 82 79 84 92 95 78 82 88 60 56 57 62 61 77 89 92 99 100 99 85 87 94 85 81 82 88 88 85 90 38 39 40 51 52 56 58 58
93 88 69 84 82 92 88 82 85 76 79 74 83 84 81 81 65 64 61 55 57 77 84 92 99 100 100 88 84 95 79 84 92 89 88 97 66 46 44 44 55 57 53 53 55

GFSSW_850_rhum_003.txt.gz
RH
96 86 41 31 35 48 49 43 43 58 100 97 84 86 90 92 90 91 77 65 64 62 58 57 56 54 64 60 62 69 83 87 67 62 47 36 33 29 27 24 25 24 22 25 27
95 92 77 33 37 45 52 44 42 46 81 100 100 98 100 100 98 99 63 76 70 69 66 67 63 57 66 72 60 79 93 74 60 51 49 38 36 34 28 29 30 28 28 27 27
87 93 87 67 42 45 54 52 46 47 51 76 93 99 98 99 100 94 83 82 76 74 71 74 68 63 73 71 74 80 84 64 56 49 43 45 39 36 35 38 28 27 27 28 28
88 87 85 74 46 46 56 54 54 54 54 52 55 73 82 99 87 63 67 67 66 86 88 88 77 72 79 82 70 84 71 64 59 52 55 54 46 38 34 32 29 27 27 27 29
87 90 88 78 61 41 56 56 60 62 65 60 50 56 63 100 89 60 57 60 69 81 81 98 95 80 82 73 69 80 73 64 60 60 60 58 58 55 45 42 35 34 29 28 28
83 90 85 87 77 45 61 54 67 67 89 63 60 84 79 90 44 67 74 67 66 65 71 84 77 81 81 79 74 67 66 64 63 60 58 60 57 51 42 36 35 35 31 29 28
82 88 80 87 86 70 60 75 85 86 72 68 75 82 93 68 52 45 64 75 72 73 62 56 74 87 86 79 71 68 77 67 62 58 64 52 62 59 46 42 40 36 32 30 29
80 80 89 82 87 75 59 79 90 91 91 83 74 83 82 62 57 60 59 68 68 73 74 69 66 62 80 72 68 74 76 87 60 60 58 56 70 49 42 41 40 37 31 30 28
85 79 85 90 96 73 68 76 91 84 90 89 90 80 78 72 66 55 58 65 70 73 74 70 66 60 64 80 85 85 86 84 73 57 61 67 65 52 42 40 42 37 34 31 30
86 87 90 78 97 75 64 88 87 91 86 92 91 93 75 66 60 59 55 64 67 66 66 65 67 77 82 87 87 83 94 79 81 59 65 64 59 58 48 44 44 39 34 32 32
88 91 94 93 77 79 72 100 94 100 98 87 84 75 66 64 66 68 64 67 71 69 80 68 90 94 75 83 80 86 87 81 68 60 70 64 63 54 54 52 52 47 42 36 32
100 91 99 100 94 81 76 92 85 83 90 84 80 80 71 75 72 71 70 75 79 91 81 83 95 77 68 72 79 83 85 82 66 57 58 63 68 62 56 52 52 49 44 40 35
98 94 99 100 98 96 77 88 85 83 86 78 74 93 83 71 75 70 71 75 81 94 93 88 68 62 68 78 88 87 91 73 70 65 58 62 61 50 44 47 47 47 42 39 37
84 100 100 100 100 90 94 76 89 84 97 76 94 87 86 78 78 68 67 66 80 92 80 79 62 69 73 77 78 92 72 72 71 78 84 67 74 62 57 53 50 45 43 40 36
79 100 100 100 94 99 85 73 94 88 80 68 88 81 84 75 70 80 69 68 80 90 80 82 88 81 78 76 66 74 62 67 76 86 88 77 87 70 49 50 52 56 45 38 36
90 96 99 100 89 75 73 65 91 85 90 91 83 86 90 79 71 76 77 70 76 76 78 75 67 75 75 62 60 58 71 72 71 82 95 68 79 58 53 62 51 49 42 38 36
92 90 100 97 88 67 66 90 94 96 67 92 78 86 71 85 77 74 85 93 94 99 97 98 88 76 72 76 68 63 75 96 97 95 82 61 70 57 52 54 50 45 39 38 42
94 88 96 93 90 70 77 91 96 64 88 74 74 92 84 81 83 84 91 94 86 99 99 96 97 92 78 78 81 79 73 86 84 96 79 49 64 58 52 37 33 36 39 38 48
87 97 99 96 90 67 80 98 79 68 78 88 80 87 89 78 76 86 88 73 76 81 94 99 94 77 71 60 61 96 97 66 67 64 97 82 76 70 66 63 57 50 44 44 46
94 99 99 100 75 88 83 79 71 69 80 74 86 73 77 80 90 86 72 71 73 69 67 85 94 80 74 68 64 69 63 95 96 95 94 76 85 72 62 49 41 53 48 51 53
99 98 100 96 80 91 97 79 73 74 73 85 84 82 75 84 87 72 70 71 73 75 76 87 93 90 89 88 82 82 88 76 66 80 93 91 60 65 57 50 52 55 55 58 62
98 99 100 93 96 96 92 77 62 85 84 81 73 75 78 85 92 89 91 72 67 73 93 84 96 96 80 71 59 62 69 73 91 84 62 92 74 59 58 46 51 54 58 64 73
98 99 99 97 98 97 78 70 70 87 93 86 87 76 68 80 88 84 69 52 68 70 81 79 100 94 100 94 94 100 78 64 62 68 72 66 46 58 47 50 52 58 62 72 78
97 100 99 99 89 78 77 85 80 63 66 67 72 73 84 88 72 71 71 54 61 61 67 80 100 98 84 94 89 96 94 67 64 79 74 72 61 50 50 51 52 56 64 72 74
94 96 95 97 97 79 75 73 80 89 71 70 86 82 88 87 80 80 71 58 60 65 83 95 100 100 93 85 97 95 81 76 74 62 66 54 68 60 51 46 45 54 65 68 70
98 94 80 83 82 76 78 78 83 74 84 85 94 78 85 92 70 61 62 59 60 84 86 92 100 100 100 96 96 94 92 85 64 64 60 73 68 52 46 49 51 55 63 67 69
96 99 74 81 84 83 78 79 81 74 83 72 82 80 84 79 70 64 70 68 63 83 95 99 100 100 95 93 96 100 86 84 70 66 70 93 68 51 57 45 53 58 58 59 62

GFSSW_850_rhum_006.txt.gz
RH
87 90 91 84 36 32 38 46 46 46 73 97 97 74 75 79 84 95 86 66 69 65 62 61 59 55 54 60 59 69 85 91 74 66 53 37 37 31 30 28 27 26 24 25 26
96 85 90 85 78 33 40 50 47 46 54 87 98 95 90 97 98 95 71 76 73 69 69 72 65 57 59 71 62 81 96 78 64 56 48 43 42 39 33 33 32 29 27 26 26
85 99 83 87 84 60 40 54 54 51 60 65 91 99 98 98 100 88 78 75 82 83 86 82 70 60 69 75 73 79 84 67 61 54 50 50 45 42 38 46 35 31 28 28 27
76 92 92 87 85 71 37 56 60 80 91 65 67 83 98 100 93 78 74 78 81 90 99 91 82 68 81 84 73 88 78 73 63 58 60 60 55 49 42 40 32 36 36 29 30
80 79 92 92 89 81 42 53 61 73 79 77 80 65 87 100 94 58 61 63 68 86 100 98 94 79 81 78 74 83 79 70 66 62 61 60 66 67 60 55 48 42 39 35 30
66 81 80 94 85 85 62 52 56 72 84 74 79 86 77 96 64 78 65 65 72 95 99 100 87 82 83 82 76 71 72 71 63 64 64 66 63 59 52 51 48 41 35 36 34
94 81 82 91 89 84 83 53 63 74 84 80 76 89 99 73 55 50 79 74 67 76 75 74 84 82 90 86 76 73 81 73 67 61 66 58 69 66 52 52 50 47 43 37 35
100 81 90 84 96 82 82 77 81 85 91 89 71 85 86 65 62 60 59 73 72 70 70 68 72 64 86 78 69 75 77 92 63 65 62 60 74 51 42 41 46 45 44 42 38
98 99 88 93 98 91 79 79 82 96 86 98 98 82 81 71 71 56 64 67 67 71 70 74 70 63 71 81 83 82 92 88 70 57 62 70 65 54 43 41 46 41 41 40 38
100 99 96 94 99 100 87 78 78 87 86 90 97 95 76 67 64 64 59 66 70 72 72 70 68 81 83 87 94 86 90 77 72 60 66 77 75 61 49 49 52 48 47 44 40
94 99 98 94 98 100 87 91 99 96 90 80 84 77 67 71 65 63 63 65 69 69 84 70 93 90 74 79 74 86 92 92 76 61 69 74 70 60 53 52 57 52 51 45 44
99 94 93 100 100 100 86 70 75 73 92 82 80 84 76 76 75 71 70 72 76 90 79 81 91 76 71 77 82 85 89 86 76 61 65 65 62 53 52 55 58 56 52 49 43
98 92 66 100 100 100 83 75 76 74 80 72 79 92 77 76 77 74 73 77 84 95 88 87 67 65 74 82 88 90 92 86 83 63 56 62 60 47 39 39 40 43 42 43 42
88 66 70 99 100 97 97 81 82 70 90 69 97 82 85 81 80 68 68 71 81 89 85 93 72 73 78 82 82 92 77 78 79 84 94 62 76 49 45 51 41 39 40 46 38
79 66 69 96 100 100 81 88 75 73 87 71 94 88 87 71 69 84 73 69 91 89 81 78 82 84 84 76 72 71 68 78 80 90 92 82 89 66 48 48 46 53 48 42 38
86 66 81 93 100 94 77 81 79 83 85 91 86 92 91 78 75 84 78 69 71 74 77 74 69 72 75 65 64 61 75 75 77 79 92 73 86 61 49 41 54 47 40 35 37
90 76 79 92 100 94 88 88 93 89 68 94 83 86 78 85 79 78 82 91 93 99 98 94 89 73 74 79 72 72 89 97 98 97 88 64 76 54 45 41 45 47 41 32 32
91 89 82 96 98 97 76 83 86 66 82 73 68 76 84 78 72 82 88 94 84 92 100 97 94 89 76 76 82 80 78 91 88 92 86 58 76 64 48 37 33 31 38 39 38
89 96 99 80 100 88 81 82 76 67 79 87 77 82 85 79 79 86 89 81 68 91 98 97 93 80 79 67 67 98 97 69 74 62 90 80 71 55 57 58 53 48 38 35 35
100 93 98 96 100 97 76 80 65 66 78 75 87 78 86 84 91 96 84 68 72 74 68 84 96 76 80 72 68 88 77 98 97 96 94 79 68 69 51 58 54 49 36 48 39
100 98 94 82 98 98 97 80 67 76 69 77 80 84 65 69 81 84 69 65 72 70 73 88 96 85 90 93 80 92 96 98 78 88 91 86 59 57 52 58 56 52 48 46 43
100 97 99 92 99 98 92 67 62 92 82 78 71 64 72 80 94 86 83 72 66 76 86 79 98 96 82 71 63 64 72 75 86 84 82 87 56 46 71 64 55 58 55 53 53
100 99 100 98 100 99 80 73 73 94 93 86 83 71 68 78 85 87 78 58 68 79 86 80 99 98 94 88 85 93 76 65 66 76 81 82 50 29 40 52 53 64 70 76 82
98 100 98 99 93 76 78 78 78 70 81 75 76 74 81 84 78 78 81 59 68 70 68 69 99 97 84 94 97 99 90 79 74 95 74 69 53 39 52 54 57 64 76 86 85
97 99 99 99 97 73 68 74 78 83 75 73 84 79 92 98 83 89 75 66 68 64 76 92 99 99 93 80 99 100 97 89 95 78 77 55 51 50 51 62 60 53 73 87 89
99 93 85 86 79 74 77 85 85 75 80 83 86 77 86 94 77 69 74 73 81 72 82 93 98 100 98 98 97 100 96 96 95 75 67 59 58 48 60 54 56 56 73 84 84
97 99 70 80 81 82 81 82 76 74 69 75 80 86 90 80 76 74 68 69 72 78 96 98 100 100 94 96 97 99 91 81 78 81 63 74 58 46 62 62 56 58 69 74 79

GFSSW_850_rhum_009.txt.gz
RH
87 77 95 89 91 78 37 34 51 50 42 51 99 93 62 58 79 92 81 58 70 69 67 66 62 58 55 57 60 69 78 78 63 60 47 40 38 34 34 31 29 28 26 28 27
79 84 78 91 87 85 76 33 47 53 44 56 92 98 84 93 89 87 76 81 77 75 72 69 68 61 56 68 64 76 87 76 62 54 49 43 42 41 39 37 36 34 29 30 29
62 76 77 99 87 87 84 48 47 54 51 50 84 95 99 97 100 90 86 83 82 83 89 80 71 61 64 75 72 79 75 67 62 53 53 56 52 47 42 45 40 37 32 31 29
98 61 79 83 92 86 85 64 42 56 68 65 65 82 99 96 89 80 82 80 74 88 98 91 80 63 79 82 76 84 79 77 64 58 59 62 58 61 51 47 43 36 42 42 38
98 94 80 85 90 87 87 77 41 54 76 67 59 66 88 99 94 70 68 68 75 98 96 91 89 71 77 79 76 84 79 73 69 67 67 64 68 63 67 56 52 50 48 45 39
97 98 86 86 85 96 87 82 41 55 80 79 71 78 75 96 82 84 68 58 70 94 94 95 86 82 79 82 76 72 76 73 68 65 65 66 62 65 51 48 47 50 48 44 39
100 99 100 85 87 98 87 82 51 58 77 86 72 80 91 70 53 53 78 71 65 99 99 99 91 80 85 88 81 73 81 70 69 66 63 63 72 74 57 55 50 45 41 38 40
98 100 99 96 90 96 96 82 60 74 84 88 71 79 80 66 64 62 72 78 88 81 74 69 75 82 86 80 71 76 75 84 62 65 62 56 62 54 48 52 55 52 44 42 36
96 97 99 100 99 92 100 87 61 92 89 99 97 82 76 71 69 64 59 76 77 75 74 73 71 66 79 84 84 82 84 86 70 60 58 67 69 52 48 52 55 50 47 44 44
88 88 98 98 100 99 100 94 80 95 93 93 100 94 84 70 72 70 67 66 63 73 74 74 71 80 80 82 84 83 95 81 74 59 63 68 70 58 57 56 52 53 47 49 48
86 84 83 87 100 97 100 99 98 99 90 78 84 83 74 74 70 71 65 70 68 72 87 74 88 85 75 75 71 84 88 88 76 61 69 65 61 52 50 54 51 51 48 48 43
75 84 80 82 95 100 100 94 73 55 92 77 88 87 82 76 77 76 70 69 72 88 80 84 90 71 70 76 79 82 86 82 62 63 65 64 64 51 46 46 46 45 51 50 45
82 92 94 91 76 100 99 88 66 60 66 70 83 93 76 77 75 78 74 75 83 93 89 88 72 66 72 80 84 71 77 69 66 65 60 61 55 36 28 29 37 43 42 42 43
98 90 98 98 87 94 100 94 72 64 82 65 91 87 88 78 74 68 73 70 83 87 74 75 66 75 85 87 81 83 72 75 79 84 82 60 69 39 38 36 34 37 38 41 42
91 86 96 99 98 99 96 87 69 49 68 72 93 89 87 75 70 83 78 71 92 90 86 76 83 92 87 75 74 74 67 73 79 89 93 74 86 54 47 46 41 37 36 37 38
90 99 97 99 85 94 100 92 68 78 80 92 93 92 88 78 79 86 83 71 70 77 78 75 70 69 73 68 67 63 79 77 78 86 95 68 76 56 42 38 37 36 34 36 35
98 96 99 99 95 84 100 96 94 82 66 97 91 90 75 89 81 78 84 89 91 98 96 77 80 75 70 77 73 72 99 92 96 96 83 61 78 53 39 35 34 33 36 34 34
99 97 85 90 87 98 100 98 94 65 79 69 64 82 84 72 75 81 82 91 79 90 92 97 86 76 75 73 78 83 83 88 89 82 73 67 79 58 45 37 35 35 35 33 33
99 87 93 94 87 100 98 98 75 70 80 75 72 84 88 72 72 74 84 84 74 81 95 97 85 76 82 73 64 97 95 66 94 86 95 72 62 49 42 42 52 48 44 45 40
99 98 99 95 81 99 100 88 63 75 71 71 88 74 83 81 89 85 89 74 73 72 66 79 93 76 78 75 73 84 79 94 97 95 91 68 67 62 42 42 56 56 52 50 50
97 96 99 98 86 100 100 79 69 75 66 74 80 86 76 84 83 93 76 62 73 82 73 81 94 84 86 91 77 90 99 100 98 96 86 71 46 43 37 52 60 58 53 54 54
100 100 96 94 98 100 99 67 73 85 80 80 68 69 72 72 83 76 80 67 65 77 95 77 89 97 85 70 64 63 72 73 90 86 88 81 61 33 48 69 57 57 58 50 51
99 99 99 96 100 100 89 79 82 93 87 78 79 70 67 76 88 84 78 61 70 76 85 81 97 98 86 85 74 93 77 72 72 74 90 84 58 32 34 55 56 60 56 61 67
98 100 99 98 97 88 81 80 83 78 87 78 80 75 80 80 69 81 84 64 68 71 70 70 90 91 74 72 99 100 87 88 96 92 74 72 60 44 38 48 57 52 61 68 84
99 100 97 100 98 77 71 72 84 87 74 76 82 74 80 94 86 92 81 70 75 71 73 84 99 98 90 77 91 100 97 95 98 82 82 56 56 46 40 46 58 60 60 72 86
99 98 91 92 82 71 78 78 78 80 81 85 80 75 80 90 72 77 73 76 73 77 83 86 98 100 96 92 97 98 98 96 90 81 74 64 65 44 41 46 68 82 68 71 93
99 100 98 79 76 78 83 77 82 74 71 72 76 76 86 78 70 69 75 72 72 76 86 98 100 100 91 74 100 99 94 95 91 82 80 86 64 52 56 78 84 74 68 75 93

GFSSW_850_rhum_012.txt.gz
RH
93 82 83 85 91 89 84 77 42 36 47 47 80 95 88 46 61 100 96 76 67 70 69 68 66 65 59 59 64 64 42 37 34 34 27 30 29 29 28 26 27 26 27 30 28
100 94 85 83 82 99 85 77 74 35 48 46 85 99 78 67 84 96 62 76 76 73 78 72 65 62 52 55 56 48 44 34 27 29 31 28 31 29 31 28 27 28 29 32 31
100 100 90 85 80 99 89 80 76 38 51 49 76 93 96 98 100 94 89 85 83 81 90 78 71 62 52 57 54 49 48 32 44 42 39 35 38 37 33 31 29 28 28 34 36
98 99 97 79 86 90 92 83 77 39 52 56 63 86 96 99 92 83 82 83 79 92 93 86 71 58 52 54 54 55 46 45 44 50 53 47 45 44 37 30 28 35 36 40 39
100 98 99 94 84 88 98 86 81 40 52 65 62 76 93 96 92 75 69 76 80 96 98 88 71 59 56 52 58 58 44 51 52 57 54 50 46 45 41 40 43 44 44 44 41
99 98 100 98 91 87 93 93 82 50 52 78 66 64 86 83 83 85 67 64 75 91 97 94 85 74 61 56 56 53 58 56 55 51 49 50 44 43 42 42 40 41 40 41 39
93 92 96 98 99 91 94 100 84 55 55 90 77 76 87 65 61 66 79 78 74 98 96 97 86 74 70 62 68 61 61 46 43 44 46 51 50 45 38 37 36 37 35 34 35
80 95 91 97 99 100 96 100 85 56 62 79 75 74 77 66 65 55 66 81 88 80 97 86 90 80 66 69 55 57 56 56 40 47 43 46 44 30 43 40 40 37 35 32 33
89 90 82 92 95 99 100 99 93 61 81 94 88 78 72 69 69 61 64 77 89 75 79 87 74 61 66 55 55 52 48 56 48 42 44 48 46 36 36 43 40 35 36 37 37
93 81 86 72 86 96 100 99 97 91 97 99 98 88 86 76 72 71 62 75 75 74 72 70 67 58 57 61 54 47 60 50 47 41 49 49 46 37 40 40 38 37 38 39 42
86 93 73 83 72 84 99 100 100 100 100 75 78 73 81 78 76 76 70 71 70 71 70 69 78 76 55 52 47 55 56 54 47 48 52 47 43 37 35 35 35 36 36 35 37
79 85 82 83 82 86 97 100 84 66 87 92 81 84 82 82 77 85 73 62 60 62 60 72 84 53 50 52 58 59 61 56 45 42 49 45 45 36 34 33 32 32 31 32 34
83 85 87 77 84 72 89 99 78 61 60 94 90 85 82 77 68 78 75 68 59 70 67 63 58 54 60 63 68 61 62 56 55 47 46 50 48 28 21 21 23 26 27 27 27
92 89 86 96 76 87 92 96 96 78 94 74 88 86 82 78 67 78 72 66 68 64 64 63 50 63 64 65 59 64 47 52 60 64 66 45 52 29 24 24 23 23 26 28 29
99 91 89 92 97 82 97 96 95 95 94 66 87 91 84 60 67 85 81 70 66 66 65 64 70 73 78 66 57 61 53 54 56 62 64 54 86 35 29 30 27 22 22 22 24
94 91 95 89 93 67 91 100 99 93 88 85 88 92 87 69 73 83 79 69 64 63 65 56 59 55 53 55 56 53 59 61 58 66 89 51 50 42 28 24 23 23 22 22 26
95 100 100 99 96 71 93 100 98 92 60 93 84 82 69 72 78 70 79 86 76 95 92 64 63 56 55 63 58 60 74 72 80 90 64 30 41 39 26 25 24 20 20 25 27
99 100 82 96 85 98 98 99 95 57 62 62 71 66 69 64 77 71 79 88 67 67 76 78 71 62 58 62 56 67 63 63 62 43 41 31 54 33 21 24 24 24 30 37 39
100 99 99 91 99 98 99 98 89 54 61 66 75 77 81 61 61 71 76 70 62 66 83 89 76 59 60 54 56 71 90 55 72 56 79 48 38 29 25 28 24 26 38 40 42
98 95 96 95 99 97 99 99 62 62 55 55 70 58 69 71 67 67 70 56 58 54 48 60 83 56 56 65 62 65 55 86 90 79 66 38 42 38 22 24 26 36 36 36 39
98 97 99 99 98 97 100 89 76 60 56 60 67 65 57 67 62 64 60 54 54 60 54 58 64 69 74 81 61 80 89 94 73 72 70 64 36 19 23 23 21 32 35 38 47
100 100 100 98 99 99 100 69 69 69 76 64 53 55 57 62 69 64 65 53 51 63 75 58 68 85 70 46 46 44 54 61 92 78 88 74 56 22 23 28 44 36 33 44 60
99 99 100 91 99 100 90 73 77 75 74 66 66 56 53 63 73 58 60 51 59 58 60 62 91 90 72 68 58 70 56 54 80 84 88 84 48 24 23 28 32 38 37 41 57
99 100 98 94 91 75 71 72 81 77 75 66 68 61 60 62 58 68 67 58 57 54 62 59 66 85 66 66 61 100 78 77 96 92 68 68 55 37 30 29 26 26 28 41 50
100 98 97 100 86 60 59 68 75 76 71 66 68 61 62 70 69 68 64 62 62 64 63 65 100 92 77 66 77 89 85 93 99 79 80 55 47 38 33 32 31 35 45 62 57
98 98 90 86 74 57 70 68 68 76 67 72 68 64 63 66 65 69 66 66 62 62 66 71 89 97 96 79 78 97 88 94 97 94 69 60 60 42 42 50 56 62 78 70 64
99 99 99 87 74 63 67 63 63 63 70 68 64 68 76 69 63 65 64 64 63 65 72 89 100 100 88 63 72 96 96 96 95 92 75 82 59 47 78 83 86 88 78 71 68

GFSSW_850_rhum_015.txt.gz
RH
98 99 99 82 81 92 90 90 81 68 31 44 45 64 89 86 84 82 88 77 78 75 66 72 63 56 53 47 43 48 41 36 30 22 20 17 19 22 20 19 19 19 19 29 38
90 95 98 98 84 85 91 94 83 76 43 43 46 70 97 69 92 88 79 80 68 65 78 66 54 52 46 43 46 44 40 31 19 18 20 20 24 22 24 22 19 22 23 29 35
90 73 96 96 98 86 90 98 89 82 56 48 48 81 95 71 97 82 82 72 78 64 83 63 53 48 40 40 42 40 41 24 22 31 31 28 24 24 25 27 20 20 22 25 30
92 92 95 99 99 96 92 96 95 85 56 48 50 83 96 100 89 88 83 84 83 91 77 69 58 51 43 42 39 41 33 30 29 32 40 35 30 26 28 26 23 23 24 27 31
91 90 94 99 99 98 85 91 100 86 58 52 55 72 86 98 91 78 75 77 89 93 82 68 58 48 46 39 39 44 37 29 34 39 40 40 37 35 34 33 30 29 30 34 33
91 88 90 94 98 100 98 88 98 87 67 52 63 62 92 85 85 81 72 82 84 97 92 77 63 54 50 44 45 39 41 39 39 40 40 42 37 35 32 32 32 32 33 33 34
91 91 89 90 80 98 100 93 92 96 71 63 74 71 84 68 70 75 83 80 85 90 90 87 84 73 66 56 52 51 53 41 37 37 38 39 43 39 34 32 29 28 29 29 30
93 93 87 91 94 88 98 100 90 99 67 76 85 93 71 70 76 58 72 84 83 88 90 93 84 75 56 57 50 50 44 49 31 34 32 36 42 24 28 30 30 28 27 26 25
94 92 94 91 87 83 93 100 88 100 68 76 84 86 62 65 70 70 66 74 78 78 85 93 84 66 58 54 46 43 46 40 35 29 34 40 41 26 31 29 28 30 28 29 28
89 66 71 81 71 76 91 99 93 99 86 98 99 82 71 66 78 75 67 70 66 68 71 65 56 53 51 48 51 42 48 40 36 28 37 39 37 28 28 30 32 31 30 29 28
77 77 80 69 75 89 87 94 98 99 100 84 74 60 69 78 80 76 67 69 65 60 61 59 70 67 47 42 40 42 42 39 32 28 38 38 35 28 24 25 27 28 28 28 28
79 78 86 82 78 79 90 100 100 98 94 82 71 72 74 72 72 72 65 62 65 72 58 76 82 49 40 41 45 47 49 46 36 31 37 38 37 29 26 24 24 25 26 26 26
82 86 84 85 84 66 74 92 100 100 84 84 72 71 80 76 59 73 64 54 58 62 58 66 51 46 48 51 56 49 51 47 44 37 38 42 41 27 21 22 21 21 23 24 24
93 89 85 88 83 98 94 83 95 100 99 94 84 71 78 69 62 69 63 57 56 58 55 58 43 50 50 56 48 55 36 40 46 51 54 39 46 24 16 16 17 18 19 20 20
92 88 84 92 98 98 93 100 88 100 96 73 76 74 69 54 64 72 64 66 56 52 53 58 56 57 61 52 45 51 46 48 49 54 55 44 57 32 16 16 15 15 19 20 21
95 96 96 88 97 75 85 99 100 99 95 87 82 82 69 52 62 68 70 65 52 49 50 45 47 48 47 46 46 47 51 53 53 64 83 45 40 33 20 14 15 13 17 19 19
97 100 96 96 96 97 84 98 99 97 60 95 75 76 65 64 65 67 73 74 69 91 84 58 54 48 45 56 50 54 67 69 80 90 64 24 30 30 17 16 16 17 17 18 20
98 98 93 96 96 91 97 87 98 61 60 56 73 67 73 60 59 61 69 74 52 52 62 76 74 54 52 54 52 61 60 58 52 38 34 26 34 26 18 14 17 17 19 20 23
98 92 98 98 98 91 90 86 98 53 57 71 69 77 75 63 64 61 61 64 50 50 75 70 70 46 48 46 47 60 81 50 67 50 61 39 28 20 17 17 17 18 20 19 27
99 97 100 93 86 90 90 98 77 48 50 52 67 59 71 63 71 62 60 47 52 44 41 52 75 48 47 52 49 54 46 81 86 80 54 33 28 28 20 19 17 18 19 21 29
95 99 96 94 93 94 97 99 64 51 50 53 53 55 53 58 52 57 56 48 42 45 45 48 56 67 63 68 50 67 74 85 59 70 74 63 39 20 21 21 22 18 19 28 31
98 100 99 87 95 87 98 95 58 61 67 52 44 42 46 47 51 49 49 45 43 45 56 48 60 80 63 40 39 42 56 55 88 67 77 75 62 25 22 21 21 22 31 27 26
98 98 99 100 89 78 95 80 59 70 64 56 54 45 43 48 58 48 47 44 44 50 50 51 74 82 79 56 43 52 48 47 61 78 92 90 56 20 20 23 21 23 26 27 29
98 100 98 95 89 66 93 68 73 70 61 54 53 45 48 50 48 52 56 53 48 47 58 49 61 83 63 68 54 95 71 62 82 97 71 62 55 40 33 33 37 29 26 25 29
98 92 89 93 69 74 69 62 71 63 59 52 54 48 45 53 53 55 52 54 53 52 52 55 99 78 65 59 66 74 72 71 98 94 97 65 56 42 38 40 51 45 40 34 41
99 98 84 67 54 52 58 56 59 63 55 56 52 50 50 51 52 57 54 52 53 56 58 62 90 92 93 68 68 82 64 72 95 94 95 94 93 59 46 58 54 62 64 74 69
98 97 100 68 53 48 51 51 56 53 63 56 53 58 60 56 57 57 54 51 52 59 66 77 97 98 80 55 61 84 95 96 95 88 93 97 80 55 60 73 79 80 79 87 80

GFSSW_850_rhum_018.txt.gz
RH
69 72 97 94 95 88 84 91 92 90 77 61 40 44 57 83 84 83 89 72 78 87 61 81 69 60 53 49 41 39 54 52 41 33 28 17 19 18 20 20 18 19 19 28 48
93 95 90 89 98 96 92 86 85 93 84 76 41 46 65 93 90 100 76 82 84 82 66 72 61 55 52 48 43 47 62 52 32 26 25 26 19 20 21 21 20 20 20 27 32
93 94 95 95 96 100 99 91 89 93 88 80 42 48 89 84 97 74 73 78 87 72 58 70 53 47 50 42 42 45 54 35 27 22 25 33 32 24 24 29 23 20 19 23 28
90 91 91 93 96 100 100 98 91 93 94 82 40 50 86 88 84 86 80 78 70 72 94 71 58 49 48 46 38 46 36 35 33 29 32 37 34 32 28 25 24 24 23 23 27
91 93 93 91 94 98 100 99 87 92 98 81 41 56 88 100 88 79 78 83 82 84 86 66 56 50 51 40 36 41 37 31 30 31 33 36 38 41 37 33 28 27 28 27 31
93 91 94 96 91 91 93 100 99 89 98 81 45 65 84 89 82 80 72 81 84 81 84 66 54 50 51 40 40 37 39 39 38 34 36 39 38 38 35 33 34 34 32 31 31
90 92 96 95 98 98 100 97 100 98 100 86 62 69 88 76 71 80 75 74 80 83 87 77 74 63 61 56 51 46 57 48 43 40 40 38 46 45 38 36 33 30 30 31 31
92 76 84 93 91 90 88 89 100 100 97 90 78 85 74 67 73 68 71 77 64 88 82 83 79 74 64 58 50 55 55 68 35 37 36 39 54 34 29 34 35 33 30 28 28
76 74 77 92 90 78 76 79 94 100 94 93 94 94 70 69 70 70 63 72 80 78 87 90 79 70 58 58 59 53 62 55 43 35 34 39 47 35 30 28 29 30 28 28 27
75 75 74 80 74 75 81 79 81 99 99 98 93 88 73 69 66 68 61 68 76 76 86 87 72 63 60 64 73 54 56 47 44 36 36 44 45 35 30 28 29 30 30 31 29
78 79 76 80 79 79 80 92 90 100 99 89 80 62 59 70 73 70 64 69 62 75 68 62 70 78 58 54 49 46 50 52 38 30 37 39 37 33 28 27 26 27 28 28 29
78 80 81 82 80 76 72 98 92 99 99 86 72 65 72 70 70 68 65 66 64 73 58 70 82 54 44 40 46 49 56 56 42 34 37 43 44 37 32 29 27 26 24 25 26
82 89 92 84 82 72 91 96 95 100 99 91 77 71 73 69 64 68 63 60 63 68 73 64 53 46 50 52 55 55 57 54 50 42 40 43 47 38 28 29 28 27 26 24 24
92 90 77 93 84 97 88 98 100 100 100 99 90 69 75 66 60 66 61 54 60 71 65 64 46 46 52 57 50 62 42 44 46 56 68 44 75 39 28 21 25 21 22 21 20
91 92 89 99 98 98 91 96 100 98 100 95 86 69 70 61 67 69 61 58 58 56 59 66 56 59 60 50 45 51 49 50 52 62 73 58 74 47 28 27 19 19 18 18 20
88 95 98 100 100 84 83 97 98 99 98 99 86 74 74 58 61 66 64 61 51 46 51 51 45 47 50 44 46 47 49 53 56 66 96 69 55 40 31 24 19 16 16 16 17
92 99 94 96 98 84 93 99 99 98 78 96 88 72 62 63 70 67 76 78 76 90 86 60 58 48 45 54 50 53 65 93 96 96 89 38 47 36 23 21 19 19 17 17 17
100 89 92 100 99 95 93 97 95 92 73 58 70 68 64 60 70 71 76 79 61 60 78 87 84 58 49 57 61 64 66 89 77 83 68 40 60 38 20 18 16 16 17 17 18
96 82 85 99 93 80 89 84 98 89 58 71 70 77 72 61 63 69 76 71 55 51 81 81 71 47 50 48 52 67 83 55 78 62 86 58 34 26 22 21 20 18 17 18 19
86 90 89 96 79 85 98 87 100 53 54 52 68 57 73 67 66 67 64 51 50 46 44 56 74 50 52 48 49 57 49 85 88 95 81 50 41 40 29 24 22 27 21 18 19
95 98 96 90 81 87 99 100 90 52 50 52 56 55 53 66 60 60 55 46 44 45 43 46 60 68 66 70 67 68 74 72 71 83 94 80 52 27 32 30 28 26 24 29 33
99 97 94 92 94 94 98 97 67 64 61 48 41 42 50 51 55 54 52 46 40 43 57 46 62 92 80 50 49 54 64 62 86 79 80 86 68 32 31 28 30 26 23 23 30
94 93 93 99 95 91 94 84 60 68 62 54 49 43 40 48 56 48 48 42 42 48 53 51 82 94 88 62 48 57 53 53 59 71 90 94 64 27 32 32 32 32 43 45 30
98 96 85 96 92 81 96 77 91 71 55 48 47 42 44 48 45 54 56 50 44 48 47 47 63 85 91 78 72 98 79 63 68 98 80 77 66 49 43 40 51 56 48 44 49
97 87 79 90 68 73 74 79 68 58 55 49 50 45 46 54 51 54 53 57 50 57 51 55 98 83 75 64 65 72 74 71 94 94 98 79 79 66 61 68 67 62 63 58 66
94 99 84 62 57 65 61 67 65 58 57 53 51 44 45 49 57 52 51 53 60 57 59 60 97 98 89 75 75 82 72 71 75 95 96 95 94 68 64 64 62 63 69 74 76
98 98 100 55 53 55 49 53 58 57 61 54 50 54 56 64 59 55 53 51 54 60 66 86 99 98 90 66 73 87 75 85 84 78 88 98 86 77 65 66 70 78 79 80 84

GFSSW_850_rhum_021.txt.gz
RH
93 94 94 96 91 100 100 99 90 91 90 87 73 35 44 51 86 82 85 62 54 74 73 72 61 52 53 53 49 44 67 72 57 48 38 24 30 22 20 20 18 19 22 42 52
93 92 93 93 95 100 99 100 97 92 90 89 80 43 43 67 92 94 64 72 68 64 88 81 73 60 58 52 49 52 74 65 44 39 35 29 35 32 22 22 21 20 29 46 44
86 91 91 92 93 94 98 99 99 96 92 93 83 48 49 99 92 67 68 76 87 92 81 70 70 60 59 54 50 50 68 50 46 34 32 36 36 34 32 29 22 21 21 28 26
91 93 92 94 94 94 95 98 98 100 98 99 86 50 61 97 88 83 72 81 88 83 80 68 75 67 58 61 48 58 46 44 39 36 35 38 37 42 38 32 30 27 26 27 35
85 92 88 86 93 95 96 99 98 100 98 98 92 71 74 99 85 82 81 78 85 72 63 64 74 64 59 51 45 48 44 40 39 34 37 33 40 42 40 37 31 28 29 31 29
94 91 90 92 80 90 93 91 100 98 100 99 94 70 86 94 72 76 73 86 87 78 66 79 70 56 52 53 48 42 42 44 43 43 43 42 41 38 38 31 33 33 29 31 34
89 72 65 91 94 92 92 91 93 96 100 100 94 75 96 79 78 79 68 74 76 79 68 68 78 61 58 56 52 50 58 56 52 48 48 40 52 51 38 37 38 36 32 31 32
74 73 69 86 90 94 87 86 71 76 99 100 97 81 86 53 72 78 74 75 81 85 73 76 78 66 64 55 50 57 58 79 54 46 47 45 60 45 36 39 38 37 35 32 30
89 79 74 80 74 74 69 70 73 64 96 99 99 86 79 69 71 71 67 75 74 78 81 82 84 72 61 63 66 61 78 73 61 39 43 50 54 42 37 35 36 35 34 33 33
93 76 74 73 75 78 75 71 64 65 88 93 96 92 83 78 72 70 59 72 78 81 92 94 92 84 72 69 88 71 74 56 55 40 39 46 53 44 35 33 33 31 32 33 33
77 75 70 74 72 76 79 69 78 84 93 93 90 74 60 68 68 70 61 70 77 76 85 92 88 91 76 69 59 61 56 62 53 40 42 44 47 41 33 32 32 31 29 28 28
82 82 94 93 78 74 81 92 84 99 98 86 87 77 71 69 72 69 66 69 70 86 65 75 88 70 59 56 60 60 61 65 53 40 43 48 47 40 37 35 33 32 31 27 26
92 92 89 86 75 74 94 96 96 97 99 96 90 79 70 69 72 67 68 66 68 74 68 81 59 54 57 58 57 58 63 63 60 50 47 51 55 44 38 34 32 32 30 28 26
92 92 92 94 90 86 84 96 100 96 99 99 93 75 69 68 71 65 65 60 64 74 72 69 47 51 61 64 56 68 51 52 57 63 75 55 86 62 39 32 28 32 31 29 26
86 88 94 99 100 98 90 98 98 97 97 98 93 75 63 72 68 66 63 56 68 70 74 85 64 59 58 56 48 60 52 56 59 69 73 69 78 64 44 36 28 23 24 25 24
92 96 99 98 100 98 90 97 97 97 96 100 86 78 79 66 67 68 65 57 52 57 62 57 47 51 58 48 48 48 56 57 63 76 96 75 65 56 38 31 21 17 16 16 18
99 92 93 89 97 99 98 99 96 97 95 100 93 77 74 79 75 69 74 77 79 91 97 68 63 49 47 60 52 59 69 95 91 94 89 58 71 52 29 25 22 22 18 16 19
83 86 98 89 94 85 100 90 97 99 96 75 72 72 79 70 79 70 80 83 69 65 89 89 86 67 55 62 72 73 66 90 91 96 81 51 68 47 29 23 20 17 18 16 16
72 76 88 98 92 93 95 97 98 99 71 80 68 71 78 65 78 74 75 68 64 64 80 90 78 56 54 50 56 70 85 60 81 72 93 70 50 33 26 25 24 23 23 24 21
68 81 99 90 91 94 99 94 100 70 67 57 89 68 83 72 80 74 79 62 56 54 53 60 79 57 58 50 51 61 58 86 92 100 95 72 57 46 33 30 34 32 28 31 26
66 91 96 98 96 90 100 100 87 55 64 65 66 65 61 69 72 70 74 54 52 56 54 49 64 74 62 73 75 72 83 73 76 91 98 99 71 37 36 35 37 34 29 30 34
80 89 92 82 89 94 100 100 90 70 62 54 46 53 58 66 69 63 66 53 46 45 60 50 71 97 80 62 58 62 70 69 86 78 91 94 69 33 33 35 35 34 36 37 38
86 92 85 92 98 100 93 78 74 84 66 56 56 47 50 56 63 54 56 45 44 45 61 54 78 93 81 71 58 69 64 63 63 76 84 91 65 31 36 36 38 51 64 68 56
94 97 74 91 91 88 87 91 83 64 62 55 50 44 50 51 50 58 68 50 49 54 48 47 74 80 86 79 79 86 75 67 71 97 78 76 65 51 47 50 57 64 70 77 68
90 91 80 95 88 84 87 81 68 68 55 51 53 48 51 58 57 65 65 60 51 57 53 61 88 92 80 75 77 77 76 73 84 78 97 68 71 65 62 69 68 68 69 67 80
91 99 97 90 69 77 68 71 70 66 70 59 56 54 63 70 65 64 63 66 67 64 62 66 98 96 98 76 81 91 78 72 72 71 78 81 84 64 65 77 70 67 68 73 74
100 97 100 88 67 66 65 70 64 64 62 62 54 60 80 76 68 63 56 55 55 69 71 81 96 98 96 74 85 93 79 70 78 80 82 97 77 64 75 85 96 99 97 93 86

GFSSW_850_rhum_024.txt.gz
RH
94 92 92 92 94 93 95 96 95 99 100 100 93 83 52 50 62 81 89 37 46 73 76 78 68 58 53 56 52 50 73 78 59 53 43 30 33 26 22 21 20 21 27 26 43
93 90 91 90 88 93 98 90 96 98 100 98 99 89 65 57 82 96 45 56 51 76 70 85 75 67 64 57 52 58 80 69 50 43 41 33 34 33 28 24 21 23 27 47 54
83 85 81 83 87 87 91 93 98 93 95 100 100 93 69 80 97 70 49 57 61 80 66 83 79 69 67 58 54 57 72 54 49 44 41 40 36 38 34 31 26 28 37 47 57
83 91 89 92 86 88 79 90 97 91 96 99 96 98 70 90 91 82 66 66 82 87 67 76 85 76 67 68 54 60 51 45 44 39 42 38 35 42 39 32 29 35 32 52 59
79 87 82 94 91 94 84 78 88 89 84 99 88 100 75 92 87 88 78 82 88 86 87 81 81 73 67 61 56 54 49 44 41 41 42 40 41 41 43 37 30 34 35 33 31
74 75 72 71 90 79 86 93 88 89 83 98 97 100 72 94 59 77 82 82 88 83 82 72 75 68 58 56 56 47 44 43 43 45 46 47 45 40 37 34 33 32 31 33 32
82 76 72 70 73 80 94 94 96 98 78 97 95 100 83 66 87 70 77 80 83 73 73 54 67 68 57 60 52 52 55 54 50 48 49 44 50 56 38 34 34 31 28 25 28
95 92 74 72 73 75 71 88 66 58 51 94 100 100 82 50 79 83 74 81 83 83 73 55 77 72 63 56 54 59 62 72 51 46 44 48 57 44 36 39 40 36 34 33 24
95 88 74 73 73 76 71 74 56 65 63 90 100 94 68 56 69 84 74 79 84 87 85 76 80 71 60 70 72 67 78 77 66 48 47 57 60 45 36 40 39 36 34 32 31
80 73 75 75 79 83 75 66 52 60 56 77 99 95 85 71 63 75 76 79 80 83 98 92 92 86 78 73 93 74 81 66 62 44 44 48 62 50 41 40 38 36 33 32 31
94 88 86 87 83 80 80 64 76 96 72 97 95 84 62 60 66 73 67 76 82 85 95 93 91 96 83 72 59 60 60 64 58 46 48 49 49 45 37 36 34 33 30 28 28
85 88 80 95 82 78 84 82 88 95 98 87 92 86 62 72 77 70 65 75 82 88 76 85 94 74 72 72 68 65 69 72 58 47 45 52 52 42 39 37 35 32 31 29 26
94 85 88 87 94 89 90 89 90 93 98 98 94 83 72 66 72 76 68 71 78 77 73 80 69 62 70 61 61 61 65 64 64 56 48 56 41 40 37 34 32 32 30 30 30
86 86 88 93 98 95 93 78 99 95 98 99 97 86 71 68 74 68 68 63 66 76 68 68 48 66 72 66 60 68 53 55 58 63 79 57 79 64 47 38 32 28 29 29 29
98 88 91 98 100 100 90 78 95 86 96 98 96 85 73 72 71 71 63 58 71 73 72 81 67 61 70 63 54 63 52 56 58 71 71 70 83 65 52 43 35 30 21 21 21
98 96 88 88 95 99 93 90 93 95 96 99 89 80 78 66 71 70 63 56 60 69 67 60 50 53 56 51 51 54 56 67 75 76 92 69 73 60 41 32 25 20 18 17 17
80 92 95 84 100 100 97 95 93 96 98 99 94 76 76 82 76 73 72 70 83 98 100 74 64 50 50 64 57 58 67 85 83 97 82 63 77 68 42 34 27 26 20 19 19
87 89 88 89 94 86 92 96 91 100 100 79 77 71 89 75 79 75 75 82 68 73 85 90 85 65 53 62 71 66 65 80 70 96 86 61 77 48 36 30 23 24 24 25 26
69 91 92 91 93 95 95 94 98 99 92 90 65 80 81 80 86 73 72 77 69 64 78 89 76 57 55 53 57 72 84 62 81 76 94 76 58 37 30 28 34 30 28 30 31
64 78 75 73 87 96 93 98 100 93 64 60 93 74 86 84 84 76 72 58 57 58 54 65 83 64 59 51 53 60 61 86 92 98 91 76 67 48 35 32 37 35 31 34 40
63 79 88 85 86 88 100 100 92 62 65 61 70 64 59 69 79 75 77 59 54 55 53 53 72 74 65 73 76 76 85 78 78 88 98 95 73 44 34 34 38 41 38 44 51
71 92 83 78 88 97 100 98 91 78 66 61 53 57 58 72 75 71 79 62 50 54 67 52 76 94 83 61 59 65 73 74 90 77 94 92 81 40 41 35 39 37 42 53 58
75 83 76 80 93 97 89 87 81 78 70 56 56 50 56 71 72 60 57 48 50 54 62 54 77 94 80 72 67 73 69 67 68 77 92 93 71 38 42 38 39 49 64 69 69
79 90 69 82 89 86 89 88 74 58 60 53 55 50 52 54 51 66 64 53 51 53 46 49 79 77 86 76 79 85 75 72 76 98 86 80 61 50 47 45 52 67 76 71 70
82 95 96 98 81 79 89 81 74 72 60 51 51 49 54 63 64 74 64 59 58 56 58 62 86 90 82 77 79 80 78 77 88 74 93 66 68 60 56 55 60 85 85 73 74
93 96 96 98 82 78 72 72 78 70 70 64 66 63 54 70 66 74 68 66 63 63 65 67 96 94 95 82 87 92 81 76 73 67 68 68 73 52 58 62 70 92 97 94 93
88 98 99 83 82 73 67 66 64 64 60 63 60 75 81 76 69 57 50 51 59 69 75 78 93 99 97 77 86 96 86 79 73 70 74 91 72 67 75 67 91 99 89 88 90

GFSSW_850_rhum_027.txt.gz
RH
84 89 92 92 84 81 84 99 83 85 98 99 99 100 90 73 60 89 93 44 37 59 70 71 79 77 67 59 55 52 75 81 54 50 41 34 34 30 27 25 22 22 25 29 38
88 77 83 84 78 82 93 85 90 84 86 95 92 98 95 82 78 95 32 42 38 84 92 83 62 75 75 60 55 61 84 72 53 47 42 38 39 38 33 30 24 23 24 29 55
92 84 71 83 84 83 81 82 92 88 90 88 90 92 100 88 87 59 29 37 52 82 86 90 81 80 66 60 58 63 74 56 52 46 45 42 40 36 38 39 28 27 51 60 64
92 78 77 74 86 81 82 81 88 93 91 81 93 97 100 85 89 85 66 45 56 78 93 98 91 72 73 72 57 62 56 50 48 42 43 41 38 42 38 35 32 33 44 64 65
85 84 76 77 78 84 69 80 90 93 93 81 92 97 100 96 70 88 86 61 72 78 86 98 93 74 73 66 59 59 53 49 46 42 45 43 43 44 43 33 32 36 34 35 47
87 81 84 90 96 84 64 94 93 92 94 93 91 100 100 91 58 54 90 77 88 85 80 90 88 72 61 59 66 51 50 47 43 44 44 48 48 43 41 34 31 34 33 33 33
87 83 93 80 77 71 78 79 93 94 96 100 92 100 100 84 63 54 71 76 87 85 81 84 74 72 63 62 52 51 57 54 53 49 51 47 53 61 41 36 36 34 33 30 29
86 92 86 75 72 70 70 88 92 91 84 100 98 100 97 78 77 81 83 84 74 72 72 75 80 72 62 57 58 64 62 73 52 50 47 46 58 46 37 39 39 34 31 28 28
79 85 73 74 72 76 80 80 84 88 80 97 95 100 85 72 64 86 87 87 89 91 86 64 72 74 64 72 74 69 84 77 64 49 50 58 66 46 40 40 41 36 32 29 32
79 84 89 78 85 82 71 70 58 56 58 84 82 97 89 79 54 84 81 84 91 87 93 82 83 86 81 82 86 80 75 71 66 45 51 54 62 50 42 44 45 40 38 36 34
87 91 91 95 86 78 70 64 69 82 93 86 98 91 84 76 60 86 78 84 87 90 94 91 98 94 84 74 62 62 66 67 58 49 50 54 53 47 39 38 40 36 36 35 32
91 83 84 87 86 85 82 84 91 93 90 83 94 93 75 69 71 76 72 82 89 94 89 95 95 81 72 78 74 69 73 74 62 52 49 56 56 45 40 37 35 34 31 30 30
85 86 85 84 95 94 91 85 82 92 97 70 88 96 77 71 73 77 68 79 91 86 79 90 79 86 83 87 84 69 71 67 66 58 51 60 53 43 36 34 30 30 32 31 32
99 100 89 99 92 98 89 72 94 92 93 97 93 87 72 66 76 73 68 68 75 84 72 70 58 84 84 76 62 74 54 57 60 64 78 60 81 64 44 44 40 32 27 25 24
78 80 91 98 98 98 92 89 98 92 95 99 96 86 74 70 71 71 68 61 75 81 71 86 64 78 82 69 54 64 53 57 61 72 67 68 81 65 44 39 31 29 22 21 22
82 84 88 89 91 99 98 86 96 95 97 99 96 88 78 71 74 72 64 60 66 73 61 62 51 53 56 56 52 55 58 67 78 75 90 65 72 58 39 31 32 31 23 23 20
79 79 77 92 94 95 87 89 94 95 98 100 93 76 72 80 78 75 71 73 88 98 99 77 66 52 54 64 57 57 66 80 71 90 76 66 78 58 44 38 34 35 27 32 32
76 56 67 67 66 78 87 88 94 98 100 87 74 74 89 76 78 78 75 81 68 76 99 94 94 64 52 61 70 64 63 76 54 86 83 67 79 48 38 33 30 31 33 32 32
69 67 85 98 94 99 87 95 97 99 88 88 68 93 100 83 87 94 77 77 68 63 79 82 78 59 54 56 57 73 84 62 82 80 93 74 58 38 33 36 35 33 34 35 35
66 77 94 96 99 90 87 97 99 94 67 65 94 79 85 92 88 90 69 59 58 59 56 68 86 65 60 52 58 61 64 84 92 70 84 69 73 53 36 35 39 38 40 39 42
64 75 91 89 92 78 99 99 86 62 66 60 78 68 74 78 78 73 76 59 53 59 54 58 72 75 65 73 79 76 87 82 79 84 89 95 63 51 37 36 40 46 40 44 56
64 86 74 76 88 98 99 98 88 84 71 66 55 56 67 71 74 71 76 65 52 57 64 55 78 96 79 63 60 66 74 77 85 77 96 94 80 46 45 40 42 40 44 56 70
64 70 69 75 95 88 84 91 88 76 65 58 56 50 59 68 72 65 65 50 52 57 64 58 79 92 85 73 70 72 72 69 70 79 90 92 73 41 46 41 41 45 54 73 80
72 91 68 77 88 84 95 87 76 61 61 53 56 53 59 61 56 71 63 60 55 53 49 50 75 76 84 74 81 88 78 74 77 98 87 83 71 47 45 44 45 50 76 84 85
78 99 98 97 84 84 88 80 76 82 65 50 52 54 55 68 67 75 64 61 60 60 62 60 85 88 80 75 77 78 74 80 88 76 87 63 67 54 48 46 48 66 84 86 82
93 93 91 92 91 82 75 73 77 72 70 64 56 54 52 65 62 78 68 65 63 62 66 68 96 90 93 80 88 92 82 81 78 74 74 70 74 50 49 60 69 85 90 84 86
99 98 99 86 88 77 70 69 67 67 62 66 65 77 79 75 68 52 48 50 54 70 76 76 92 94 97 79 88 94 86 80 79 73 70 84 63 62 73 70 78 92 86 84 88

GFSSW_850_rhum_030.txt.gz
RH
97 89 86 88 83 87 85 84 91 92 96 85 98 95 100 99 94 86 94 60 42 68 87 59 91 84 75 63 60 54 76 80 55 53 41 34 35 32 31 30 26 23 23 30 32
93 92 86 72 76 75 77 84 90 94 58 75 79 93 97 100 98 92 48 32 36 82 100 75 99 89 79 62 59 63 82 73 50 44 41 41 39 37 36 36 29 23 35 33 40
87 83 81 76 76 87 86 82 77 70 84 54 73 91 98 99 100 90 55 30 33 91 97 76 83 83 79 66 62 65 72 58 53 45 45 46 46 39 39 38 32 31 42 64 60
78 80 76 82 76 78 76 75 77 77 88 93 94 98 98 100 93 88 62 33 35 92 99 87 89 84 77 75 61 66 58 52 47 48 47 44 40 42 40 35 33 33 34 51 75
91 85 78 82 84 83 76 71 94 78 90 92 93 99 98 100 86 94 98 88 52 88 99 93 88 76 72 68 61 62 56 53 49 48 48 46 45 45 42 36 34 33 33 35 41
93 84 88 84 81 84 68 83 82 89 96 99 98 89 98 98 80 72 86 83 60 88 98 94 83 70 63 66 61 57 53 50 48 46 45 49 49 46 42 36 34 34 33 31 32
86 77 70 82 76 74 73 90 84 97 99 94 95 92 99 96 77 73 54 84 67 82 92 87 85 66 64 64 56 55 56 55 55 50 51 49 57 64 42 38 36 35 35 33 31
80 79 82 87 66 71 73 81 78 84 98 100 90 95 95 83 78 81 79 87 81 96 78 85 80 74 63 60 61 67 62 76 54 56 50 48 57 46 37 39 39 36 33 32 29
76 86 84 96 87 78 79 63 63 66 82 99 88 93 84 84 73 80 95 88 84 84 79 75 75 76 67 74 77 72 90 82 64 52 50 60 68 49 44 46 46 41 36 34 32
83 85 91 95 95 80 72 60 58 63 56 73 96 97 95 95 76 78 97 85 90 87 84 81 75 89 84 74 85 77 76 74 72 48 58 62 65 49 38 38 45 37 37 39 37
98 90 81 84 82 86 75 63 64 75 80 88 94 86 90 86 83 85 95 100 100 97 90 81 94 88 77 77 64 68 71 70 60 50 52 60 59 51 42 41 40 35 32 31 31
93 100 86 84 88 90 88 79 88 87 89 76 96 89 94 76 80 89 85 93 90 97 91 95 91 77 74 68 72 71 76 76 66 54 52 59 60 47 41 42 36 35 32 31 30
81 83 100 84 91 93 95 80 88 99 94 90 99 98 88 72 83 88 83 85 87 92 87 90 80 84 70 75 79 71 78 71 69 59 54 65 57 48 37 35 32 29 29 30 29
82 81 96 86 99 96 90 87 89 96 92 93 98 97 96 70 80 76 82 82 89 91 81 90 86 82 89 84 70 76 55 58 59 64 77 61 74 60 47 43 36 27 26 26 23
78 84 84 91 93 90 82 91 89 95 95 96 94 89 72 67 73 79 80 70 88 85 87 89 95 95 93 89 67 68 55 59 63 72 66 65 78 55 40 31 29 30 32 37 37
84 87 96 97 95 96 81 87 92 86 97 99 93 78 80 73 78 74 73 75 80 79 72 66 57 65 76 71 59 56 59 67 75 75 83 63 69 47 35 33 35 36 35 36 33
80 70 79 87 75 74 78 80 87 94 99 99 96 76 79 83 77 70 74 77 93 99 99 76 67 53 54 65 55 57 67 86 68 80 74 71 74 52 43 42 37 37 36 35 34
80 81 77 85 86 93 97 84 90 97 95 83 75 79 92 84 82 75 73 81 69 84 94 93 93 62 54 61 70 65 63 79 54 76 75 70 80 46 41 33 31 32 36 34 39
69 68 81 97 97 98 97 96 97 100 84 84 70 88 96 85 87 91 86 77 68 63 81 87 82 60 56 58 56 73 84 62 85 84 88 70 57 33 38 40 37 36 36 42 43
54 60 80 87 95 97 94 95 99 90 61 68 91 82 92 92 86 90 78 63 67 59 56 67 89 67 61 55 62 61 64 81 89 68 70 61 69 51 37 35 42 45 44 44 49
56 63 74 77 82 78 99 100 81 70 69 62 78 71 81 84 80 83 74 58 53 63 56 62 74 80 63 71 78 74 87 81 78 83 82 78 48 50 43 37 42 47 40 45 55
64 84 71 67 88 97 100 98 85 83 72 61 55 61 72 71 74 71 80 62 53 56 64 56 79 97 77 66 63 66 75 74 83 77 96 94 73 44 46 47 43 40 42 53 71
65 62 64 69 96 95 85 86 87 79 68 59 56 51 61 67 72 64 64 54 53 54 61 62 79 93 84 72 69 75 75 70 70 80 95 88 60 45 48 47 41 42 48 62 75
69 89 67 71 88 80 89 85 76 64 63 56 58 55 60 59 62 69 64 62 57 53 50 53 74 76 80 70 82 91 81 75 76 96 85 83 71 49 46 49 43 46 54 77 79
78 97 98 97 87 90 86 84 80 83 69 52 55 57 58 69 71 74 66 63 62 60 64 61 87 86 78 72 79 77 75 84 84 78 86 69 74 57 52 51 46 54 75 82 80
92 92 88 91 95 77 76 75 79 74 76 62 62 56 56 67 64 79 69 66 64 62 67 68 95 89 94 77 87 94 85 80 80 73 75 70 74 50 48 52 68 74 87 84 84
97 98 95 83 91 78 76 74 74 73 64 70 59 73 75 76 72 58 52 53 56 71 77 75 96 94 91 81 88 94 88 82 74 75 69 82 57 51 65 69 73 80 88 87 87

GFSSW_850_rhum_033.txt.gz
RH
86 84 79 87 80 78 75 77 80 84 88 55 63 82 86 94 98 100 98 70 38 56 84 58 96 82 68 62 56 53 62 66 57 49 40 35 34 33 30 30 28 24 25 30 38
93 79 74 76 77 76 80 81 80 85 80 68 53 57 82 88 99 100 88 66 43 95 96 67 97 95 78 65 60 59 67 63 46 41 39 39 38 36 35 37 30 27 40 33 36
90 86 85 80 82 80 77 75 80 82 79 88 78 87 97 91 98 94 81 70 46 56 90 90 91 93 79 68 66 66 61 55 51 38 40 44 46 39 38 38 33 32 42 55 53
83 91 83 75 74 77 78 86 90 94 77 73 92 94 96 90 92 82 89 68 65 79 96 96 94 89 81 75 65 67 60 52 48 48 49 49 43 42 40 34 34 35 34 37 68
79 81 85 79 78 74 79 66 82 94 74 81 90 94 93 85 94 74 96 96 98 93 92 97 96 83 74 68 64 62 61 52 48 49 49 46 45 43 42 36 35 34 34 33 37
88 84 82 88 79 71 68 72 83 81 72 86 84 91 84 97 88 83 82 87 90 96 88 93 86 78 70 66 61 59 53 52 50 49 47 50 49 47 40 33 33 35 34 33 32
96 85 84 85 87 81 78 65 91 83 81 87 84 83 96 84 91 78 94 78 76 98 85 90 74 65 65 69 56 56 62 55 54 51 49 47 51 60 39 39 36 32 32 33 34
94 92 82 90 86 87 70 70 66 64 82 92 87 89 90 54 89 94 96 69 97 86 85 88 75 63 61 59 63 66 61 74 55 57 49 42 48 43 41 44 43 39 38 37 30
93 96 96 80 84 92 86 70 58 59 83 79 87 85 86 73 77 77 90 89 98 84 79 80 75 74 66 73 80 73 81 80 62 58 54 55 64 49 47 44 42 38 38 38 35
79 78 95 81 81 83 78 66 61 65 70 83 76 97 87 84 68 72 84 90 92 83 82 82 78 88 82 77 80 88 79 77 64 51 60 65 68 53 42 41 40 36 34 36 35
88 84 84 93 82 83 81 72 72 78 75 82 80 93 89 88 84 70 85 99 86 87 96 86 91 84 71 66 64 67 72 70 63 53 54 60 60 51 44 44 42 37 34 32 32
85 76 82 100 86 88 90 80 92 92 81 70 87 93 95 92 82 81 96 90 93 93 86 89 89 73 70 67 65 69 74 74 64 54 52 58 55 45 42 44 41 40 37 34 34
88 77 84 87 84 93 98 87 90 88 92 78 90 95 92 85 88 99 97 93 83 88 75 76 77 70 69 77 77 76 77 75 69 58 54 60 55 45 38 36 30 28 30 28 29
78 83 90 77 90 89 84 84 88 94 94 96 92 97 82 79 90 93 92 96 96 94 87 87 85 77 76 78 68 82 59 61 60 64 72 59 61 48 44 32 32 40 41 40 39
68 82 89 95 93 83 91 83 85 94 95 98 95 99 80 72 84 88 84 74 84 92 94 96 93 95 84 81 65 75 57 61 63 69 63 63 63 41 35 32 33 37 40 38 40
62 69 68 81 93 85 83 85 90 82 97 99 94 86 85 77 88 91 86 80 86 83 73 82 84 87 92 86 77 56 58 65 70 69 76 60 61 39 33 34 34 36 38 42 42
70 73 69 78 79 87 92 91 87 94 96 98 93 77 81 84 84 75 89 91 94 99 100 94 67 58 84 87 63 57 70 88 68 80 74 70 70 45 39 40 38 35 36 44 46
56 58 76 81 94 97 96 91 88 99 98 83 80 78 93 87 84 73 73 83 70 80 97 91 96 66 55 64 78 66 68 79 61 57 58 70 73 40 42 37 33 34 36 45 49
48 52 77 77 84 92 90 91 96 96 79 76 68 78 87 86 84 83 81 78 67 64 80 84 90 61 61 59 59 70 81 58 83 82 78 56 51 34 36 39 38 35 38 40 48
53 53 72 69 78 74 91 98 99 89 62 66 84 76 92 91 88 84 78 65 69 59 58 68 96 69 63 57 61 61 64 78 83 72 60 49 55 38 38 34 39 43 43 42 51
59 56 67 64 70 78 99 100 85 77 70 62 78 76 85 89 85 91 77 59 58 63 57 62 74 82 64 70 76 73 80 77 71 75 66 56 36 43 40 37 41 43 40 45 56
59 82 67 62 78 92 100 96 86 81 71 57 55 65 74 73 76 73 75 64 54 56 64 61 79 95 79 67 63 65 72 65 72 74 88 82 53 41 44 45 43 42 42 51 71
68 59 64 62 90 95 83 79 85 79 73 58 55 53 61 67 72 64 64 57 54 53 64 61 77 93 82 71 70 75 75 67 68 77 97 75 44 44 47 43 40 45 48 68 81
69 84 65 72 86 81 85 83 79 69 67 56 57 57 57 62 66 70 65 67 57 52 52 53 71 73 72 67 81 91 82 71 73 88 78 75 60 46 43 48 47 48 54 80 78
79 96 97 98 88 89 88 85 80 79 71 55 56 56 59 70 72 73 68 67 62 63 64 62 86 86 75 67 80 77 77 82 84 75 79 61 71 53 50 51 50 54 77 81 83
93 91 85 85 96 87 75 78 78 75 78 63 60 59 59 67 62 77 70 68 68 63 67 69 95 89 92 77 85 92 82 79 78 71 72 70 71 47 47 50 63 76 84 86 86
96 95 94 82 92 86 79 79 73 76 69 74 63 71 73 74 74 65 54 55 59 73 77 74 94 92 87 76 85 94 88 80 76 76 68 82 61 52 54 62 66 80 87 88 87

GFSSW_850_rhum_036.txt.gz
RH
95 93 93 84 80 87 87 82 82 81 85 83 71 52 59 80 84 96 100 95 61 60 73 69 92 98 76 64 60 53 44 44 41 40 31 28 25 28 28 21 23 24 28 42 37
90 77 86 92 74 76 82 82 80 82 82 84 77 93 69 51 72 83 96 95 66 72 98 76 90 93 67 57 55 40 44 36 29 30 30 27 24 26 28 28 25 26 35 31 32
89 78 85 85 76 81 77 71 78 82 82 82 84 86 91 60 71 74 78 84 72 75 99 86 94 85 66 62 52 40 36 30 37 33 30 28 28 32 26 28 23 24 36 58 44
83 82 88 86 81 69 79 67 70 83 75 71 76 90 86 87 59 67 72 96 93 92 92 95 94 87 62 58 50 46 35 32 35 43 39 32 30 30 29 21 30 36 35 39 76
90 90 88 90 85 75 69 64 68 83 80 65 76 82 91 85 64 88 96 100 97 93 88 84 77 80 63 55 56 46 45 41 39 48 45 42 36 30 34 34 37 38 34 36 38
96 98 86 82 85 79 71 77 80 75 65 66 85 82 91 81 60 72 94 95 91 89 86 87 66 70 61 58 51 47 47 41 43 43 46 44 40 42 34 35 34 35 33 31 34
90 90 87 88 86 80 72 78 80 76 76 78 79 88 92 70 92 74 88 88 98 84 87 88 68 65 60 60 54 53 50 46 46 42 39 43 43 44 35 31 31 28 27 31 33
89 89 82 90 84 80 80 70 78 63 74 74 82 95 79 52 86 93 84 82 96 88 89 88 77 67 57 56 55 51 47 61 37 41 43 40 34 32 36 34 31 30 30 32 32
99 91 87 91 83 82 82 74 68 65 83 80 84 94 66 72 82 78 88 92 96 95 99 83 72 58 60 51 58 49 44 43 44 44 36 39 32 28 32 38 33 31 30 32 36
98 89 83 90 77 76 74 72 69 67 87 89 96 88 74 76 87 80 90 96 94 99 87 85 74 64 49 46 46 49 42 45 38 44 49 48 37 36 39 40 36 32 29 28 31
80 84 80 92 78 79 80 72 84 82 93 60 60 91 82 80 80 83 83 96 97 88 84 83 75 77 55 43 36 42 43 44 42 44 45 41 42 37 36 34 33 31 27 27 29
88 78 91 82 81 81 80 74 76 88 67 75 86 95 94 94 78 87 88 97 81 83 71 88 86 49 47 50 48 45 45 46 53 46 44 42 44 35 32 33 35 34 33 31 31
82 73 73 74 74 81 82 84 82 87 77 87 98 97 96 77 73 96 87 95 75 85 81 82 66 49 54 57 54 53 51 58 49 49 44 44 38 37 34 31 28 32 30 30 31
73 71 78 78 77 79 83 82 84 93 99 94 95 96 91 78 92 90 95 93 91 90 75 81 70 52 55 56 46 62 56 55 54 53 46 45 31 35 31 28 33 34 36 38 41
69 65 46 51 77 93 91 75 80 94 87 98 95 93 88 87 92 92 86 96 90 92 84 97 84 67 60 57 48 51 50 51 52 55 55 48 46 31 25 30 33 32 38 41 45
54 64 68 53 67 78 83 88 90 95 95 99 93 84 75 91 90 94 94 89 91 87 82 94 88 88 81 77 54 47 50 52 52 55 77 49 47 28 26 25 30 31 36 44 45
49 54 70 70 67 70 81 94 98 91 97 97 94 78 81 88 83 78 84 88 94 100 100 98 94 93 85 87 66 55 60 85 81 89 64 52 51 28 26 27 26 28 33 43 48
54 54 73 70 74 82 88 84 87 87 79 74 67 62 86 83 87 84 91 87 65 71 94 86 96 90 88 91 95 71 62 64 62 50 41 53 44 28 29 30 30 31 34 41 46
51 58 76 73 71 76 90 95 98 96 65 62 57 64 71 69 64 65 66 65 62 58 70 74 90 56 59 60 73 86 82 46 60 57 56 33 34 28 30 30 30 31 38 42 48
53 53 68 71 71 70 87 96 90 80 64 54 64 62 66 71 64 59 60 57 59 52 49 60 92 63 57 54 52 55 48 68 74 71 53 31 29 25 34 33 31 32 38 44 52
55 57 64 65 70 79 99 100 79 74 67 53 61 63 67 67 68 64 60 57 51 52 46 50 59 78 60 65 59 60 62 57 51 54 43 29 23 23 27 27 31 32 40 47 62
52 83 64 60 80 83 92 85 82 70 69 50 50 57 62 63 66 63 54 54 51 46 51 52 62 83 73 59 55 53 53 43 50 68 62 55 28 28 27 29 33 37 43 52 72
67 58 59 59 73 72 70 68 73 62 60 53 50 50 53 57 63 56 59 53 54 47 50 49 65 89 86 67 62 66 56 51 51 58 77 45 29 33 33 32 34 42 49 65 74
74 81 68 73 86 66 68 68 66 70 62 53 50 52 49 52 51 57 55 60 56 51 54 46 57 68 52 69 64 83 66 57 55 72 54 44 36 33 32 33 40 47 59 68 73
79 93 93 85 74 73 76 74 70 67 67 54 52 49 47 55 56 57 57 59 56 63 55 50 89 81 60 59 70 68 65 66 80 56 62 41 44 31 32 36 40 52 66 73 74
97 89 83 81 89 72 70 70 72 69 69 56 54 50 49 52 44 57 55 55 54 60 54 57 92 86 83 68 70 79 65 62 63 58 55 49 50 34 34 39 43 54 72 76 76
88 89 95 74 77 71 67 70 69 70 65 70 48 56 60 56 59 54 49 47 48 54 59 61 90 84 76 65 67 73 66 62 59 58 54 63 44 36 42 42 49 63 79 78 83

GFSSW_850_rhum_039.txt.gz
RH
83 96 84 77 78 95 91 75 79 74 87 92 93 91 64 61 69 89 98 97 90 57 44 66 91 89 81 63 49 46 57 59 42 31 26 24 24 23 21 18 18 16 22 48 65
90 84 80 78 79 80 87 73 80 82 80 91 93 96 93 63 74 80 77 98 86 70 93 60 85 87 71 58 53 47 50 43 28 24 27 25 26 20 24 19 16 20 30 56 70
86 91 78 78 79 83 80 75 82 88 83 94 96 97 91 62 72 50 64 84 92 74 98 60 73 79 60 48 47 39 40 31 26 28 28 26 25 20 24 20 18 18 22 47 66
95 95 90 79 78 82 82 74 79 73 76 84 76 72 86 82 47 43 69 68 81 93 92 72 62 76 54 49 45 41 32 26 24 32 33 28 24 23 24 19 20 23 32 34 55
90 86 86 83 80 80 85 69 70 73 81 80 72 74 74 75 56 78 64 74 92 89 78 76 55 62 56 43 38 43 29 29 31 39 36 28 24 22 22 24 30 33 35 32 32
95 91 80 81 80 80 81 72 75 77 78 67 76 89 82 64 51 63 98 98 95 88 74 60 51 59 50 44 39 41 35 35 32 40 39 34 27 27 26 25 28 29 29 28 29
100 99 85 76 81 80 80 73 72 76 77 61 64 69 77 63 59 74 71 97 100 95 63 57 51 55 52 55 43 43 39 38 33 36 35 39 34 33 29 27 28 25 25 26 25
98 92 86 81 86 81 78 79 66 79 59 65 62 88 72 60 59 81 72 69 87 94 61 59 57 50 51 50 50 49 43 50 38 38 36 39 37 26 30 29 28 23 23 21 22
99 84 78 82 86 70 74 73 66 59 62 73 83 87 54 70 61 64 94 81 93 88 63 80 77 52 50 50 57 47 47 45 38 35 36 41 35 24 27 27 25 24 22 22 22
75 75 76 84 69 65 59 62 64 59 78 96 86 77 60 59 71 81 85 97 98 79 86 96 81 57 51 44 52 43 46 32 34 41 37 39 38 24 27 26 26 23 22 21 22
78 89 90 70 67 71 78 85 86 81 76 58 65 63 79 63 84 94 98 90 85 89 81 92 80 73 49 34 27 24 35 28 26 36 41 39 31 26 26 28 27 24 23 22 21
71 69 73 78 80 74 88 78 98 88 61 64 78 80 93 93 89 87 84 98 71 87 50 93 92 45 35 31 30 35 32 34 33 34 40 28 33 28 27 26 25 23 24 24 24
70 58 70 71 78 93 94 82 70 90 97 87 97 100 90 87 92 97 90 90 63 73 65 75 74 44 44 41 42 35 37 35 40 44 38 40 37 33 25 30 29 28 27 25 25
71 65 42 52 88 89 71 69 78 82 100 100 96 90 82 90 92 99 91 93 83 68 61 76 58 49 54 51 36 40 34 41 50 47 36 36 22 30 31 27 27 28 28 30 34
61 70 56 44 42 85 60 64 74 99 93 98 95 86 82 73 87 92 94 93 89 92 90 94 80 59 52 45 34 45 44 46 49 50 50 44 42 28 27 30 30 28 33 36 39
52 59 78 75 59 59 68 78 95 97 95 98 82 76 73 70 84 94 95 87 97 84 80 89 87 71 52 55 39 43 47 49 49 51 74 44 36 28 26 24 28 30 32 36 38
51 53 67 83 89 81 85 100 99 88 89 91 83 79 80 84 88 86 89 94 98 100 100 96 97 89 78 63 49 46 52 76 77 88 60 41 48 26 20 19 23 26 29 36 41
50 54 66 81 88 85 98 90 90 86 68 64 59 70 90 85 87 83 87 95 86 81 100 100 98 97 86 75 70 57 52 69 63 59 49 44 45 27 20 23 24 25 31 36 40
51 54 65 78 82 80 98 94 98 97 58 54 48 63 67 60 79 73 59 79 74 60 89 88 98 93 91 81 65 87 85 43 49 38 44 34 28 29 25 26 25 27 34 38 42
54 80 77 66 72 92 76 89 88 63 52 46 53 51 55 54 56 55 50 50 55 45 43 53 90 67 76 82 84 88 51 73 70 76 45 33 24 22 31 28 27 30 34 40 45
59 71 68 60 71 80 94 98 62 60 55 47 49 50 46 52 49 48 49 51 44 44 38 43 54 74 57 70 75 82 94 62 50 50 54 29 24 19 26 29 31 30 37 42 52
77 86 60 60 73 57 70 63 69 54 54 43 43 47 44 46 49 47 45 46 44 40 43 46 57 77 69 53 48 48 47 46 54 65 48 51 35 21 24 26 29 34 40 46 62
84 69 58 59 68 62 56 54 57 52 48 45 43 44 45 48 54 49 47 47 47 42 43 41 64 85 78 60 54 60 51 47 42 53 71 50 34 23 26 28 31 39 45 54 63
83 83 64 67 65 50 50 50 55 63 52 48 43 42 43 46 41 51 52 52 49 45 49 40 49 67 56 72 54 72 56 51 55 73 50 39 33 31 30 28 36 42 51 56 63
80 75 83 78 58 58 60 57 55 56 57 49 48 44 40 46 44 45 46 53 50 59 47 46 90 78 50 49 61 64 57 55 72 59 57 36 29 29 26 30 36 40 50 60 64
93 96 86 63 74 61 65 58 59 56 58 50 51 43 40 42 38 44 44 45 47 50 48 50 87 79 85 56 58 68 56 51 56 53 49 41 41 27 27 30 36 43 56 64 67
77 92 98 62 61 59 53 58 60 62 57 57 44 43 48 44 48 42 38 37 39 47 50 54 85 89 71 56 60 70 59 53 50 47 46 52 39 32 38 37 42 50 64 68 72

GFSSW_850_rhum_042.txt.gz
RH
97 97 86 80 84 96 84 87 93 84 76 82 78 90 92 64 71 87 93 97 82 76 49 68 91 83 87 75 60 66 83 86 69 54 38 20 23 21 20 19 17 17 34 60 76
99 100 95 97 93 82 89 82 85 78 82 82 78 91 99 90 74 81 71 91 90 93 72 66 92 86 83 75 62 60 83 75 64 44 38 25 23 23 22 22 19 18 31 55 57
98 90 85 87 83 78 80 88 76 80 85 87 92 87 97 88 82 64 58 75 84 93 76 62 79 88 78 62 59 51 61 51 46 38 37 29 26 25 24 28 19 17 27 53 65
91 93 84 75 83 81 79 85 73 77 81 75 89 96 98 95 68 70 29 48 87 95 93 64 56 72 66 64 52 50 46 41 35 34 35 32 26 24 22 23 20 22 26 40 58
94 93 86 80 77 84 80 78 70 66 78 83 74 84 80 86 69 62 64 44 71 89 87 72 56 62 62 53 43 51 38 32 32 37 36 32 30 26 24 24 26 28 29 31 34
99 98 86 78 79 81 76 77 75 72 75 66 74 73 84 68 49 55 82 97 69 94 78 74 52 57 52 43 45 39 40 35 29 38 38 33 28 25 24 25 27 30 29 30 30
100 96 85 76 82 84 77 73 79 79 69 69 70 81 86 65 55 73 67 94 98 91 72 66 50 48 54 52 46 40 45 40 35 39 38 37 40 35 25 25 26 27 28 27 26
89 70 68 73 79 80 73 74 62 69 63 59 70 94 74 57 51 60 68 87 95 83 73 61 52 48 49 53 48 46 46 58 40 38 36 41 48 33 27 28 29 27 26 24 24
90 74 78 72 62 51 62 64 54 53 54 57 72 82 61 66 54 54 63 79 91 85 65 64 57 52 52 63 67 59 63 57 47 36 39 44 44 31 26 30 30 28 27 23 22
66 72 65 66 69 67 66 57 57 68 55 88 79 76 64 50 59 54 68 69 99 81 86 63 64 70 64 68 84 70 64 45 47 43 43 48 49 34 26 26 25 24 23 21 22
72 76 70 71 69 72 79 90 86 79 81 74 81 66 62 79 66 76 79 80 98 99 84 77 86 82 68 51 47 41 45 45 38 38 45 47 44 38 30 26 28 27 25 22 22
96 52 74 71 77 77 87 80 70 77 76 62 69 68 73 90 82 84 92 99 94 89 73 92 89 57 47 41 39 34 38 42 31 40 42 40 41 33 29 28 28 28 25 23 21
65 67 46 61 82 88 61 82 81 77 98 84 84 98 91 91 86 91 94 96 79 72 75 74 65 47 44 46 42 36 42 38 41 42 40 43 46 35 30 27 27 28 29 29 27
50 59 62 53 89 84 84 70 69 76 100 93 88 93 92 94 94 96 88 92 80 76 60 70 61 62 55 48 35 44 32 33 44 56 61 41 40 34 33 35 29 28 27 26 28
51 50 60 67 72 88 76 71 85 96 97 98 91 83 81 96 94 99 83 85 74 70 80 91 81 84 75 54 39 42 45 49 51 59 60 50 57 33 37 36 34 31 30 33 35
40 51 51 92 94 92 74 82 99 99 95 97 89 88 96 83 81 97 97 88 88 83 78 90 88 83 72 58 44 44 52 52 50 56 92 58 49 44 41 33 34 33 34 36 39
29 50 53 69 92 93 98 98 100 93 86 82 91 74 73 83 84 84 91 95 97 99 100 98 97 86 85 74 55 50 61 92 94 95 87 46 53 40 26 27 31 35 34 36 41
31 47 58 70 98 94 98 100 89 86 68 61 67 69 80 74 88 85 95 98 90 85 100 100 99 96 88 77 85 62 58 84 72 90 74 45 66 40 25 25 27 28 32 35 39
33 59 54 75 82 86 99 87 95 96 52 53 58 67 70 72 74 90 95 96 89 82 97 100 99 92 90 78 72 72 88 46 68 39 78 58 37 30 28 29 26 28 31 36 41
26 74 76 67 70 91 99 88 85 58 48 44 55 53 54 56 61 67 77 76 63 61 55 63 98 96 94 87 79 83 61 78 91 88 63 46 39 40 37 34 29 31 35 39 43
54 71 78 60 76 98 92 94 56 53 52 50 47 46 46 51 49 48 52 50 42 44 41 47 66 97 97 98 98 92 96 78 61 73 87 58 39 26 33 31 31 34 35 41 46
83 86 72 58 87 73 87 61 55 48 50 41 42 47 43 44 46 47 49 50 41 38 49 48 68 91 76 55 55 70 74 72 90 77 67 70 54 22 30 33 32 34 39 43 55
88 68 67 61 91 58 53 53 52 51 47 44 42 43 44 44 51 47 52 46 46 43 48 47 77 87 81 67 57 67 55 72 68 71 82 78 53 29 33 32 32 37 43 51 60
86 85 74 73 58 59 55 52 55 59 52 44 43 42 44 47 40 50 55 50 48 47 45 42 55 76 85 73 71 79 62 57 66 92 66 61 44 35 35 36 38 43 51 56 62
73 79 78 90 70 69 58 58 52 59 56 48 49 46 44 47 43 48 53 58 51 53 46 55 90 74 58 52 70 69 64 61 76 69 78 47 42 36 36 36 40 40 52 59 63
84 87 83 74 63 64 65 54 58 56 55 52 52 43 40 44 40 44 46 50 52 55 52 56 93 84 84 55 56 72 64 58 60 61 61 56 50 32 28 28 36 42 54 61 65
43 75 90 66 58 62 68 66 64 61 57 54 53 43 46 57 52 47 38 36 42 56 58 63 91 93 83 57 61 83 68 62 57 55 56 67 48 36 39 41 42 45 58 65 68

GFSSW_850_rhum_045.txt.gz
RH
95 92 85 84 83 82 76 79 81 83 82 67 66 72 77 97 78 79 61 81 88 69 71 66 55 82 90 84 80 86 92 86 72 66 55 40 45 21 20 20 24 45 50 59 74
98 98 100 82 84 84 81 75 79 83 75 73 76 76 95 93 94 68 51 63 81 75 62 69 59 93 94 81 70 90 86 76 53 50 56 61 41 28 22 22 31 51 61 61 58
100 99 96 94 80 80 85 75 79 77 76 84 76 84 82 90 100 76 51 43 86 83 74 74 56 96 76 77 75 71 73 59 50 46 59 68 47 39 24 26 23 53 33 39 42
100 95 98 87 85 76 84 76 80 76 76 80 72 83 94 83 94 60 82 40 77 86 86 77 70 92 84 76 66 60 54 54 52 54 82 73 51 40 26 26 24 22 31 41 40
97 97 89 86 72 75 81 77 69 71 73 76 78 91 98 98 92 54 67 64 81 88 82 78 84 86 77 72 58 62 48 48 47 49 56 66 62 38 27 27 26 39 52 53 51
98 95 64 70 72 80 74 72 70 72 73 66 72 82 84 87 63 73 69 71 78 87 84 76 60 72 66 62 58 50 52 46 39 40 38 38 39 36 26 25 25 25 29 30 33
99 93 75 74 81 79 75 71 71 74 69 61 63 82 91 60 67 72 77 94 90 80 80 71 55 63 55 57 49 45 56 48 52 43 41 36 39 42 28 27 27 27 26 26 27
80 96 73 53 42 53 69 75 63 65 63 51 59 80 90 54 56 57 69 85 98 93 76 64 57 59 53 51 49 52 52 67 50 44 40 34 50 39 28 28 27 28 28 27 26
55 66 74 69 62 58 57 61 55 54 52 60 76 81 78 62 56 47 54 65 90 83 88 79 70 54 53 72 76 60 76 66 52 42 43 44 53 37 30 30 28 28 29 28 26
94 53 62 65 71 70 65 64 74 82 69 86 80 77 68 69 61 54 54 67 93 88 100 80 68 74 70 84 87 83 68 58 59 48 45 52 54 41 32 29 31 30 29 27 26
63 64 43 53 65 57 72 76 78 77 79 68 64 72 68 61 61 58 55 71 93 90 91 85 82 77 70 70 62 59 59 53 50 42 51 52 54 43 38 29 29 26 26 25 23
56 54 40 52 56 58 63 76 94 95 86 69 67 65 65 65 86 82 65 94 94 92 86 92 87 68 63 55 58 56 60 57 41 43 49 55 55 46 40 37 28 27 26 26 25
38 56 55 47 65 57 64 61 70 90 98 90 88 86 93 85 84 89 92 89 77 91 84 76 72 58 60 63 59 54 47 47 48 46 42 45 50 44 37 32 28 27 27 28 26
10 49 53 56 80 81 86 72 74 80 98 93 87 90 92 95 86 76 90 97 90 92 69 74 70 61 60 61 53 59 37 39 55 59 67 45 69 37 36 35 35 31 29 29 28
13 41 56 67 63 91 80 65 80 97 94 90 92 84 93 95 91 97 93 89 83 84 68 94 82 82 71 66 48 48 46 55 57 64 62 54 66 52 38 45 38 33 28 28 36
15 46 57 72 88 89 91 90 95 89 96 99 95 91 93 94 90 95 90 80 79 80 83 90 83 86 87 71 58 50 56 59 62 71 91 66 65 54 50 38 37 35 36 37 40
14 49 57 66 89 98 92 95 94 92 78 91 82 82 79 87 87 80 87 92 93 98 99 94 96 85 84 80 68 55 62 95 94 96 90 54 67 52 36 34 35 43 37 36 38
15 56 58 71 80 99 99 96 88 82 76 71 72 74 82 75 85 87 95 97 86 90 96 94 100 96 90 85 89 76 61 87 87 98 84 50 74 50 30 28 32 33 34 38 42
18 73 72 75 74 91 98 91 89 93 56 67 68 76 77 77 83 92 94 89 86 84 90 98 99 91 87 84 80 92 96 60 70 56 83 65 48 34 32 38 35 37 39 39 40
30 78 83 84 72 95 98 89 90 65 56 51 67 57 62 72 83 95 96 81 86 72 69 81 99 96 91 93 82 78 66 81 94 100 70 64 49 50 41 38 37 40 36 39 46
69 80 85 79 85 100 93 91 71 55 54 54 57 51 50 54 56 68 70 76 67 70 59 62 78 99 96 99 97 87 95 79 73 85 89 63 50 32 36 35 35 39 36 42 46
85 93 78 73 98 86 95 76 56 54 51 49 46 50 54 47 50 52 64 55 47 50 61 51 78 99 87 76 75 75 82 74 91 80 76 82 57 29 36 34 30 34 39 44 50
84 75 81 83 94 79 58 62 59 55 51 50 46 45 46 49 54 57 60 48 46 52 53 55 80 97 98 72 77 98 83 77 76 76 81 77 56 36 38 38 33 41 42 48 54
88 95 75 85 72 68 66 59 65 58 57 46 47 44 46 49 41 58 64 52 48 51 47 46 72 76 83 73 77 85 77 73 84 96 74 73 44 42 41 40 38 39 46 57 60
76 84 85 95 80 78 71 62 58 68 59 51 51 49 52 52 46 56 62 61 53 50 49 60 80 68 61 65 72 71 71 69 96 70 81 59 47 40 38 40 38 44 56 59 62
86 88 84 84 69 76 71 76 74 67 61 60 56 52 48 59 54 51 60 60 61 59 55 66 92 83 80 61 67 73 70 68 67 62 66 65 65 38 32 33 46 52 57 60 63
58 70 92 79 66 73 72 72 70 68 61 61 60 61 49 64 58 50 43 42 50 65 67 74 88 92 88 64 66 79 73 66 63 61 59 71 51 40 39 39 47 53 55 58 63

GFSSW_850_rhum_048.txt.gz
RH
98 100 100 98 94 78 76 85 85 70 76 76 67 63 68 70 86 98 89 58 76 77 72 67 67 55 99 85 74 58 88 81 71 70 63 57 62 41 29 25 28 46 61 64 73
94 99 95 99 89 81 66 76 82 74 81 76 66 70 75 86 94 92 81 68 70 87 84 68 65 56 91 90 79 79 80 70 53 48 58 68 66 56 44 35 63 66 67 72 75
98 98 99 100 83 76 72 83 73 76 73 77 76 70 80 92 99 91 68 63 50 93 86 76 64 70 77 88 86 88 73 54 53 50 66 85 72 59 48 34 45 58 72 75 68
97 97 99 84 77 79 78 76 77 72 74 78 73 67 78 89 96 63 73 76 52 96 97 75 70 79 71 90 77 80 61 55 60 58 84 74 69 70 55 36 26 23 29 47 51
77 100 94 87 77 78 71 71 67 67 70 80 78 81 96 98 80 64 78 70 88 82 88 79 84 84 87 75 72 63 57 55 66 73 76 73 84 75 73 43 40 28 50 46 46
78 61 58 56 83 82 73 67 69 71 72 63 71 81 92 97 74 83 79 62 72 96 81 75 77 80 68 68 74 63 52 57 66 69 70 78 80 81 65 42 44 55 63 56 59
54 56 62 53 47 76 73 68 68 73 69 65 63 85 97 90 83 75 88 85 79 89 83 75 68 72 61 67 54 56 66 59 53 50 46 52 72 90 56 46 34 38 31 32 33
84 47 60 65 53 56 68 67 53 60 54 50 64 78 75 67 74 60 69 87 97 99 86 75 62 67 62 56 57 55 58 72 55 48 41 39 56 56 51 45 30 30 29 28 26
50 41 43 53 62 65 57 52 49 48 49 58 76 83 73 59 66 54 64 67 94 98 92 79 73 65 61 76 74 63 83 68 60 47 46 42 50 37 36 37 33 29 29 28 27
50 40 42 43 60 60 69 72 77 70 63 78 79 82 66 66 66 61 54 61 87 91 99 94 77 82 77 82 82 78 77 58 63 54 50 50 55 43 36 35 32 29 30 29 29
40 53 42 47 54 57 67 73 79 81 82 76 65 65 62 52 73 65 59 64 90 96 97 94 87 88 74 66 62 64 60 61 53 48 50 52 54 47 38 39 35 31 31 29 28
14 23 60 44 48 61 54 45 75 70 79 71 74 70 67 69 79 74 63 79 95 94 89 97 88 70 65 63 61 61 65 62 46 44 50 55 53 49 44 45 38 32 31 28 26
45 15 58 58 62 61 62 60 68 87 95 84 86 84 84 84 84 87 88 79 92 95 95 84 72 64 64 66 69 63 66 61 51 50 45 48 53 50 46 43 39 36 29 26 26
42 20 59 67 78 73 78 68 74 75 97 92 90 88 89 85 92 82 82 97 92 94 88 79 69 69 70 71 58 68 46 43 55 63 77 44 77 44 42 42 43 36 32 29 28
40 20 57 63 71 88 85 75 73 90 93 82 92 86 85 92 86 99 94 82 86 94 90 98 80 76 76 65 52 57 44 57 59 68 64 56 63 51 40 48 40 38 33 30 29
38 18 54 70 83 88 89 93 92 83 94 99 89 92 94 90 93 93 94 90 88 83 84 90 84 85 82 70 55 53 58 66 72 74 86 68 66 65 46 40 40 38 33 30 36
29 18 56 70 84 94 94 97 88 92 72 95 95 92 88 85 84 76 88 92 96 97 98 95 94 84 86 72 62 54 65 93 89 94 84 66 72 44 42 38 38 40 34 36 43
18 46 59 74 84 90 97 92 86 81 97 78 77 87 93 76 84 86 93 93 84 83 95 97 99 94 86 83 76 66 65 88 88 97 83 59 79 49 40 32 30 31 36 41 42
20 62 68 83 87 94 99 94 86 88 64 77 79 91 85 80 82 89 96 84 82 86 85 94 98 87 86 81 78 85 95 63 74 66 88 70 59 41 36 40 42 41 40 38 40
43 71 78 90 86 100 94 88 87 68 58 54 74 71 95 90 94 88 92 70 80 81 71 84 97 95 91 84 80 85 68 85 92 96 72 64 66 54 45 51 44 46 45 41 44
76 80 85 84 91 100 95 93 78 60 55 54 58 54 53 67 79 83 92 82 69 76 71 72 80 99 95 99 97 95 99 94 74 80 90 80 61 41 41 45 45 44 42 42 48
74 95 89 81 99 98 96 81 60 56 53 55 48 53 56 50 55 63 72 61 67 64 70 57 86 94 93 81 79 81 84 71 90 88 82 83 63 36 36 37 38 40 38 43 48
80 86 99 99 99 88 65 62 61 58 55 55 49 48 48 53 62 64 61 52 55 53 65 58 84 98 93 78 78 97 93 75 76 78 84 80 57 38 37 36 34 37 42 46 54
79 93 86 98 85 81 80 64 66 60 58 48 49 46 48 52 46 64 64 57 51 51 49 52 74 76 82 70 82 99 93 82 86 98 73 81 53 40 40 39 39 38 44 50 56
69 92 88 94 74 75 76 74 66 75 60 52 53 51 53 56 50 65 66 61 54 53 53 57 80 72 64 65 72 74 81 83 93 73 81 59 59 40 40 40 39 40 46 57 62
65 83 82 85 76 74 77 78 82 68 62 64 58 63 50 67 56 59 64 64 61 59 57 70 89 80 79 60 69 74 72 81 77 78 77 64 67 47 33 35 38 40 53 60 61
67 81 93 80 55 70 62 59 65 69 70 68 72 65 67 67 60 55 48 47 52 65 70 74 89 89 85 71 66 76 72 71 71 68 75 77 54 43 43 39 40 42 56 56 58

GFSSW_850_rhum_051.txt.gz
RH
96 95 98 98 93 96 82 80 73 80 82 78 80 76 85 86 78 81 100 77 58 90 85 62 70 69 89 91 82 71 81 74 62 59 54 53 65 59 48 47 52 61 64 63 78
97 97 98 99 85 78 76 72 75 84 80 78 69 64 69 76 76 83 89 80 56 86 95 68 69 79 87 92 84 89 86 68 51 44 44 50 69 66 59 53 56 71 69 75 77
96 99 100 98 76 77 72 76 75 79 72 72 70 69 74 86 97 89 67 70 69 71 99 89 57 69 80 82 89 85 83 56 51 48 49 72 67 68 64 58 44 49 80 76 76
94 97 91 94 74 72 69 67 68 69 71 74 74 66 72 88 90 84 72 66 65 66 100 94 79 69 79 81 84 92 65 54 51 53 59 69 63 72 68 62 54 52 73 69 62
80 99 92 40 62 74 65 68 65 63 67 74 68 76 90 97 82 77 83 99 98 93 98 92 78 73 70 59 77 69 65 56 59 67 69 68 72 81 79 57 49 46 52 58 58
99 86 98 58 41 68 70 67 69 66 55 60 69 77 92 94 77 69 76 78 77 89 84 97 78 66 66 76 76 68 62 66 72 76 70 80 82 84 59 57 48 49 56 62 58
99 97 85 61 52 54 67 70 62 70 67 74 66 82 93 82 89 81 78 61 62 76 96 93 65 73 71 78 72 67 75 82 81 78 80 67 83 91 56 53 53 47 64 58 57
100 100 89 51 61 52 59 63 54 61 65 56 61 74 76 82 89 89 72 90 76 76 75 92 72 72 68 63 62 63 78 82 77 70 62 84 87 78 68 66 56 52 39 36 35
98 91 92 77 56 60 51 51 51 53 53 67 77 84 73 81 90 74 83 84 97 94 92 84 68 70 69 79 81 68 91 77 68 59 58 67 56 57 60 52 53 54 43 31 28
88 66 66 51 71 63 60 66 68 67 58 75 78 84 68 61 68 74 68 79 92 93 89 82 78 85 83 83 83 81 83 70 68 60 55 66 49 44 55 60 52 45 46 33 30
90 82 23 46 58 64 57 76 77 76 74 80 72 69 60 54 74 65 61 76 99 93 93 92 95 85 81 74 58 69 67 71 55 53 54 56 52 47 41 43 43 40 36 33 30
91 69 37 58 56 60 57 51 60 67 75 68 77 80 78 71 84 77 69 92 93 97 95 95 95 74 68 61 58 64 69 65 50 50 55 57 58 49 43 42 37 34 33 32 31
96 89 38 60 51 60 64 61 67 87 92 82 88 87 78 88 87 89 86 86 93 98 96 92 72 68 69 70 67 66 71 65 60 52 48 53 59 54 47 45 43 38 35 33 33
91 69 26 62 71 72 74 66 71 82 97 90 88 86 92 89 91 82 91 85 90 96 94 86 68 73 78 74 66 72 51 54 58 64 78 50 84 55 47 48 46 39 38 35 33
60 30 22 73 74 80 84 81 72 87 92 78 92 92 88 92 83 81 84 89 94 92 94 97 75 77 79 73 54 59 49 50 59 70 62 57 70 57 39 46 45 39 37 33 34
32 22 28 74 89 86 87 88 91 84 94 97 91 91 93 94 91 94 92 98 86 87 88 93 87 76 76 66 52 55 61 66 75 73 91 67 66 61 48 38 32 34 30 30 32
22 23 54 76 89 92 91 96 88 89 69 91 93 91 92 88 83 85 92 94 99 99 100 89 94 86 81 72 59 54 64 94 93 94 92 68 68 46 42 40 37 35 29 30 34
20 63 63 77 88 93 94 84 92 81 87 70 84 84 88 76 85 84 90 97 86 79 93 97 99 90 88 78 75 66 61 88 86 95 82 69 83 52 42 36 33 31 30 33 37
29 77 76 86 90 97 95 96 81 86 78 80 81 84 90 83 80 90 86 92 82 81 86 97 98 85 87 82 76 85 90 60 79 72 90 74 62 44 40 41 37 38 38 37 48
63 87 94 95 95 99 94 90 88 71 61 62 84 84 96 90 84 88 94 77 81 81 69 79 98 83 89 81 81 79 72 83 92 93 81 66 68 55 41 43 48 53 50 49 51
83 88 92 100 99 100 95 92 79 63 58 57 60 63 74 90 86 94 85 77 70 83 69 72 80 95 91 94 88 94 98 89 77 84 82 88 66 50 40 41 52 51 47 46 46
80 97 97 100 99 95 98 84 62 57 55 57 50 54 56 62 75 74 91 73 69 72 80 68 82 91 86 79 75 83 86 87 90 93 89 86 74 35 42 41 45 46 44 40 42
80 91 98 99 98 93 76 63 63 62 58 57 53 51 49 54 71 66 64 59 69 66 69 67 87 97 97 90 83 98 88 83 74 81 87 89 67 37 38 38 41 43 43 44 45
80 91 87 98 92 81 86 78 64 62 60 51 54 48 50 53 59 68 67 58 54 53 56 52 77 76 84 71 86 97 89 92 95 99 81 75 61 43 35 37 38 41 41 42 49
70 94 89 93 80 80 76 82 74 73 61 58 58 62 57 57 57 72 68 61 56 54 62 59 82 78 69 64 79 86 89 81 98 93 87 64 66 51 38 39 36 37 41 50 55
50 65 84 77 72 76 74 91 83 79 71 68 67 74 54 68 63 66 68 65 60 60 62 70 89 80 82 61 77 78 77 86 79 79 82 75 76 48 39 33 36 32 40 54 55
62 77 93 66 60 71 56 62 64 65 73 70 79 76 72 71 70 62 53 51 53 66 72 73 89 88 83 78 66 77 70 72 79 79 78 88 65 49 50 45 39 36 46 45 47

GFSSW_850_rhum_054.txt.gz
RH
98 96 99 99 97 87 70 65 65 69 76 85 91 85 80 70 62 74 88 98 72 86 83 73 85 83 94 80 81 69 90 74 68 60 61 62 59 58 52 53 62 80 97 86 74
99 95 92 96 99 79 64 70 75 77 83 80 81 74 69 65 66 60 63 83 77 75 100 91 87 78 87 89 81 86 83 77 52 44 44 66 60 62 55 57 44 48 77 100 91
98 99 98 87 100 80 65 62 66 69 69 70 72 73 65 78 91 67 56 63 87 92 95 98 78 75 81 88 88 90 83 62 51 45 48 69 65 68 67 63 58 68 54 74 100
98 96 98 96 65 96 63 61 61 62 60 73 73 70 70 87 91 94 90 87 81 80 86 99 91 83 79 92 84 89 75 63 54 47 53 68 64 62 68 58 57 59 54 44 99
93 94 100 99 82 71 65 59 63 69 61 60 62 82 84 94 87 86 85 89 91 85 81 100 94 78 86 81 84 82 72 64 60 57 57 63 69 71 60 43 55 58 48 53 75
95 98 99 98 92 52 65 60 66 73 68 66 68 77 87 91 76 75 79 77 92 97 79 99 89 69 69 68 74 68 66 62 67 69 68 68 75 74 51 50 57 56 46 52 72
97 98 98 100 59 55 59 62 55 59 64 59 65 80 87 71 83 83 84 71 85 94 84 90 92 72 69 80 60 70 68 86 87 80 84 68 80 90 51 58 63 61 51 49 69
99 97 98 97 81 62 54 55 56 53 52 54 67 84 84 71 97 86 79 73 67 69 68 83 88 71 72 69 75 84 81 88 86 82 74 61 79 60 61 73 72 64 51 48 50
98 98 91 82 92 73 59 52 58 67 60 57 84 94 82 83 81 78 81 74 76 71 62 89 98 71 70 82 89 78 94 86 94 81 89 69 76 60 68 73 76 57 51 42 42
98 100 100 54 56 93 54 58 68 71 59 68 82 97 67 64 71 73 74 75 92 94 89 98 91 78 87 85 90 89 89 80 82 85 85 79 56 59 71 63 51 51 42 42 42
99 99 98 95 65 64 58 57 66 74 71 66 73 74 62 60 78 74 66 99 86 84 92 99 94 90 84 75 62 76 70 78 61 60 69 88 73 50 76 70 54 42 51 42 40
98 92 99 67 90 70 64 52 62 75 81 66 67 84 86 74 85 73 77 87 88 93 93 97 94 71 74 64 63 69 74 73 54 57 68 64 70 52 50 64 59 41 38 40 39
99 97 96 38 75 65 66 64 66 73 90 80 86 89 84 91 86 84 77 81 89 96 97 95 77 68 72 71 71 68 75 68 68 60 51 62 65 58 47 45 44 44 45 41 39
99 98 64 54 81 74 72 72 71 67 92 85 91 87 90 85 88 88 82 77 91 97 96 88 69 72 79 75 66 74 59 57 66 69 86 54 91 62 52 49 49 45 40 38 34
96 44 31 61 89 84 87 82 79 72 91 80 90 88 86 87 82 81 82 81 89 96 97 96 78 83 80 69 57 62 54 55 62 73 65 60 76 65 48 59 45 39 40 37 33
32 25 25 71 88 88 86 83 86 81 90 97 87 88 92 93 94 90 92 86 79 92 93 92 83 77 75 63 54 60 62 67 73 74 92 72 76 68 53 43 37 34 36 33 30
30 33 53 76 91 88 86 93 87 88 69 89 87 87 89 87 86 87 93 96 100 100 100 93 92 87 75 74 58 55 68 97 94 96 92 70 77 53 42 37 34 31 26 25 27
32 66 72 78 82 91 98 84 92 81 81 75 84 87 89 81 88 92 92 100 89 93 98 99 99 92 87 73 75 63 63 88 86 97 82 70 85 62 41 37 35 31 28 30 29
60 71 83 84 86 98 97 96 83 81 74 87 84 89 88 82 83 83 90 96 83 79 85 95 99 87 87 81 72 80 77 56 80 76 90 76 66 45 40 39 38 35 33 32 33
84 91 97 92 98 100 98 91 88 69 64 69 94 88 100 88 86 82 89 78 80 80 67 77 97 83 87 81 82 73 70 81 91 89 88 72 69 58 41 40 38 41 43 39 41
88 93 97 100 100 100 98 92 79 66 62 58 63 68 89 98 77 86 84 77 71 85 68 75 73 98 85 93 93 90 96 85 77 82 86 83 69 50 43 37 40 42 42 44 51
84 97 99 100 100 97 98 87 66 59 57 57 51 55 60 84 90 96 86 79 69 75 73 70 82 92 88 81 78 79 86 81 92 87 92 88 65 41 40 44 41 44 47 48 54
79 99 97 98 97 91 82 69 65 63 60 58 55 54 51 57 73 69 66 67 72 64 70 70 88 98 96 82 84 91 86 79 80 85 93 91 73 37 37 37 41 44 46 48 49
74 93 91 100 97 84 86 87 68 63 60 53 55 51 52 57 66 72 69 62 60 59 60 58 81 77 84 70 85 96 79 76 87 98 83 77 66 50 45 38 36 42 42 43 46
58 93 90 95 86 80 81 83 86 86 67 59 61 75 60 59 63 74 69 63 59 68 75 70 94 78 69 62 84 89 87 87 96 82 88 62 64 53 46 42 34 31 42 48 52
47 63 86 72 66 76 64 86 78 73 82 79 82 81 60 74 71 66 68 66 63 60 71 71 92 79 82 68 83 85 83 89 83 81 84 81 84 59 47 43 38 32 40 45 44
59 71 87 65 66 69 54 56 65 72 74 74 82 78 76 86 88 73 63 56 56 67 75 73 90 88 81 76 71 84 76 80 81 82 73 85 63 58 59 57 47 39 35 40 39

GFSSW_850_rhum_057.txt.gz
RH
98 99 99 91 98 98 98 95 67 68 73 79 80 84 86 86 79 77 68 75 89 86 83 85 86 95 80 82 78 77 86 75 70 61 59 61 55 61 51 55 57 68 81 96 94
96 94 97 98 89 99 99 94 68 64 67 70 75 76 78 70 69 65 61 65 77 89 99 96 91 92 86 78 78 76 88 71 52 48 62 67 59 61 56 48 52 53 52 69 100
90 95 99 100 98 96 98 92 64 60 60 70 72 72 69 71 72 72 75 54 78 86 93 99 86 87 84 94 97 91 76 58 54 50 48 61 64 65 59 56 59 64 54 49 90
86 89 90 99 99 90 99 89 84 59 61 69 66 68 65 78 83 94 98 95 79 89 96 98 91 82 89 94 88 83 84 63 56 52 58 59 57 62 61 52 52 51 54 49 57
97 90 88 93 96 97 92 89 83 82 58 52 54 74 76 78 75 78 76 83 91 92 96 100 94 78 81 86 90 81 76 74 67 56 56 54 68 60 59 49 52 52 46 48 53
98 97 80 88 95 92 84 73 82 66 62 78 71 76 82 89 71 62 63 76 83 90 97 92 91 74 70 83 76 78 69 70 66 62 63 61 67 71 51 50 52 49 44 48 51
99 88 97 86 89 92 64 87 80 54 58 59 54 66 72 66 73 73 66 64 80 84 91 84 87 74 68 83 69 74 74 84 82 74 75 65 72 69 62 57 54 51 45 45 48
98 98 100 99 84 91 82 73 81 50 52 53 56 76 78 66 77 88 83 61 69 94 92 68 98 78 76 71 69 79 78 86 83 83 82 60 62 54 66 57 52 53 49 44 45
97 99 100 100 94 67 89 63 71 66 67 54 66 82 82 70 84 79 84 69 73 80 84 78 98 80 77 82 87 85 90 84 95 81 79 73 71 54 54 56 48 44 48 48 47
98 98 97 100 98 66 73 55 66 73 68 68 79 91 73 64 87 81 81 67 77 79 96 86 98 84 89 80 84 92 92 82 90 89 84 78 61 66 74 59 46 49 49 51 50
98 98 99 100 75 68 73 54 72 72 74 65 63 69 66 68 82 79 75 79 89 89 89 89 98 93 80 67 65 70 79 75 66 81 83 82 72 58 76 77 63 41 51 54 50
98 98 98 100 90 88 68 60 59 72 73 66 70 75 83 80 85 74 90 90 97 88 91 97 100 77 72 63 65 67 76 78 58 76 76 82 82 65 64 73 55 50 44 50 48
97 98 98 96 70 71 66 65 65 73 87 80 86 87 81 92 85 77 88 96 78 90 99 99 88 64 72 71 70 71 70 74 67 70 58 70 70 64 57 63 63 54 49 44 38
98 98 67 54 77 70 72 74 73 76 89 90 94 90 86 83 82 84 87 86 89 95 96 90 72 70 79 76 65 75 61 61 71 72 87 59 79 66 54 55 54 57 50 50 42
92 75 52 45 86 80 84 81 82 82 91 75 92 89 85 85 80 77 83 70 87 94 91 94 81 77 85 77 57 66 58 62 67 71 67 64 77 65 54 58 50 46 45 44 42
43 28 28 63 92 87 85 83 86 84 95 94 86 94 91 92 92 82 91 81 85 82 87 91 72 75 73 70 52 61 62 66 72 70 81 68 75 67 54 46 44 44 41 39 36
33 56 58 86 87 81 83 88 89 88 70 83 89 90 96 94 88 85 87 91 97 95 100 96 93 87 74 73 58 57 66 93 87 88 83 70 76 55 46 36 35 32 28 28 35
54 67 79 82 79 85 93 81 93 79 93 75 82 88 93 91 95 90 95 90 94 94 100 100 99 90 84 72 76 61 60 83 86 91 81 70 79 52 47 39 35 33 32 32 30
70 79 84 79 92 97 93 96 87 81 77 77 78 77 91 82 91 94 97 96 86 90 100 99 100 88 83 78 67 72 74 57 78 78 79 68 60 44 40 34 31 30 30 29 27
80 88 91 88 98 99 95 92 86 65 71 79 92 89 89 86 85 96 99 81 85 88 72 76 98 87 87 78 78 68 64 78 86 87 83 68 63 48 36 32 34 33 30 30 33
85 90 98 97 99 99 99 89 78 67 68 60 64 86 98 98 86 88 88 81 72 82 67 71 75 95 77 88 92 81 89 84 72 74 78 76 57 47 43 34 37 38 36 38 42
85 94 97 100 100 98 99 83 69 61 60 56 52 57 84 86 92 89 85 77 70 73 73 70 78 97 97 82 77 74 79 74 83 84 88 81 70 40 40 39 40 37 43 42 47
80 98 94 95 97 91 80 74 69 68 63 58 56 55 52 64 84 84 72 75 72 63 72 69 85 95 91 79 73 85 84 80 83 85 94 86 65 40 39 36 34 42 47 43 51
77 95 98 100 96 85 88 88 76 65 63 57 62 54 54 62 70 74 73 69 67 72 64 61 80 76 82 72 83 98 77 76 80 88 69 75 61 50 48 48 44 38 36 43 51
63 87 88 96 90 79 79 81 88 88 75 67 64 79 65 61 68 78 70 65 65 74 75 73 91 79 67 68 86 85 86 81 83 72 85 62 66 53 50 50 45 40 33 40 45
40 71 83 69 63 77 65 78 79 73 82 80 80 81 74 82 82 72 70 67 65 64 78 70 92 78 81 69 78 85 82 88 78 71 73 71 75 54 56 55 57 52 42 38 45
56 71 55 71 64 71 55 57 100 86 76 82 84 75 89 94 89 88 71 62 61 70 79 75 88 87 79 77 68 68 69 78 84 83 78 87 65 54 58 60 58 52 51 45 36

GFSSW_850_rhum_063.txt.gz
RH
92 87 99 95 97 98 86 87 78 50 50 47 50 56 62 64 70 80 82 75 86 81 93 96 82 90 76 90 82 56 77 58 42 32 32 37 40 51 46 42 49 51 53 62 86
98 90 99 94 99 98 80 96 86 57 46 51 56 57 55 59 83 79 78 85 76 81 93 94 73 81 68 82 82 75 83 63 36 27 36 40 34 44 42 44 43 45 56 97 92
93 96 97 81 93 92 82 78 88 64 50 42 42 51 57 61 81 67 82 83 73 82 73 99 76 74 60 61 78 63 63 49 36 42 40 43 41 42 38 43 41 44 47 64 99
93 93 94 93 78 98 100 87 86 85 79 54 46 42 62 90 70 80 80 75 74 84 79 99 98 79 59 59 72 76 48 42 46 46 43 42 44 42 38 42 48 47 47 48 79
91 91 91 90 94 93 98 97 86 82 60 54 51 44 74 65 54 73 71 80 80 87 85 91 97 90 59 43 65 69 57 42 48 50 43 46 45 40 42 43 50 51 48 45 54
88 87 88 90 96 97 96 98 78 86 63 52 50 43 75 54 59 64 74 62 77 94 75 97 87 75 47 34 55 59 77 58 53 58 48 48 46 45 38 40 44 47 45 45 46
90 87 96 88 91 97 100 98 98 77 82 50 50 90 77 60 59 69 79 80 73 91 88 82 98 100 55 33 36 50 76 78 52 65 41 48 56 56 41 33 42 43 41 45 44
94 87 88 90 91 96 100 87 92 80 74 66 63 84 68 64 68 72 75 78 64 88 80 100 93 97 92 34 38 51 62 96 56 57 50 50 52 43 44 40 36 38 39 36 42
95 90 88 90 94 95 99 76 89 72 67 77 93 81 56 68 72 70 76 73 77 88 80 99 89 97 56 47 55 56 58 91 78 49 47 51 48 37 51 45 43 38 37 34 35
95 91 90 89 95 97 97 73 62 63 78 90 79 81 69 52 66 82 82 82 82 86 98 99 98 95 57 55 66 50 42 40 65 55 51 54 46 41 41 40 39 36 35 33 31
97 97 94 95 97 99 89 99 93 87 82 60 55 57 55 70 82 83 76 79 88 93 96 97 100 93 50 39 26 28 31 27 34 43 54 62 60 51 35 41 41 33 30 30 30
95 98 94 94 98 99 98 88 65 75 63 68 71 70 71 84 83 77 88 76 90 96 89 94 100 66 43 32 32 27 33 35 31 52 50 49 54 40 35 37 38 37 34 29 28
94 96 98 97 99 95 99 78 59 67 68 69 82 79 74 91 85 82 79 86 92 97 79 83 92 72 56 43 38 30 34 41 46 44 49 42 42 40 37 38 36 40 39 33 28
84 95 99 95 91 97 90 70 65 66 91 71 81 80 81 84 87 93 92 92 96 91 62 68 78 75 83 42 34 42 29 30 37 54 54 41 40 34 31 34 39 38 38 38 35
38 76 97 97 99 95 92 76 78 87 90 71 84 85 79 71 91 93 86 89 70 74 57 82 79 95 89 41 31 40 32 39 48 48 34 47 44 24 21 29 31 33 35 36 37
36 60 43 48 98 90 78 80 91 90 88 81 74 72 60 65 76 88 81 69 67 74 77 82 73 86 66 41 37 40 46 46 44 38 60 38 35 24 24 24 19 20 24 28 32
57 71 78 94 92 75 79 97 97 85 62 68 94 91 86 61 60 62 63 66 78 95 99 96 95 86 64 54 45 37 45 64 62 70 57 36 34 25 24 23 22 22 24 25 27
71 75 72 71 70 78 100 78 90 71 63 53 71 88 87 80 75 61 66 74 71 59 100 100 99 60 49 44 52 40 34 47 54 51 41 41 45 27 21 21 25 24 24 25 25
78 82 82 76 82 88 97 99 88 68 63 56 57 93 100 94 72 83 76 64 53 63 91 100 95 67 56 48 43 52 61 38 47 37 40 36 28 25 24 23 22 21 22 22 22
94 99 100 81 94 93 97 78 77 59 63 62 67 88 99 94 89 96 77 71 69 61 56 80 100 74 62 53 49 48 37 50 59 65 42 36 29 23 23 24 22 23 27 30 33
100 84 85 86 94 98 92 92 69 57 58 53 69 86 84 98 76 70 85 81 66 65 54 52 71 97 60 65 61 56 58 49 43 48 53 34 26 21 22 24 25 26 31 34 37
98 80 91 97 92 81 78 72 71 52 54 49 56 58 70 67 69 64 90 85 66 59 59 51 70 94 95 65 56 45 44 41 51 63 45 48 38 21 22 24 26 29 32 32 35
78 83 86 98 82 71 65 64 62 54 50 48 54 50 43 55 71 61 69 70 73 59 64 53 78 93 93 65 58 62 49 45 41 56 64 55 34 24 26 26 28 31 30 33 34
79 83 87 100 82 65 62 62 62 62 51 49 47 45 45 49 49 61 72 74 69 58 61 51 54 62 64 57 48 63 50 47 49 76 53 46 37 29 26 26 26 28 34 36 36
70 53 69 85 63 53 62 56 60 60 54 50 47 49 46 52 52 62 67 69 63 64 58 52 79 74 50 56 61 59 50 47 66 59 64 44 40 33 30 32 34 36 34 36 38
49 55 71 59 57 55 64 59 60 65 60 55 53 51 44 53 59 57 62 60 59 56 58 51 86 68 81 54 56 63 52 50 48 48 50 46 46 32 33 34 35 36 38 40 39
36 49 50 58 52 52 49 59 68 69 69 67 61 51 61 68 62 61 56 48 49 59 58 60 71 86 73 52 51 55 44 45 47 45 47 53 39 34 40 43 47 49 49 46 46

GFSSW_850_rhum_066.txt.gz
RH
92 92 84 92 98 97 98 86 96 68 46 44 49 51 50 48 52 68 86 74 79 74 83 79 92 82 89 84 84 69 80 67 56 45 35 39 44 45 40 46 48 51 60 77 74
92 88 94 94 86 90 99 96 82 84 52 41 39 41 50 51 52 73 67 73 76 73 90 94 93 81 93 77 83 79 82 67 45 38 44 38 39 45 43 46 47 62 92 85 93
88 84 89 92 90 85 96 100 70 85 78 59 40 37 39 55 83 74 70 72 81 78 73 92 99 78 87 74 81 72 73 61 49 46 36 38 38 40 44 48 43 47 67 95 96
84 84 86 86 93 91 86 99 96 75 84 57 44 44 42 79 70 71 66 64 81 86 82 97 93 94 79 80 70 86 60 49 54 50 44 42 40 40 41 47 45 47 48 76 93
89 83 82 96 88 90 96 89 99 77 80 66 49 42 40 71 56 71 58 65 66 76 94 95 94 91 79 65 60 84 56 52 51 61 48 41 42 43 47 48 46 47 46 51 79
92 84 82 92 86 86 92 97 93 99 72 83 53 45 88 63 55 58 68 70 64 78 88 88 88 86 67 62 58 67 62 51 67 72 73 46 45 44 41 42 45 47 44 45 52
95 88 84 90 84 90 88 100 76 98 90 73 70 60 85 67 54 57 66 72 73 72 93 85 80 99 90 58 46 57 75 76 74 80 56 46 51 54 40 39 40 45 44 44 45
96 89 88 88 88 91 90 100 88 84 95 69 66 80 77 58 56 59 62 69 75 82 87 90 84 99 97 59 40 59 70 90 64 78 79 53 71 48 41 40 45 42 42 40 41
98 94 90 88 90 92 93 95 64 83 73 65 82 82 64 62 63 61 70 70 68 89 86 86 98 96 87 89 54 63 89 83 77 70 84 74 62 45 42 48 49 45 39 38 36
89 95 97 87 89 94 96 62 62 57 81 94 81 73 72 54 66 70 74 79 76 90 98 96 98 92 91 84 77 65 79 81 77 73 91 80 57 51 48 53 51 43 40 38 37
72 95 97 94 96 98 86 95 94 92 89 68 59 58 53 60 73 74 76 82 83 86 96 97 99 98 92 72 42 48 53 92 79 71 88 75 59 44 45 52 51 43 40 39 39
48 94 90 98 98 98 93 91 72 81 74 69 64 67 65 75 82 70 83 76 84 89 93 99 99 83 86 68 39 39 44 48 66 62 67 58 63 53 46 47 38 39 38 34 35
37 87 85 94 90 88 91 91 76 82 77 67 75 75 70 86 86 81 82 81 84 96 94 93 93 85 84 56 40 33 35 48 76 68 85 59 64 54 46 44 36 37 38 36 33
33 42 96 98 87 97 91 86 64 80 99 78 76 78 76 83 88 91 78 92 94 98 94 85 87 87 76 76 39 43 31 44 54 62 75 50 59 51 41 40 40 38 37 39 40
25 36 83 99 89 93 90 76 75 85 99 65 81 75 79 73 83 91 79 95 97 90 76 94 95 85 69 39 29 39 31 43 51 54 46 57 61 37 34 40 44 41 37 36 37
30 52 49 59 91 96 81 78 88 98 83 80 68 68 61 62 72 77 84 87 65 70 75 85 86 84 88 46 40 40 45 50 52 57 82 49 53 41 35 32 29 38 37 36 35
53 69 78 99 98 83 82 92 100 96 58 72 81 78 71 83 68 58 62 77 78 93 98 92 95 76 80 57 48 48 55 86 87 88 76 42 48 38 29 24 25 27 27 27 31
68 71 73 97 70 80 98 96 89 62 64 55 70 82 80 72 58 54 60 76 63 77 100 99 97 88 60 49 57 59 48 77 63 81 65 40 52 37 28 23 24 24 23 25 26
74 72 89 77 74 95 97 100 91 70 56 54 94 100 94 76 64 74 67 71 58 63 100 94 100 85 59 49 54 52 70 43 60 37 73 54 35 28 29 28 24 22 25 28 26
83 94 98 76 86 92 99 85 72 58 61 57 69 82 97 81 77 82 68 65 62 55 57 74 96 72 61 54 50 61 44 62 84 69 50 43 37 39 36 29 29 34 33 35 36
95 88 93 82 86 97 100 93 66 55 55 58 66 76 95 94 81 67 76 76 58 58 58 68 69 91 67 66 62 62 82 55 53 69 84 57 44 27 30 31 35 35 32 33 36
86 89 96 94 98 78 93 66 63 50 52 50 54 62 74 74 68 72 83 78 62 56 59 56 82 98 90 68 56 63 48 48 76 73 64 68 54 22 32 31 26 31 32 33 35
80 91 98 91 84 77 63 62 58 50 49 47 54 49 44 58 71 70 74 71 59 57 61 53 84 97 98 71 57 71 56 48 48 69 82 81 50 30 30 29 28 30 32 36 36
78 85 94 96 81 75 59 59 62 60 50 47 46 44 46 52 49 67 74 70 67 58 59 55 69 80 90 71 66 74 58 52 59 91 68 64 47 35 32 33 33 35 35 34 34
75 72 71 87 73 63 58 53 53 60 52 47 48 48 46 54 58 70 67 74 68 63 61 60 79 74 54 58 68 60 57 55 69 66 72 59 53 41 39 39 36 36 38 42 43
61 63 71 54 51 58 63 61 52 63 64 52 53 48 45 60 61 62 62 64 67 62 61 58 93 74 82 53 55 64 56 54 52 55 54 52 55 41 40 42 45 48 50 50 47
54 51 50 57 58 57 57 56 61 62 66 62 57 56 67 67 60 56 51 46 52 61 65 64 82 90 82 53 53 69 58 55 53 49 49 62 48 45 54 55 55 55 52 51 51

GFSSW_850_rhum_069.txt.gz
RH
91 91 87 90 88 81 89 93 91 83 88 52 38 38 43 47 44 49 65 58 70 68 91 73 75 80 81 93 92 84 89 78 68 62 51 39 43 38 43 50 54 60 69 57 63
87 92 84 87 85 87 80 85 99 68 88 86 52 37 32 48 51 48 56 75 77 73 74 77 76 82 83 89 91 92 84 72 50 54 56 44 40 40 49 52 87 81 77 73 62
96 84 82 84 89 92 89 79 97 87 67 82 59 42 37 55 72 68 69 63 60 71 82 78 80 100 89 89 84 82 79 65 56 54 51 50 43 42 51 55 53 89 78 83 53
91 90 88 83 88 87 92 95 78 96 84 83 63 41 34 54 92 65 68 61 56 77 74 72 94 99 81 88 79 96 69 55 60 53 58 50 41 43 50 49 54 56 66 88 76
92 92 90 86 87 84 90 86 91 84 98 79 79 48 36 78 76 69 63 65 62 74 77 87 98 92 77 73 75 83 74 62 54 56 64 59 45 52 51 47 47 62 61 86 86
90 94 94 93 86 87 83 86 99 67 96 92 76 67 63 92 55 57 58 55 62 77 86 99 88 94 90 80 74 68 70 67 65 67 83 81 56 49 52 46 43 45 59 70 86
86 97 92 89 87 86 87 90 98 71 90 98 70 81 83 62 55 59 59 59 70 69 86 96 77 98 96 74 65 64 83 77 79 73 75 85 75 57 51 47 47 44 46 47 59
73 98 92 97 90 90 90 90 99 74 77 94 76 77 81 55 62 58 54 66 65 71 85 88 86 93 98 80 65 70 72 92 86 88 83 78 80 61 47 43 46 45 44 44 46
65 95 92 96 86 87 90 90 60 56 79 72 64 82 82 62 62 64 63 62 71 73 86 81 91 99 97 92 86 80 85 83 90 84 83 89 83 56 48 45 43 45 44 43 42
63 70 90 95 90 92 88 62 58 58 79 76 80 91 68 56 61 62 69 75 77 80 91 91 96 96 97 95 96 83 86 74 89 84 81 83 84 64 46 47 42 40 42 41 40
61 48 70 90 94 92 80 73 82 91 93 69 70 64 62 61 64 72 74 76 81 82 87 94 99 98 97 90 83 56 64 84 68 72 75 87 83 67 56 51 51 44 39 37 37
54 39 47 67 84 94 87 91 80 82 83 58 67 66 66 70 85 72 76 81 84 89 91 99 96 81 76 79 79 57 84 86 77 75 70 81 82 73 58 57 54 50 48 45 39
44 36 33 61 96 91 71 89 84 71 88 69 70 76 75 81 85 82 78 78 86 96 94 98 84 78 87 88 86 63 71 79 76 74 75 81 90 88 59 49 45 46 44 40 38
36 32 29 66 87 92 87 85 77 67 96 78 80 78 78 85 86 81 73 90 88 95 100 98 87 84 84 85 66 62 43 55 73 89 100 83 91 71 54 53 51 42 40 40 40
34 29 44 73 97 88 85 80 72 79 88 69 79 64 71 79 79 89 86 89 90 94 96 97 96 89 86 70 58 51 48 63 76 87 65 75 71 48 53 60 54 47 38 39 38
33 45 43 60 96 90 85 76 82 92 83 83 70 74 69 71 83 81 91 96 94 78 81 88 94 89 84 76 42 55 56 62 66 65 85 63 61 52 55 50 48 45 39 38 37
39 64 69 97 91 82 82 88 98 93 60 80 75 81 81 84 74 74 80 81 85 90 99 97 93 78 82 63 56 53 63 95 88 84 76 45 54 53 33 33 35 47 40 41 39
63 68 80 99 89 79 86 98 80 58 70 69 76 79 78 74 61 57 65 81 70 82 94 97 92 93 73 58 61 54 52 79 82 92 70 46 53 38 31 30 25 25 26 26 26
73 70 80 76 74 82 92 89 86 78 58 78 95 95 87 78 73 77 71 74 64 77 95 100 100 82 71 60 54 57 74 46 61 53 81 59 42 32 32 32 35 35 32 34 29
78 80 93 77 81 92 98 88 76 60 63 66 88 90 89 68 82 92 78 72 69 65 75 79 98 83 64 54 53 58 48 63 83 65 59 62 46 45 38 41 43 44 39 36 34
83 92 95 88 88 96 93 85 69 57 57 61 72 88 77 85 86 78 81 74 62 60 62 72 75 82 69 84 76 70 73 61 64 77 83 60 50 32 38 43 48 41 35 36 36
90 96 99 90 98 93 96 65 60 56 53 53 58 65 91 82 74 79 85 82 64 59 63 62 88 94 90 76 62 66 62 58 78 73 74 76 56 38 38 41 37 35 36 38 38
85 97 99 98 98 90 70 71 64 57 53 51 58 50 58 64 78 75 80 72 61 64 68 62 88 94 90 70 61 73 63 58 66 73 84 71 54 36 33 31 30 36 36 36 36
73 97 99 99 92 84 79 77 75 58 52 48 49 48 50 58 59 76 71 72 67 63 58 58 78 79 88 74 70 81 67 60 68 90 73 71 46 39 38 35 39 39 42 45 46
70 84 80 98 94 87 67 67 71 71 56 49 51 51 51 65 64 75 66 79 70 64 61 67 80 73 62 62 66 64 66 67 74 68 74 59 54 48 50 51 47 53 53 51 49
75 77 70 77 67 87 71 68 63 71 68 56 56 60 68 75 75 67 68 71 77 66 66 66 88 74 83 56 58 65 61 59 62 62 64 59 61 44 51 54 58 58 53 54 54
63 60 58 72 79 80 80 63 70 73 68 65 67 71 78 72 65 57 52 54 61 72 73 73 82 91 86 56 54 68 62 61 57 51 56 68 54 57 66 63 65 66 66 67 64

GFSSW_850_rhum_072.txt.gz
RH
63 81 85 82 87 91 85 78 86 95 67 86 66 47 39 35 39 47 39 38 56 70 61 84 76 72 69 90 87 87 93 80 72 61 49 36 44 46 45 54 60 64 75 63 61
66 90 84 82 81 90 89 90 85 100 67 76 84 59 44 38 38 38 46 58 84 68 73 75 81 68 75 86 87 96 90 79 54 57 55 52 48 44 54 72 93 86 65 56 59
70 84 90 89 80 84 82 90 88 85 88 82 75 58 38 38 51 57 61 72 59 48 71 75 74 77 80 84 84 76 86 63 51 52 56 62 52 47 56 60 77 83 80 54 60
75 79 92 91 84 84 85 88 86 89 87 90 86 72 43 39 59 64 72 69 55 54 64 72 79 91 80 90 80 91 69 62 60 52 54 71 60 57 54 50 44 65 75 57 67
79 81 92 92 85 84 84 86 84 99 75 90 94 82 63 76 52 45 67 60 50 62 74 77 83 85 94 83 79 88 76 69 58 59 69 65 70 64 54 58 55 60 79 67 79
85 83 93 96 89 84 84 86 89 99 74 88 97 83 81 90 54 64 59 58 57 64 78 76 91 82 90 86 79 73 73 73 69 62 68 76 74 64 54 55 63 59 72 82 61
93 84 93 92 90 86 87 86 93 100 76 87 99 80 91 48 46 65 68 63 60 66 78 82 86 99 97 80 72 68 83 79 77 72 72 82 84 70 52 47 51 57 54 75 71
99 83 76 85 91 86 85 92 93 89 67 85 92 76 73 58 59 56 60 58 64 64 74 86 90 99 100 84 73 75 77 87 72 74 78 84 85 69 59 50 49 54 53 49 69
99 92 69 69 91 89 92 89 77 56 73 90 67 82 81 61 62 64 64 65 62 72 77 85 93 97 96 92 86 87 85 84 89 76 95 73 86 67 62 55 52 49 49 49 51
97 88 62 66 93 92 82 72 66 65 77 63 82 96 68 61 62 62 66 76 77 81 87 89 97 97 98 92 98 80 89 75 94 93 87 87 86 84 68 63 54 46 47 47 48
100 87 45 44 90 82 82 87 91 93 92 68 68 68 63 63 65 69 72 74 92 82 85 90 99 99 98 80 86 84 79 77 89 84 81 89 80 80 75 64 57 49 41 44 43
100 78 38 34 71 79 90 90 78 78 74 56 67 76 68 71 78 73 77 76 83 93 89 95 99 79 85 85 86 85 74 88 72 86 80 89 83 80 84 71 60 49 45 39 39
98 67 35 29 80 88 75 84 81 76 89 72 68 72 77 80 95 82 77 78 83 82 85 96 82 69 80 83 95 93 73 87 90 79 81 80 87 85 71 63 60 53 50 46 42
97 53 36 38 69 89 86 83 75 70 90 81 83 77 78 84 87 81 83 86 91 94 96 99 85 79 82 92 87 98 69 68 88 94 96 73 91 83 65 63 58 52 47 45 45
91 38 33 72 83 90 82 80 70 77 91 70 78 66 76 81 81 90 94 90 96 98 98 98 92 89 93 92 76 56 62 64 76 98 97 96 86 56 60 67 58 52 45 42 43
53 36 48 75 80 87 86 78 78 85 83 85 72 73 76 77 85 85 98 96 97 96 88 94 88 80 82 71 64 55 73 77 74 85 98 79 82 51 61 56 50 49 41 37 39
58 54 56 68 81 86 81 86 88 84 55 89 80 79 82 79 81 86 87 90 92 97 98 99 97 90 86 79 67 61 75 98 98 97 86 60 65 49 36 36 49 50 39 36 41
58 65 77 88 78 82 92 90 78 64 80 73 79 79 83 78 68 68 68 79 75 82 100 99 99 97 74 65 86 63 54 81 88 92 74 50 61 39 33 34 38 40 38 39 38
73 82 88 88 81 88 90 94 79 77 63 89 88 86 87 77 76 75 74 79 72 80 93 95 100 82 70 60 54 61 77 49 66 64 72 56 41 34 37 45 44 41 34 35 31
75 82 85 71 79 94 85 91 79 63 68 90 96 92 88 73 82 85 83 75 71 67 72 80 95 85 74 54 56 56 48 63 82 73 66 65 48 49 44 51 49 49 42 36 34
81 88 99 80 89 100 98 91 70 59 58 64 79 80 80 81 83 83 83 71 67 62 65 68 76 82 72 88 86 68 65 66 68 77 74 66 52 36 44 48 51 47 40 37 37
91 97 100 88 98 93 97 71 60 60 55 56 60 74 82 85 87 84 90 86 72 63 72 78 83 96 89 74 68 68 66 63 74 69 80 72 52 43 40 48 44 45 41 40 38
93 100 100 91 98 89 74 66 65 62 59 56 63 55 68 86 85 82 79 74 67 69 74 64 87 94 78 64 60 72 62 60 68 77 81 68 56 39 40 40 43 42 40 40 41
82 98 100 100 83 86 82 80 76 60 54 50 52 49 55 60 69 81 74 71 70 65 60 62 81 74 86 73 70 79 72 63 67 86 75 72 50 43 48 50 48 51 52 49 48
74 87 81 93 97 90 76 78 76 71 59 52 53 53 56 72 70 76 76 77 69 66 62 70 81 74 65 64 68 68 69 71 76 66 67 55 53 55 52 54 59 59 54 52 52
85 83 80 85 79 90 82 82 73 77 64 60 61 69 62 73 68 73 73 75 76 70 68 71 91 73 82 59 61 64 62 65 71 64 63 60 60 54 58 62 64 65 68 71 70
75 70 60 85 92 85 80 74 71 77 70 67 70 76 79 71 65 59 55 58 63 74 78 75 83 89 88 68 58 68 57 62 60 58 61 73 62 67 70 72 72 62 58 56 55

GFSSW_850_rhum_075.txt.gz
RH
76 70 80 76 76 82 90 89 84 84 95 73 86 89 54 38 29 29 32 32 33 49 79 78 79 79 72 86 81 87 96 83 80 71 58 37 42 39 44 55 58 47 54 53 47
92 76 82 88 84 82 82 88 90 84 95 94 65 80 62 40 31 25 26 41 76 80 46 72 76 73 79 79 80 87 86 67 67 64 51 50 48 46 59 82 86 76 76 62 48
99 88 77 93 88 79 78 81 88 90 83 88 90 90 76 46 34 39 59 69 81 55 46 65 81 77 85 75 80 80 85 56 58 62 58 62 57 49 59 77 68 73 88 63 72
100 99 87 99 89 86 79 80 85 82 90 74 96 93 82 57 37 64 62 70 64 50 62 76 83 83 88 89 74 90 69 70 56 54 58 68 63 57 59 51 47 50 54 76 98
100 100 95 97 95 92 82 89 84 86 92 79 90 100 84 72 49 34 63 64 57 53 61 77 84 82 83 88 80 83 80 65 68 56 60 66 72 75 63 55 52 69 87 76 63
100 100 96 97 87 74 85 85 90 90 92 82 92 100 90 92 46 60 67 62 61 60 62 73 87 90 82 71 88 72 74 74 66 71 60 63 81 72 60 72 59 72 64 93 96
100 100 99 92 87 91 73 85 92 88 96 81 86 100 99 66 45 65 67 65 65 63 70 72 81 89 87 76 69 83 92 73 73 83 72 67 74 76 63 67 62 63 57 68 78
100 100 99 98 64 43 89 87 89 92 92 73 95 98 74 57 60 58 61 61 62 62 68 78 88 93 100 89 91 92 86 83 64 81 73 69 73 76 67 70 72 71 66 64 62
100 100 99 94 60 50 91 82 72 66 88 85 100 80 77 61 59 60 63 66 66 65 73 87 90 99 98 99 98 85 99 83 81 76 85 85 82 85 80 72 66 64 64 64 70
100 99 100 95 52 61 81 68 64 66 83 89 86 97 70 60 64 65 67 75 77 78 82 93 97 99 98 100 94 84 90 74 79 82 77 90 78 85 94 76 66 57 56 52 55
100 100 100 88 51 62 74 76 86 91 87 77 76 77 64 67 70 70 79 81 80 89 88 86 100 99 97 95 84 69 82 77 88 82 86 88 73 72 89 92 75 63 54 48 48
100 100 99 72 57 64 69 78 76 77 78 68 73 77 71 75 76 76 84 77 90 96 84 91 97 80 83 93 93 72 89 84 86 87 88 86 87 82 87 86 74 68 59 49 44
100 100 99 53 58 74 72 72 75 75 85 68 72 72 77 79 88 86 80 80 87 80 76 94 77 69 86 88 95 90 82 90 85 86 77 89 95 88 84 90 72 64 60 54 47
100 100 96 54 68 75 70 86 76 72 88 77 84 77 77 83 87 83 80 82 96 93 84 99 85 77 81 89 77 86 74 78 88 95 100 84 95 90 73 82 72 64 60 52 49
100 100 78 51 78 84 77 83 69 76 82 62 80 73 82 83 79 89 94 92 89 93 98 98 98 88 77 78 72 73 68 86 84 97 99 94 84 58 66 74 76 64 55 50 45
100 100 70 71 91 86 85 75 70 83 75 86 74 77 84 77 84 95 98 98 98 98 100 98 86 72 70 74 78 75 77 83 88 100 98 100 81 52 67 57 54 52 46 44 42
100 94 85 68 77 87 84 79 90 88 53 92 82 77 80 79 79 84 85 92 98 99 99 97 92 87 78 95 79 79 90 99 98 98 94 75 88 61 38 40 47 50 40 39 40
100 94 87 81 87 86 80 89 82 64 81 76 79 79 86 80 70 77 71 100 80 96 99 92 99 90 76 72 82 70 60 93 92 92 78 58 79 46 41 44 46 45 43 42 41
100 98 91 100 96 82 80 94 78 72 76 86 79 87 87 74 81 78 85 87 80 85 97 98 99 85 78 65 59 64 77 50 68 63 84 63 44 36 42 50 48 47 39 37 34
98 100 98 98 91 87 88 87 87 67 90 79 84 77 84 76 80 82 84 75 81 68 72 79 93 76 71 57 57 56 50 63 83 85 68 64 52 53 46 50 52 53 48 42 38
100 99 99 100 90 97 91 93 73 62 65 84 85 91 82 80 81 84 85 67 76 70 72 69 76 78 71 89 89 67 63 69 70 76 80 68 52 36 44 49 52 53 46 43 41
99 99 97 100 98 93 98 85 60 64 59 58 70 70 77 84 72 86 89 90 74 69 82 77 83 95 85 71 73 72 68 63 74 68 82 73 56 48 44 51 50 49 45 42 41
99 99 100 100 99 98 77 64 64 63 59 61 67 69 73 82 86 82 81 76 73 71 72 63 85 91 78 64 58 71 64 67 71 76 81 75 59 45 51 55 49 46 46 49 48
98 100 100 100 94 77 78 73 76 60 55 51 56 50 71 73 74 86 77 75 72 67 64 65 82 71 86 68 70 76 71 65 67 84 76 67 54 55 48 55 56 57 56 54 54
99 97 86 97 96 92 76 70 74 70 59 53 55 55 58 78 77 82 76 77 70 67 64 67 84 78 71 69 70 70 69 72 77 64 64 55 53 53 57 64 66 62 60 61 62
97 92 84 86 80 90 84 80 70 78 67 61 64 66 60 68 65 74 76 75 76 70 70 74 92 74 83 65 62 66 64 72 72 68 62 62 63 56 67 68 73 75 71 62 57
97 93 75 85 94 87 82 81 74 76 71 68 68 74 75 70 66 64 59 65 66 73 79 76 85 86 84 70 56 68 57 65 67 66 66 79 65 75 75 78 69 59 52 51 48

GFSSW_850_rhum_078.txt.gz
RH
100 100 98 81 88 87 88 83 88 90 79 98 89 65 80 68 39 28 22 24 31 52 93 90 79 83 77 82 81 86 92 83 69 76 67 46 46 39 42 42 50 45 43 47 71
99 100 99 95 85 95 89 84 79 91 87 76 89 90 85 74 44 29 21 22 34 89 55 47 79 76 79 82 79 89 95 70 53 55 63 52 51 42 47 68 73 68 79 51 60
99 99 100 97 90 97 87 88 80 84 89 79 73 96 98 84 59 33 56 45 90 69 50 40 65 83 87 79 83 84 88 61 56 54 60 67 61 56 56 79 69 59 79 57 51
98 98 100 98 97 99 87 89 82 86 82 87 76 92 100 84 54 58 69 64 69 58 50 62 82 88 91 91 77 92 72 70 66 57 58 64 64 70 70 54 55 52 50 57 47
93 99 100 100 100 91 85 87 81 85 88 88 82 86 100 83 70 54 87 86 67 57 58 65 83 88 91 84 81 90 77 76 68 64 69 54 59 71 71 50 54 58 77 58 47
90 91 100 100 99 100 74 90 77 86 90 88 81 93 99 93 58 49 42 71 61 62 61 65 77 81 90 87 76 74 76 72 72 70 65 67 58 81 59 70 60 56 63 62 60
98 84 99 100 100 100 77 77 80 89 91 95 76 95 100 78 51 55 66 59 64 67 66 66 74 85 90 82 71 70 86 82 69 65 78 63 76 83 77 76 71 61 63 65 87
100 95 92 100 100 97 69 68 87 86 93 92 72 96 89 58 64 54 64 60 61 63 67 72 80 84 89 87 81 89 76 96 73 65 77 76 74 64 85 73 74 72 61 60 92
91 99 100 100 100 91 64 80 80 72 94 95 92 100 69 65 60 58 62 64 66 62 70 80 88 95 94 98 99 87 96 92 78 64 71 80 88 86 77 71 75 74 76 65 59
63 99 100 100 100 86 65 67 77 67 99 100 96 92 68 62 64 65 66 72 75 78 80 95 99 100 100 100 95 86 97 99 78 79 76 86 88 94 91 75 85 72 68 65 70
60 87 99 100 100 89 73 62 98 92 92 59 64 80 68 68 71 74 75 80 82 84 97 91 99 98 91 96 91 98 80 84 75 84 83 85 89 83 92 86 87 78 68 59 57
69 97 99 100 99 76 79 79 82 74 84 67 66 82 72 75 79 79 84 82 93 94 85 95 98 78 78 94 98 100 81 96 92 76 82 82 88 86 85 80 85 86 77 63 56
60 98 100 100 94 80 74 65 73 77 73 70 70 71 71 76 81 82 86 82 90 96 87 92 75 73 80 96 100 92 82 93 87 86 83 82 84 91 80 83 77 79 79 65 59
86 93 100 100 93 70 86 68 72 75 88 79 84 77 78 82 86 83 85 85 86 94 85 92 71 86 93 100 84 88 87 83 87 92 98 83 98 93 82 88 82 76 76 66 54
76 78 99 100 75 70 74 77 75 80 80 61 87 78 83 92 82 92 91 91 89 91 96 95 88 91 95 83 77 92 78 82 87 97 97 99 100 72 77 86 82 79 66 63 51
84 92 100 99 85 79 84 81 74 80 76 90 82 88 96 88 85 95 99 99 99 99 100 99 91 76 63 75 85 82 82 85 94 94 94 100 92 60 88 73 66 66 68 56 51
96 98 100 100 91 91 86 79 90 88 53 94 87 81 84 81 80 88 92 99 100 100 99 98 91 83 80 86 82 78 77 98 96 97 98 95 99 68 45 39 49 54 57 50 45
96 97 100 97 100 96 87 85 87 65 84 78 79 81 87 79 72 78 94 100 97 97 100 97 96 89 85 90 95 80 85 92 93 93 93 65 83 54 44 52 52 42 49 48 45
84 99 99 100 99 97 93 95 77 72 79 89 78 87 84 74 82 79 87 95 85 86 91 99 100 93 91 72 62 68 84 57 73 64 90 68 47 40 47 54 53 54 48 46 46
97 100 100 100 100 90 94 84 80 67 82 72 80 74 77 76 80 81 85 75 84 83 84 87 98 79 66 61 56 51 52 65 83 85 78 64 56 55 50 59 57 61 59 51 44
100 100 99 100 100 99 97 90 80 68 76 80 88 87 80 80 82 85 86 68 83 78 72 68 77 80 71 90 90 65 65 71 70 76 74 69 52 40 46 51 63 62 55 51 48
100 100 99 99 99 93 98 82 64 69 64 66 71 73 79 82 69 87 90 91 77 77 82 77 83 97 84 72 76 76 71 60 74 70 81 72 55 55 50 55 55 56 56 53 50
100 100 100 100 100 98 86 72 70 64 64 65 74 65 69 82 87 83 83 76 75 76 77 66 82 90 75 64 60 72 67 71 70 73 81 75 63 52 61 58 52 60 59 58 56
99 99 100 99 96 85 79 73 80 60 58 54 59 66 75 79 77 84 78 78 73 72 72 66 80 71 83 66 71 77 72 64 64 81 78 65 63 54 56 61 68 63 60 61 61
99 100 100 100 98 93 84 71 75 73 58 54 58 60 66 84 80 82 78 77 69 70 67 67 84 80 76 73 72 71 72 70 76 64 60 62 64 62 59 68 72 67 70 64 60
98 98 99 88 80 91 85 72 73 80 66 63 67 70 62 68 63 80 76 75 78 70 73 74 92 74 82 67 62 69 69 74 71 65 62 62 58 55 65 72 76 74 64 59 54
99 94 74 81 91 92 83 72 72 72 73 73 65 72 72 69 65 64 65 71 70 74 80 77 84 86 85 72 61 66 57 67 70 68 67 73 60 79 78 81 74 62 55 54 53

GFSSW_850_rhum_081.txt.gz
RH
90 94 93 100 100 92 91 87 78 74 90 82 80 89 88 77 71 54 33 22 26 41 86 86 78 79 72 83 81 80 90 79 68 70 56 52 51 50 50 46 41 44 42 52 68
92 91 96 100 99 100 98 98 72 67 80 94 82 74 96 94 76 61 46 30 25 80 91 52 56 71 74 85 77 84 89 69 52 50 55 54 54 49 52 48 49 54 59 60 59
89 92 95 98 100 99 99 99 82 62 77 86 81 76 95 97 74 35 54 42 88 93 76 46 60 75 84 80 82 81 82 59 57 58 60 63 64 53 54 55 42 49 55 66 65
99 99 92 89 100 100 99 98 91 72 78 81 89 78 94 94 73 46 75 95 86 64 54 48 67 85 91 88 77 85 70 72 67 64 67 65 60 61 73 47 39 42 59 68 74
100 100 99 93 100 100 99 98 76 70 84 88 89 80 98 96 77 66 65 93 77 56 52 51 64 86 89 84 83 85 69 67 71 73 69 64 65 62 62 62 57 51 55 72 78
99 100 100 97 100 100 100 98 66 69 83 88 92 83 97 94 70 51 40 87 78 60 61 62 66 77 91 90 82 71 73 68 66 63 68 69 62 71 58 67 66 58 47 79 76
99 100 100 94 100 100 100 96 66 76 87 90 89 86 98 76 76 47 59 59 65 64 66 66 68 75 82 71 82 76 79 66 63 74 61 69 70 70 63 62 71 59 48 64 84
99 94 98 97 97 100 100 88 63 85 84 92 81 90 96 78 55 55 55 64 60 62 66 69 73 82 87 77 73 76 81 86 51 62 59 69 72 52 70 69 77 73 80 68 73
99 58 89 97 100 100 100 83 58 90 82 87 78 96 82 65 56 59 61 62 64 66 67 71 80 88 86 90 85 79 84 83 65 62 56 72 70 56 75 72 81 80 80 82 74
99 76 62 92 100 100 96 69 66 78 90 87 98 98 67 63 60 66 66 64 70 74 79 82 90 99 96 100 94 76 92 77 74 63 66 68 75 92 92 79 81 82 76 76 83
99 88 100 98 99 100 95 75 84 90 99 81 79 72 64 66 70 73 74 75 80 82 80 90 100 95 94 87 91 99 99 80 66 59 70 73 79 78 84 96 96 91 81 69 72
92 80 93 100 100 100 83 62 73 78 91 80 73 70 76 74 76 78 78 84 92 92 91 90 96 71 71 94 98 97 93 90 88 54 68 75 75 86 85 84 95 93 79 73 64
75 92 76 100 100 99 84 81 80 85 76 73 69 73 71 76 80 84 87 80 94 96 93 95 71 70 77 97 100 100 96 85 96 80 80 77 83 83 69 71 86 80 77 71 64
83 82 69 97 100 100 93 81 85 81 87 78 88 79 82 81 88 82 83 78 86 91 90 90 74 81 81 100 100 91 75 70 78 84 100 84 94 86 77 70 75 71 68 62 67
82 92 71 98 95 98 86 84 84 75 96 72 91 82 82 86 82 92 90 93 84 88 98 85 96 88 96 99 88 94 78 83 84 90 86 90 82 77 77 84 78 73 67 56 56
72 84 95 89 99 93 97 95 74 85 94 93 91 96 98 94 88 97 99 98 98 99 100 99 88 91 77 76 88 82 75 82 87 86 94 95 78 68 80 72 63 69 68 64 64
84 98 98 98 99 97 99 83 94 96 60 97 94 88 86 88 88 92 92 100 100 100 98 96 89 82 82 80 79 86 72 94 92 93 95 98 96 67 47 41 48 60 67 66 70
90 90 91 98 100 98 98 95 97 67 79 78 81 85 88 80 78 83 90 100 98 89 99 96 91 89 84 90 90 85 93 83 89 90 93 83 89 56 50 56 56 44 54 64 62
99 100 98 100 98 100 97 98 85 72 77 90 75 83 84 76 80 77 87 98 85 85 99 98 95 83 86 83 84 87 91 60 74 70 80 68 54 44 49 58 56 59 57 57 59
100 99 100 100 99 100 99 89 79 64 77 67 79 72 76 78 78 82 82 96 97 85 82 95 100 79 73 79 77 69 55 64 82 82 95 73 55 60 57 63 59 61 68 61 58
100 98 100 100 100 99 100 87 78 69 73 71 86 88 75 79 81 86 90 74 85 82 82 72 78 95 71 89 92 66 65 66 67 76 80 75 55 49 49 58 66 66 68 66 58
100 99 99 100 99 99 96 78 66 74 72 72 70 79 74 79 81 88 96 92 79 81 79 75 77 96 84 70 75 80 68 56 68 70 75 67 55 58 51 57 62 70 66 63 57
100 100 100 99 100 100 78 83 70 66 66 69 77 64 70 82 85 86 85 74 77 78 79 67 81 87 75 64 61 74 70 70 67 69 75 65 60 59 63 60 67 69 66 62 58
99 99 100 99 98 82 81 73 76 61 59 59 74 72 74 82 80 84 81 75 73 77 75 63 81 70 79 68 74 74 73 66 61 73 70 62 68 63 63 70 74 70 72 65 60
99 100 100 100 99 90 86 76 74 73 59 57 62 68 72 83 80 82 78 73 65 72 70 67 86 81 74 70 72 74 75 71 75 62 59 56 66 63 62 74 73 73 71 63 56
98 97 80 97 85 86 83 72 77 79 69 64 71 71 62 72 62 75 74 75 82 72 75 74 93 74 80 67 62 73 74 76 70 63 64 63 55 57 67 74 80 74 64 58 56
95 90 75 86 91 82 80 72 74 72 76 76 68 71 78 70 65 65 67 75 75 76 78 75 82 85 84 71 61 65 64 66 71 71 66 66 63 75 80 84 73 61 60 65 68

GFSSW_850_rhum_084.txt.gz
RH
97 94 93 93 95 98 100 100 100 96 65 84 89 81 72 90 85 78 78 45 25 37 69 89 80 76 72 73 74 68 67 52 39 34 30 24 26 34 38 39 34 34 35 34 64
95 94 96 99 98 100 100 99 97 96 69 78 87 76 81 85 88 75 67 53 26 79 84 66 56 71 55 63 65 64 60 44 29 28 30 32 29 32 36 39 38 38 43 61 70
96 95 98 98 97 98 100 100 97 93 57 83 80 81 72 91 80 46 62 51 85 80 92 55 65 62 53 57 55 52 62 38 38 43 45 46 40 38 40 42 36 36 38 55 74
96 99 97 100 98 98 100 99 100 96 53 81 81 82 74 84 59 48 96 98 87 75 56 67 70 59 55 52 46 55 41 40 40 49 54 50 50 52 43 38 37 59 41 58 73
85 92 96 98 100 95 100 100 100 92 49 80 88 84 79 90 80 68 72 90 74 57 61 62 54 53 48 49 57 54 38 35 37 48 52 50 50 51 50 45 51 64 54 54 60
92 98 98 99 99 94 98 100 100 91 48 87 85 83 92 77 70 62 45 91 86 64 64 67 57 68 58 55 55 40 51 51 49 45 47 49 47 46 45 45 52 66 64 50 49
93 95 98 97 100 90 98 100 100 71 65 87 88 80 98 72 69 76 50 55 68 64 68 71 71 68 59 50 50 59 60 44 44 46 48 41 47 49 42 47 58 60 64 59 43
98 98 100 66 100 99 95 100 98 69 82 92 92 94 86 74 66 55 55 57 67 60 63 68 76 75 71 57 54 52 47 72 32 33 45 48 41 25 32 40 50 54 65 63 61
98 94 97 82 81 100 100 99 84 73 85 83 86 92 75 71 65 58 60 67 76 66 66 73 76 73 73 79 71 60 58 50 47 36 39 50 40 26 34 39 50 57 64 71 76
95 94 76 97 64 100 99 95 87 78 88 98 91 87 79 68 59 63 64 66 73 76 81 82 77 78 75 86 85 64 83 57 49 36 44 46 41 29 47 53 55 61 66 74 81
80 81 61 98 80 100 100 92 99 97 100 80 82 71 71 65 67 70 72 82 82 82 76 70 87 90 78 70 70 72 86 88 62 39 45 47 40 36 75 69 64 66 77 73 85
81 83 66 87 99 99 98 88 72 75 86 76 81 86 71 70 75 83 76 70 69 74 66 86 91 58 53 58 81 97 89 71 57 51 51 44 42 39 61 68 67 71 73 75 70
84 78 82 67 98 100 94 84 83 74 68 84 92 84 73 72 71 75 86 77 68 82 75 78 52 53 59 67 99 97 97 79 82 60 54 49 55 68 61 61 68 70 83 91 77
77 70 88 74 100 100 96 88 77 82 84 77 84 83 78 84 74 78 84 72 72 74 72 82 61 71 77 87 97 98 87 92 95 96 79 54 70 63 51 59 57 59 76 84 89
79 71 81 83 100 100 94 84 85 84 90 74 88 82 87 80 82 90 86 94 76 74 96 69 80 96 100 99 97 76 64 94 96 86 70 65 64 60 63 62 60 56 77 82 96
76 86 93 81 99 90 91 90 89 90 79 93 88 82 86 80 76 98 98 98 99 99 100 92 69 81 85 63 73 60 67 93 74 68 91 81 79 62 59 59 50 55 68 74 82
86 98 95 97 98 98 93 99 97 93 66 95 84 81 73 76 78 85 94 100 100 97 95 77 83 70 74 81 72 77 77 89 87 76 83 89 70 61 44 42 41 36 52 65 89
93 97 96 89 98 100 98 99 95 75 68 69 68 73 72 69 69 77 95 98 97 89 87 93 85 75 70 73 90 77 76 77 72 83 92 73 74 53 46 47 46 42 61 74 86
99 95 96 73 94 100 99 96 84 73 65 71 71 78 79 68 67 69 94 97 82 88 99 97 84 66 72 73 80 73 80 49 64 60 61 64 59 42 44 49 49 59 64 76 88
100 99 100 83 98 100 99 93 82 62 66 55 57 57 61 63 66 66 93 96 96 89 84 97 98 76 90 82 78 82 53 66 66 73 81 51 50 55 53 58 58 55 63 76 76
98 98 100 100 100 98 100 86 72 67 67 57 65 62 56 66 63 68 93 88 72 71 69 62 67 90 66 75 77 59 54 51 52 54 50 47 50 43 50 54 59 58 65 68 70
96 99 100 100 97 98 97 78 74 73 76 61 59 60 56 64 67 70 78 77 70 69 62 57 59 80 69 54 57 67 60 48 49 52 49 40 47 43 46 50 53 58 64 76 78
97 100 98 98 99 100 72 70 85 73 62 62 62 55 61 68 69 69 72 64 69 65 67 54 60 77 67 55 54 58 54 49 46 47 57 43 50 45 47 52 56 60 66 64 63
97 100 99 99 98 70 79 96 91 65 55 59 64 59 61 63 60 68 65 64 68 66 71 54 57 64 57 68 66 62 58 52 46 58 41 46 54 53 51 56 56 64 60 56 56
98 99 99 100 86 66 77 92 68 69 55 53 57 58 58 60 61 64 63 56 59 66 58 50 78 72 58 57 63 64 62 55 60 50 48 48 46 50 48 51 56 66 59 55 56
92 88 99 83 80 62 67 83 68 71 65 57 60 61 52 55 54 59 58 59 66 54 59 55 82 65 73 49 54 62 59 60 57 53 48 44 51 41 49 61 64 61 57 57 62
70 68 66 83 72 62 71 75 68 64 70 71 59 56 60 65 64 67 65 65 62 62 58 57 68 77 72 54 49 51 50 56 61 59 53 48 54 51 58 62 63 58 59 64 67

GFSSW_850_rhum_087.txt.gz
RH
99 96 84 91 98 99 99 91 100 95 99 72 73 81 71 61 74 93 78 64 44 30 38 66 62 55 50 54 54 53 55 45 36 31 24 18 17 19 22 25 26 25 26 27 49
94 99 98 95 100 98 95 99 100 99 100 79 62 73 69 65 87 79 63 47 41 76 68 56 44 52 41 43 48 51 51 39 25 21 21 19 20 19 18 22 26 30 30 32 54
98 100 99 100 95 100 98 93 100 98 99 82 62 67 72 61 79 44 50 41 46 81 74 58 49 45 38 38 42 41 51 33 27 25 32 33 34 33 24 27 23 26 27 31 46
90 83 82 88 90 93 97 98 98 98 99 73 63 73 72 85 50 65 83 88 84 82 67 59 52 46 40 36 38 41 33 32 31 31 33 39 38 37 34 31 27 35 48 48 38
95 91 97 92 97 91 96 94 100 100 99 61 72 78 79 75 60 62 66 83 81 65 54 48 42 38 39 30 34 37 36 31 26 26 30 35 38 39 37 37 36 33 45 52 44
98 97 89 99 91 98 99 97 100 100 98 72 81 78 87 59 69 66 52 77 73 66 58 53 43 45 45 36 37 31 32 35 38 36 33 33 34 33 34 36 37 40 40 48 49
93 99 87 93 97 100 100 100 100 100 84 68 83 88 83 59 67 66 44 59 72 63 55 61 59 57 43 39 37 36 44 40 33 30 35 37 42 38 29 30 33 33 38 50 55
98 94 95 96 73 86 100 100 100 100 95 95 85 90 64 78 76 72 60 63 71 67 65 67 69 66 59 52 47 45 40 47 28 23 25 34 47 27 23 21 28 34 38 45 55
92 90 93 79 81 59 98 100 100 95 88 89 95 85 56 71 75 68 61 63 68 69 72 70 74 62 60 68 74 56 68 43 33 24 26 31 41 26 21 18 21 29 32 39 54
94 89 90 82 96 59 100 98 99 89 88 93 95 81 71 61 68 67 66 64 67 65 71 72 72 68 63 82 75 50 56 49 44 31 27 36 37 29 22 19 25 26 31 40 53
73 94 85 80 97 100 100 97 97 98 98 78 72 60 65 67 67 70 72 69 68 68 64 60 92 84 62 51 53 58 59 55 42 35 52 44 33 27 22 44 33 33 36 43 55
76 68 65 92 84 98 100 90 83 86 90 89 75 75 69 69 69 74 77 70 66 66 53 78 88 54 44 44 53 65 77 70 53 42 46 62 34 28 24 44 52 49 59 64 59
71 60 63 89 83 99 100 94 82 84 73 81 84 71 70 75 62 71 76 66 60 61 63 81 53 47 50 57 70 78 94 79 86 54 55 47 43 32 25 44 57 55 61 72 70
62 56 60 72 99 100 99 91 95 81 95 74 76 73 78 73 65 69 78 67 58 66 61 70 56 60 68 86 91 97 67 90 96 85 71 43 54 32 36 46 50 49 53 70 82
74 70 67 72 94 100 99 96 87 89 97 69 73 80 80 67 74 82 79 78 76 89 85 65 60 69 85 95 94 83 84 84 78 72 89 54 61 38 38 46 45 43 50 66 77
79 78 76 93 71 93 94 88 95 98 96 92 78 81 73 66 70 93 96 95 99 98 98 93 67 66 67 67 74 77 98 96 81 94 93 77 83 63 55 51 46 48 50 76 83
93 87 87 99 99 89 96 98 100 98 64 88 77 71 59 68 68 82 96 100 100 100 100 65 64 60 60 94 69 78 98 93 97 98 71 63 96 60 47 43 39 36 58 94 74
95 90 94 100 86 96 99 99 99 74 88 58 59 60 58 59 67 91 96 99 89 90 83 86 81 63 55 67 83 74 77 96 84 79 82 81 99 93 49 38 42 44 88 100 92
98 100 100 95 94 99 99 100 98 82 58 58 57 64 67 57 71 70 77 84 80 72 99 92 90 59 67 71 78 76 98 72 95 67 81 92 73 53 72 50 63 69 90 96 100
99 99 94 96 99 100 99 97 80 61 50 42 48 42 56 55 76 69 75 95 90 81 77 87 94 82 84 73 69 84 63 70 66 84 74 52 57 71 84 73 66 77 77 86 98
97 96 99 99 99 98 100 100 93 64 48 48 46 46 46 57 56 59 74 84 80 73 68 62 70 84 89 85 69 64 53 47 47 46 70 45 62 44 56 76 68 68 82 93 92
94 98 100 100 96 98 100 93 85 72 60 50 45 42 44 50 57 56 66 60 58 58 56 47 55 68 59 46 49 56 47 40 48 45 40 39 62 43 48 63 57 65 77 78 78
98 100 99 96 82 99 70 90 92 74 56 52 49 45 49 53 58 55 58 54 56 56 57 46 51 72 58 52 49 48 42 37 37 42 41 47 58 41 46 50 55 57 58 59 58
93 100 98 98 94 62 68 98 92 61 49 49 52 47 47 48 46 58 54 53 55 54 63 53 48 60 64 69 60 58 47 36 41 56 38 43 57 48 48 51 52 49 48 50 53
90 90 88 92 67 51 68 85 57 58 48 46 47 47 45 48 46 49 48 45 45 53 47 46 69 69 49 48 54 54 52 45 54 37 42 40 43 45 43 45 49 49 48 49 53
69 74 74 63 57 48 69 52 51 58 55 49 50 44 38 49 43 46 43 43 47 42 47 44 76 60 75 44 48 51 46 46 49 44 38 39 45 35 39 46 52 49 50 52 55
65 71 50 63 51 48 64 60 58 54 58 57 49 45 55 62 56 54 52 49 48 50 47 50 62 76 68 46 45 49 46 48 51 49 51 42 47 40 47 50 54 51 52 56 60

GFSSW_850_rhum_090.txt.gz
RH
96 97 99 98 99 100 99 97 100 100 99 96 94 59 56 59 53 82 93 65 50 40 22 60 61 52 48 46 54 50 66 66 49 41 33 23 21 18 16 18 21 21 23 23 41
84 91 95 98 100 100 99 99 95 100 95 97 96 62 52 61 65 84 72 59 49 40 68 56 44 47 47 41 43 55 68 58 36 28 28 22 22 25 27 20 20 22 24 26 46
80 98 87 87 92 96 95 100 91 99 99 97 92 61 51 56 93 63 49 39 45 33 74 58 47 43 40 37 40 43 63 46 36 30 30 32 32 33 34 40 32 22 23 24 26
92 90 83 80 90 84 84 90 99 100 100 94 91 58 51 64 63 81 52 62 62 80 64 54 49 47 42 40 33 45 37 35 33 31 31 33 34 40 35 36 35 34 38 41 43
94 93 94 94 77 95 92 89 91 98 100 97 89 59 60 80 64 55 58 75 73 64 53 46 43 37 41 34 32 37 35 32 33 32 29 26 30 35 37 36 36 35 37 41 42
92 90 92 95 96 87 95 98 95 100 99 96 80 69 78 60 66 62 73 90 71 59 56 50 45 44 45 41 38 32 34 34 34 36 38 36 33 30 31 34 34 34 35 37 41
94 94 96 93 92 97 89 98 98 100 100 98 73 70 86 60 64 58 51 75 70 60 54 57 59 56 51 48 39 37 47 42 39 37 38 34 44 42 33 32 31 28 32 32 36
93 92 94 90 90 85 43 89 100 99 100 96 80 89 71 70 67 65 62 59 70 62 61 65 67 64 60 54 51 54 51 63 39 34 31 33 47 33 31 32 31 28 27 32 34
88 94 93 93 88 72 29 95 100 100 100 96 76 85 62 68 71 65 60 60 66 65 69 64 70 62 60 70 80 65 78 60 45 30 31 33 40 30 27 27 26 26 22 27 33
76 82 87 87 71 100 79 100 98 100 85 83 95 82 71 61 69 65 59 61 68 65 67 68 70 76 68 89 91 69 65 58 53 38 37 43 37 30 27 26 26 22 20 24 31
89 85 74 72 80 94 99 100 92 97 99 84 77 59 58 62 64 65 65 65 63 60 62 60 90 90 68 66 69 71 77 69 55 40 42 51 48 45 33 27 28 31 22 24 29
74 69 70 72 61 70 99 100 99 89 97 87 71 62 63 63 64 68 69 66 64 75 57 70 86 60 50 52 58 62 74 80 61 51 52 56 62 46 40 30 27 44 37 53 57
77 59 76 60 75 94 99 98 91 80 79 88 80 73 70 72 56 66 75 65 63 59 55 69 57 48 56 64 78 82 86 87 86 71 65 70 81 58 43 27 41 54 55 61 64
66 53 73 59 90 100 100 97 98 82 98 88 83 68 72 69 61 69 72 65 60 64 55 67 58 60 63 84 87 97 68 84 95 98 92 56 88 53 36 31 47 52 56 62 72
67 65 68 64 96 98 97 96 97 85 94 73 66 72 68 68 72 77 74 73 69 66 88 70 60 72 84 82 80 97 85 94 90 95 91 79 87 42 40 59 48 53 55 64 84
80 82 88 84 94 86 98 96 99 96 97 97 78 79 69 72 70 81 87 82 95 98 90 91 72 76 72 57 65 89 96 79 76 94 97 87 88 55 48 42 50 45 49 78 97
98 98 92 92 89 99 88 94 98 96 74 85 77 66 60 66 70 74 86 92 99 99 98 79 69 61 63 76 65 83 100 98 97 97 98 99 97 100 60 48 46 52 76 94 100
97 91 88 86 76 89 88 98 97 99 90 60 62 64 90 57 63 78 88 98 92 89 98 86 90 63 54 72 85 82 92 99 96 96 96 94 99 100 84 44 41 72 100 99 100
92 86 90 90 86 88 85 98 100 100 63 59 59 72 67 58 60 72 79 74 72 77 100 96 96 60 68 72 75 82 99 92 100 96 99 100 100 88 81 87 94 97 100 100 100
84 90 97 92 95 98 97 98 99 74 46 47 52 44 64 57 69 85 79 86 75 73 73 80 95 75 75 69 74 89 73 82 93 97 94 96 92 100 96 96 88 89 98 100 100
94 96 98 98 98 92 100 100 88 58 52 52 41 43 51 56 65 69 78 82 74 75 72 76 88 85 83 81 71 76 65 62 51 61 96 70 97 94 96 95 94 93 99 100 100
98 97 100 99 96 98 99 84 84 70 51 45 42 41 46 51 56 60 62 61 56 56 68 57 66 84 62 50 49 57 53 45 76 67 63 77 97 79 74 81 88 92 98 98 94
98 99 99 94 94 97 85 92 88 57 49 44 47 46 48 48 59 56 53 52 54 55 63 60 70 88 70 59 51 52 47 44 42 60 61 79 83 54 79 62 75 90 88 83 76
90 98 93 93 91 69 86 90 72 53 46 46 48 45 44 47 45 58 53 51 52 53 57 62 56 73 84 70 63 67 55 47 60 82 66 71 72 64 63 62 57 58 56 55 56
74 84 80 92 66 60 66 71 55 56 45 43 46 46 46 49 47 48 44 44 49 50 57 54 74 72 50 47 54 56 55 54 61 48 64 64 63 58 59 61 51 48 50 54 57
71 79 76 55 47 54 62 53 55 56 60 49 50 45 46 60 61 53 51 52 53 47 45 47 84 66 82 44 47 52 51 54 57 56 46 50 59 45 47 52 50 49 50 54 58
68 62 60 52 49 53 61 58 58 54 56 56 57 50 62 67 60 52 47 45 46 52 53 55 74 87 86 54 48 64 52 53 53 57 60 69 58 51 57 55 52 50 52 57 62

GFSSW_850_rhum_093.txt.gz
RH
88 82 87 92 96 97 97 100 96 100 100 100 93 90 61 49 43 71 76 67 57 48 22 59 50 52 50 46 53 55 78 85 68 56 47 32 30 25 27 32 28 23 22 32 43
84 75 89 85 92 94 95 95 99 94 100 98 94 89 54 44 47 74 80 75 66 53 53 59 50 51 48 44 45 60 85 72 52 46 43 34 36 36 36 37 35 34 31 43 40
93 81 89 79 84 85 91 78 95 100 99 96 96 91 52 47 80 82 73 42 31 40 69 57 46 43 43 41 42 46 74 56 51 47 42 38 34 32 42 45 38 38 36 36 45
96 98 86 85 94 79 83 83 81 95 100 100 100 89 55 57 75 71 47 46 40 47 56 51 48 48 46 44 35 48 38 38 38 35 35 38 31 30 31 37 38 37 35 35 36
94 93 95 87 98 94 86 76 96 83 98 99 100 86 55 69 74 64 47 57 53 60 55 47 43 41 44 45 42 41 40 37 36 35 35 36 39 37 34 28 30 33 34 33 35
87 95 94 92 92 91 84 85 92 96 87 100 98 78 65 68 66 62 55 60 58 55 52 48 51 48 44 45 45 39 40 39 37 38 36 40 40 41 36 32 29 30 31 29 29
83 76 94 94 89 95 94 92 82 95 100 99 97 70 72 66 66 61 71 75 73 56 56 56 56 55 59 58 52 50 59 55 47 41 44 38 47 44 36 36 34 31 31 30 27
73 76 78 86 95 99 69 21 73 92 100 97 84 81 74 70 64 56 51 74 70 59 60 64 63 65 63 58 58 64 61 76 48 45 42 46 58 37 29 31 34 32 30 28 26
75 66 79 71 80 87 57 36 82 98 100 98 80 74 78 69 68 66 58 67 67 65 61 65 67 66 62 75 88 75 86 74 61 42 44 48 48 36 30 30 34 34 32 29 29
84 79 86 57 45 84 100 99 100 100 98 91 86 82 78 70 70 61 57 62 68 67 66 66 68 89 83 93 88 75 81 68 71 50 49 54 51 41 35 31 31 29 28 26 26
89 84 84 62 54 70 100 100 94 97 98 88 81 64 65 67 67 61 58 66 64 60 63 66 90 98 83 77 78 82 87 90 72 59 59 59 56 50 46 44 44 32 27 27 28
85 79 73 63 62 79 99 99 100 98 96 82 66 62 61 61 68 68 64 65 59 72 66 74 89 67 64 62 71 77 88 86 69 57 65 78 76 64 58 50 44 36 26 33 31
73 69 53 57 88 90 98 98 99 100 96 95 76 66 66 66 62 72 68 64 63 66 58 69 65 52 59 72 83 85 92 86 87 77 79 91 88 70 55 53 49 42 34 48 50
65 53 58 56 83 98 98 98 93 93 97 98 87 76 66 66 61 63 64 66 63 68 64 68 59 67 72 80 87 97 69 74 99 100 96 74 94 65 59 57 45 39 44 50 52
78 68 69 58 78 92 96 98 99 87 96 84 76 75 63 72 76 80 70 73 75 75 80 75 82 77 86 88 76 88 80 97 100 90 90 76 97 75 44 47 39 58 55 48 56
80 75 75 84 88 88 95 92 86 91 99 98 80 80 78 73 82 82 82 76 84 86 82 85 75 82 81 64 63 71 98 100 91 92 99 79 84 76 62 55 47 52 56 88 82
81 74 79 74 87 84 91 93 95 94 93 91 90 77 71 77 84 75 85 94 94 91 91 79 86 72 70 84 70 80 100 98 97 97 93 95 91 88 90 88 67 58 84 100 93
86 88 75 68 76 75 84 98 90 96 88 63 72 67 92 68 81 80 90 85 86 82 90 97 84 68 63 71 88 89 99 99 96 97 98 100 98 100 89 94 98 98 100 100 99
84 93 75 74 72 75 84 97 100 96 68 68 72 95 80 68 73 77 80 71 77 87 93 100 84 64 71 70 78 80 99 88 100 100 97 98 100 96 85 88 96 98 100 100 100
78 89 98 82 74 76 90 99 98 95 66 59 69 63 80 71 67 92 81 82 71 73 76 85 98 73 75 73 77 88 79 89 94 97 96 97 97 100 100 100 94 95 99 100 100
88 97 98 84 85 89 97 100 85 66 56 74 48 56 64 72 77 86 82 82 73 75 75 79 98 79 82 82 74 79 87 80 70 76 92 89 98 98 100 99 96 97 100 100 100
98 98 95 93 88 99 98 85 82 74 57 47 50 54 55 56 59 64 65 67 68 60 81 76 82 98 74 52 54 58 70 55 78 71 76 82 98 91 95 93 92 98 100 100 98
95 95 80 82 99 92 82 84 85 72 57 48 51 52 49 54 64 58 62 56 56 61 68 64 78 91 69 58 59 66 57 54 57 68 80 88 92 84 83 88 97 99 100 95 76
76 96 74 80 87 85 80 87 82 53 49 49 50 47 53 52 50 62 59 57 53 56 58 61 68 76 90 77 67 75 64 61 62 81 81 86 88 82 77 74 81 81 68 62 60
76 89 81 92 76 78 73 68 68 70 56 45 50 54 52 56 52 53 47 50 52 52 61 64 73 70 64 52 54 57 61 67 73 63 74 75 78 76 74 69 60 56 57 59 61
76 70 71 76 54 61 66 69 69 65 65 65 71 65 72 80 74 74 64 62 60 57 49 58 80 70 89 48 49 53 56 60 65 66 63 64 70 60 61 53 54 54 57 61 63
69 67 64 53 64 68 72 60 65 60 58 60 64 62 75 71 65 59 58 53 48 52 60 61 80 90 90 71 60 70 53 56 60 64 62 72 60 61 66 62 56 55 57 61 63

GFSSW_850_rhum_096.txt.gz
RH
79 89 80 87 91 98 99 97 98 100 99 98 93 81 71 47 31 40 64 57 52 46 27 47 44 47 52 54 56 56 79 90 73 63 57 39 42 37 35 36 36 35 36 41 58
90 92 80 86 86 79 88 92 88 100 98 100 98 92 69 41 37 46 66 71 67 60 40 55 50 50 46 44 48 63 89 79 57 52 54 48 44 36 34 36 37 37 34 36 48
77 83 84 85 88 79 78 74 81 84 99 98 100 98 62 41 65 67 53 59 47 43 57 54 44 50 47 45 44 51 78 62 55 48 46 42 37 34 33 42 35 39 35 36 35
82 89 91 96 83 90 92 75 77 78 100 94 100 98 61 56 67 62 45 38 36 45 54 48 43 42 46 44 40 48 44 40 40 37 40 44 38 38 35 32 29 28 29 31 35
82 78 87 85 87 90 77 90 72 74 87 100 100 87 57 64 69 56 43 50 42 51 54 49 47 44 48 48 42 42 39 38 37 34 34 35 41 43 40 37 33 30 28 29 31
74 76 75 79 90 92 93 95 75 99 94 97 100 94 64 67 68 64 57 56 52 52 50 43 50 46 46 47 46 47 54 50 46 45 42 44 40 39 37 36 36 34 31 28 28
82 79 80 71 72 89 88 94 97 94 98 95 100 87 73 68 73 66 65 66 59 56 55 55 52 47 59 60 58 56 61 60 48 46 48 39 48 44 32 30 31 32 32 30 27
80 82 72 82 60 69 84 78 32 76 100 100 97 74 77 67 64 64 76 78 68 57 59 63 58 56 60 60 62 68 63 78 51 45 44 49 57 39 33 34 34 31 24 22 22
73 86 82 72 53 57 86 22 46 88 100 100 89 76 76 66 62 53 74 72 70 61 58 64 64 67 63 79 81 75 79 78 68 48 52 58 65 45 38 36 37 34 28 26 26
82 82 77 77 51 86 99 61 87 100 100 99 87 83 81 73 68 64 58 64 67 66 66 65 71 89 86 89 73 70 80 77 74 56 57 67 68 51 43 42 39 34 32 29 27
87 80 75 71 62 58 97 100 98 95 96 99 84 77 78 70 66 64 60 66 65 63 71 71 90 96 79 81 71 77 89 93 73 59 68 72 68 60 50 49 48 47 42 40 34
71 67 64 72 97 92 100 99 100 94 97 86 72 69 68 67 63 59 64 64 62 74 65 78 91 70 69 72 78 83 91 87 73 62 73 83 85 71 64 60 52 50 46 41 34
52 54 60 89 95 80 99 99 98 95 97 97 74 65 67 65 71 68 63 64 57 64 66 73 64 56 61 72 85 87 95 87 87 70 74 86 81 75 60 61 59 54 48 44 37
58 57 57 84 89 95 96 96 100 95 98 99 85 68 66 64 73 64 65 67 64 66 67 75 63 64 73 84 82 95 72 76 85 98 95 78 92 66 59 64 61 56 49 36 49
69 73 54 69 86 92 82 97 96 90 94 97 88 74 66 77 75 77 69 70 72 73 79 73 81 79 88 84 81 85 76 83 97 100 99 82 97 76 54 54 61 42 38 64 59
82 68 56 73 97 96 96 93 85 82 98 97 79 81 75 75 83 84 79 73 82 84 76 84 76 85 83 69 72 62 80 97 100 99 100 83 88 76 95 91 92 58 69 85 93
68 74 76 80 90 93 82 74 85 94 94 95 91 84 78 79 88 80 83 90 81 82 84 79 91 82 74 85 72 80 99 97 94 97 94 98 87 81 90 92 95 83 100 100 100
71 76 75 78 84 79 72 80 89 92 94 72 70 71 77 76 81 78 88 89 87 83 85 90 80 73 73 78 84 89 98 99 96 97 98 99 96 98 87 83 92 100 100 100 100
71 62 72 78 77 70 74 93 96 84 67 74 78 88 88 74 81 78 83 75 77 82 87 95 85 61 67 70 77 84 99 91 100 100 97 97 97 97 80 86 94 99 100 100 100
75 80 77 68 71 77 87 91 97 87 66 71 76 69 88 82 79 93 85 79 67 77 74 83 99 68 72 73 76 86 80 93 95 96 96 98 97 99 98 99 92 96 99 100 100
75 73 80 82 75 69 96 94 86 72 56 69 57 66 68 75 78 88 82 77 71 73 76 81 92 81 82 80 70 80 89 87 81 77 95 93 98 100 100 100 98 97 100 100 100
67 94 71 75 85 86 98 88 83 76 63 57 52 52 62 69 78 72 72 70 69 70 92 77 86 97 76 60 60 62 70 69 83 71 83 85 98 95 96 95 96 99 100 100 100
64 72 64 72 94 94 79 76 83 68 58 52 56 52 51 56 65 59 66 58 65 67 73 67 82 93 66 54 57 71 66 62 65 72 89 89 94 73 81 90 98 98 97 91 90
60 85 59 63 86 87 83 84 75 54 50 50 53 49 53 55 55 63 61 59 59 60 59 60 74 76 89 74 70 77 66 68 65 85 85 89 88 82 75 84 81 82 80 67 63
60 84 80 94 78 81 76 70 68 72 55 56 62 72 56 63 60 67 62 59 53 55 61 66 77 73 68 67 59 60 60 70 78 70 71 78 82 78 77 72 69 62 62 62 62
67 67 75 74 64 64 72 71 72 66 65 66 70 67 73 76 70 73 70 62 61 55 55 64 80 73 90 56 57 58 54 62 68 67 67 70 70 63 64 60 60 59 61 63 64
65 62 64 62 68 70 74 66 68 61 61 62 64 65 66 67 66 62 62 62 64 56 62 65 80 90 75 72 66 71 52 57 63 64 66 71 66 70 66 62 59 58 58 59 61

GFSSW_850_rhum_099.txt.gz
RH
75 76 77 68 73 81 86 95 99 100 100 100 98 90 77 55 34 36 47 49 47 33 32 39 38 40 48 60 58 58 84 90 74 68 59 47 52 42 37 37 32 35 38 37 38
88 81 82 74 78 90 86 76 86 97 100 94 100 94 80 49 33 44 57 51 51 42 29 46 45 39 40 45 54 67 88 78 62 55 58 53 45 40 37 34 35 36 32 31 36
88 87 86 92 80 88 89 76 77 76 87 98 100 100 77 43 54 63 56 52 38 41 44 45 46 48 46 44 46 62 81 66 57 50 45 45 42 37 37 42 36 33 30 30 31
78 80 78 84 87 93 79 84 80 77 78 96 96 98 67 49 65 51 44 50 42 41 50 49 43 43 47 46 44 49 45 47 42 41 40 44 39 38 37 37 35 33 34 32 30
76 77 81 87 81 74 70 69 78 80 73 99 99 98 68 62 68 55 67 52 47 54 48 45 45 46 54 48 42 44 46 47 44 42 40 37 43 44 40 36 34 35 37 35 32
84 84 81 83 76 75 85 93 68 72 76 91 100 93 68 64 64 55 58 54 50 49 48 45 47 44 51 51 48 57 58 56 46 44 46 48 41 40 35 34 34 32 31 28 29
65 74 80 77 71 87 91 85 86 83 94 95 97 82 77 92 75 66 57 53 51 47 44 50 49 44 54 54 58 59 65 62 51 47 48 40 52 53 26 31 31 29 27 31 26
78 67 77 79 73 61 52 81 80 75 98 97 100 83 81 96 82 67 73 67 57 57 53 61 52 50 55 60 61 71 63 72 44 47 45 46 54 42 34 38 38 37 34 34 31
70 68 81 81 71 50 86 86 63 41 100 100 89 80 77 80 72 79 81 70 65 60 59 57 53 66 64 77 69 71 73 74 67 52 54 56 64 52 41 41 43 40 33 36 34
66 79 74 75 57 75 95 54 45 94 100 97 90 80 74 64 58 75 74 70 62 62 64 66 70 87 88 84 67 61 80 78 81 58 57 65 64 49 49 54 51 45 38 35 37
74 75 68 64 80 87 99 100 100 96 98 97 88 86 82 69 67 59 65 66 62 61 80 72 89 90 70 79 62 67 86 93 75 61 72 75 71 62 56 58 57 53 48 42 33
47 56 69 92 94 81 98 99 97 99 96 91 88 85 72 66 64 61 66 65 62 73 70 77 94 68 66 70 79 87 96 89 75 65 68 72 77 68 63 62 63 60 56 49 40
52 62 85 91 82 89 98 99 96 84 97 99 79 79 67 60 67 65 67 63 58 66 67 76 63 59 70 74 87 90 96 87 87 69 68 81 88 65 50 52 56 64 59 53 47
58 64 82 76 79 92 100 100 96 65 98 99 88 71 69 68 76 63 62 69 64 68 75 75 64 67 72 84 84 94 74 75 83 96 99 72 94 70 59 59 72 65 60 55 44
66 68 81 88 87 98 97 91 87 72 93 98 86 73 72 75 75 73 66 70 75 73 74 72 76 84 90 86 80 81 73 85 86 99 99 87 98 76 77 85 79 87 46 51 71
55 66 94 98 91 100 90 93 88 80 96 99 79 76 78 79 83 81 75 69 76 77 72 82 73 82 86 73 76 65 85 90 94 97 96 90 83 78 88 97 88 81 99 100 99
67 70 75 88 98 94 95 88 85 95 92 94 91 78 79 75 87 79 81 88 78 87 88 78 89 82 80 87 76 82 97 96 90 92 89 95 95 83 87 88 94 96 100 100 96
63 66 70 75 81 73 75 77 89 89 91 73 74 73 77 79 77 81 86 92 85 77 92 89 77 81 78 80 82 90 96 99 97 100 95 96 94 91 80 82 93 100 100 100 100
53 58 66 73 72 74 66 94 96 81 71 76 75 78 90 73 79 84 86 78 76 76 94 88 89 60 74 70 74 83 98 90 100 92 98 93 96 94 80 86 90 98 100 100 100
52 56 70 70 70 67 85 95 96 85 68 73 78 77 68 80 86 91 88 72 66 71 72 86 97 69 71 74 74 81 84 96 98 96 94 95 98 98 98 100 93 95 100 100 100
56 60 58 55 57 58 96 94 85 75 60 72 66 74 72 81 77 91 82 75 74 74 75 82 91 75 71 77 70 81 84 87 90 86 97 96 98 99 100 100 99 96 100 100 100
56 86 54 51 70 88 99 94 81 70 65 64 58 55 69 70 83 89 82 78 68 76 88 80 87 94 75 60 61 65 72 75 90 74 84 84 97 91 96 96 97 98 100 99 100
47 58 60 52 93 96 80 75 81 67 59 53 56 52 52 66 69 63 66 59 68 76 75 78 85 92 61 51 54 66 67 65 75 76 89 90 86 72 86 94 98 99 99 99 99
49 84 55 56 79 84 87 80 72 57 55 54 64 52 52 60 58 64 62 59 67 67 62 60 80 74 82 63 68 76 71 62 71 88 83 86 77 73 75 82 88 96 91 80 70
52 81 80 90 74 73 77 74 70 76 62 59 60 72 71 62 58 65 64 59 60 58 66 68 84 80 76 72 71 70 67 62 77 70 71 71 82 69 77 80 75 67 65 65 65
52 64 72 65 66 67 75 74 78 70 72 66 69 69 74 66 65 66 70 63 62 55 63 70 83 76 85 69 66 69 62 59 68 67 67 75 76 62 67 64 65 61 64 64 64
64 56 55 64 72 74 76 69 69 68 61 65 67 69 64 67 66 63 64 64 66 66 64 68 82 89 80 67 73 75 65 58 64 67 65 79 64 72 69 66 61 60 61 62 65

GFSSW_850_rhum_102.txt.gz
RH
89 80 82 76 66 61 78 89 89 93 100 98 99 93 86 67 41 42 52 46 44 28 38 29 29 43 63 58 58 58 81 85 70 75 59 52 55 45 40 39 36 34 38 37 33
81 90 82 85 66 67 82 82 84 80 92 99 98 97 85 59 37 49 54 63 50 28 40 35 31 36 41 54 56 69 76 70 64 59 60 55 48 42 40 38 37 34 35 34 30
78 80 85 83 83 67 73 86 77 68 75 95 99 100 88 47 51 67 64 64 47 29 42 40 39 32 44 45 48 69 77 68 60 54 46 46 44 39 39 45 35 37 35 32 31
86 76 92 94 90 72 65 69 71 66 73 78 94 100 91 53 68 68 56 55 34 34 40 42 47 40 48 50 45 47 49 51 44 41 44 45 39 40 38 38 30 29 33 34 30
78 72 90 96 97 84 67 57 38 70 70 79 99 94 76 69 78 73 85 46 42 42 46 42 40 45 55 49 43 47 54 50 45 44 45 42 47 46 42 30 28 28 32 34 34
81 78 84 93 95 83 70 75 72 53 68 78 99 100 88 86 84 77 59 48 45 42 43 42 42 41 48 56 50 60 60 58 44 44 44 51 45 40 32 23 28 26 26 26 28
80 79 81 96 84 73 74 67 74 93 65 88 100 92 77 99 87 72 62 53 49 47 43 44 45 38 48 54 59 61 57 56 46 50 46 43 49 59 23 28 28 25 27 29 30
68 69 72 79 71 69 54 50 61 88 74 98 99 88 99 93 88 59 56 55 54 52 44 51 44 43 54 58 54 69 60 53 36 51 46 40 46 37 29 29 32 35 31 30 30
72 76 82 79 64 52 73 78 64 74 92 98 87 88 100 92 78 78 68 63 56 54 52 47 41 64 59 66 59 68 59 67 64 51 53 52 56 48 41 42 45 43 44 46 46
82 76 82 66 54 90 89 60 62 80 100 98 89 82 92 78 87 84 73 69 60 60 60 57 62 86 87 76 56 56 69 75 78 58 57 68 66 52 49 51 52 54 56 56 52
80 77 77 87 58 72 100 90 92 96 90 95 94 90 72 63 71 73 69 61 58 58 82 71 80 72 60 69 55 65 80 89 77 63 75 77 73 64 56 59 64 66 63 61 54
57 64 88 79 75 70 92 98 100 99 98 99 86 79 69 61 64 67 66 61 60 75 70 75 86 63 64 69 74 82 94 92 78 67 70 74 76 66 62 66 57 58 64 62 61
67 65 82 75 78 94 97 88 89 90 97 99 96 81 67 60 68 67 66 61 60 66 69 76 60 61 66 74 85 93 97 89 88 67 67 79 89 69 51 51 63 72 56 62 63
74 63 85 86 89 97 95 95 80 68 95 100 93 78 69 62 79 66 66 69 63 69 80 75 64 67 72 81 83 100 75 77 79 92 96 81 94 72 66 82 77 72 69 58 61
78 95 88 95 98 97 96 81 81 71 92 94 84 74 75 74 71 66 63 62 70 76 70 70 75 82 90 85 77 79 69 81 84 98 98 87 97 79 78 78 85 84 99 100 92
77 89 82 90 90 99 95 75 73 78 98 96 79 76 76 82 84 73 72 67 70 68 68 77 73 79 81 77 77 66 86 88 90 87 97 82 92 78 94 93 84 86 95 99 94
70 81 85 92 97 83 86 72 83 94 90 94 88 78 72 81 82 77 79 74 78 84 90 76 82 80 79 88 80 82 99 97 89 94 86 95 96 81 88 82 89 93 97 99 100
60 62 60 66 74 77 72 76 90 87 87 77 78 71 65 78 78 83 86 94 80 75 95 97 76 81 82 78 80 86 90 99 98 98 93 94 95 95 85 81 89 98 100 100 100
64 67 70 72 70 69 64 92 94 81 73 76 76 78 90 75 81 81 84 81 76 72 89 85 87 62 79 70 76 85 95 84 92 83 99 92 96 91 83 88 89 94 99 99 100
55 57 62 61 56 62 84 91 91 82 68 71 75 75 74 85 82 82 84 70 69 68 70 82 98 70 70 77 76 84 81 90 85 99 94 90 97 98 97 100 96 96 99 100 100
50 53 50 53 50 60 96 95 84 73 60 66 67 75 71 78 76 91 84 73 70 72 72 80 92 74 68 84 73 82 81 80 88 94 98 97 96 97 99 99 100 97 99 100 100
48 82 48 46 68 88 98 95 81 68 64 67 59 59 71 71 77 85 88 74 66 77 89 80 84 90 78 60 61 67 72 76 94 79 87 91 90 84 92 94 98 99 100 100 100
46 53 52 42 92 95 78 75 76 68 62 57 58 55 55 69 73 82 71 60 69 81 79 80 89 94 55 46 53 65 68 65 77 81 86 93 80 74 88 94 100 100 100 99 99
46 82 51 55 75 81 83 80 70 59 61 60 67 55 54 61 65 66 64 61 72 73 68 68 83 78 77 54 65 74 68 62 76 92 81 89 74 76 81 84 92 97 97 93 86
51 79 72 86 74 74 75 73 71 76 64 60 60 73 75 65 61 62 64 61 68 63 72 71 87 86 80 77 74 74 73 71 80 74 78 62 80 68 80 86 82 82 71 68 68
55 64 67 67 67 67 77 77 75 71 68 65 68 71 70 70 67 71 71 66 64 58 69 75 85 82 90 71 79 79 72 71 66 71 76 76 81 68 66 67 72 67 64 65 65
56 64 57 71 73 74 77 70 68 72 62 64 66 71 64 64 64 61 62 62 64 68 68 73 85 89 86 72 72 74 69 70 63 69 67 82 66 73 75 72 64 62 62 63 65

GFSSW_850_rhum_105.txt.gz
RH
84 88 82 81 71 71 81 73 83 84 94 96 94 96 83 74 44 37 38 38 34 35 27 28 45 61 51 54 56 52 55 62 62 71 51 54 51 46 42 40 38 35 35 33 32
77 90 86 93 78 66 77 87 77 77 90 83 92 100 88 63 43 52 51 66 37 30 33 27 38 59 50 57 57 60 52 50 60 60 59 57 52 44 39 40 36 29 19 20 28
86 77 77 91 95 74 67 77 80 74 73 92 93 100 94 45 56 83 76 80 49 33 38 31 33 29 43 48 52 69 56 66 61 58 46 46 45 40 41 41 29 28 25 25 18
84 86 76 88 94 89 67 65 84 77 67 81 98 86 84 60 78 96 86 69 40 42 40 40 32 35 49 50 47 46 53 53 47 43 45 47 40 41 39 30 22 24 23 24 22
79 78 77 85 81 95 83 64 48 54 71 93 100 90 90 79 98 96 86 52 42 41 40 38 34 41 53 50 46 48 55 49 44 45 46 46 51 45 37 21 17 19 23 25 24
76 83 75 79 84 99 91 68 73 57 70 82 99 94 82 94 95 93 53 47 43 37 38 33 37 37 48 57 49 60 59 55 45 44 45 52 48 42 20 19 21 23 23 23 23
74 73 77 89 93 97 71 66 68 90 59 97 100 92 80 91 97 76 54 47 46 43 37 41 39 32 42 60 60 60 45 47 41 48 48 45 51 55 22 26 27 28 33 35 33
73 67 73 85 73 70 61 47 54 94 63 99 99 86 99 91 68 57 52 50 47 41 36 40 36 33 53 55 48 60 50 36 38 50 48 40 44 35 33 39 44 46 48 47 44
80 77 82 78 64 55 66 70 73 82 85 96 94 80 100 81 68 68 61 53 49 45 40 38 30 55 50 54 50 56 40 56 53 51 53 49 53 43 38 47 53 53 50 45 38
75 78 76 61 78 85 67 70 78 92 100 88 76 70 99 89 79 72 69 58 52 50 46 43 51 75 75 68 44 44 58 65 69 54 59 65 65 54 52 57 58 58 46 49 57
56 82 77 64 75 92 85 89 96 93 94 99 92 88 90 81 78 71 64 54 52 56 75 68 74 64 59 58 52 64 75 80 71 60 71 73 70 61 58 62 61 50 55 62 58
66 84 75 86 79 85 82 88 98 96 98 96 81 72 69 64 71 67 60 56 58 77 66 70 78 61 66 71 72 80 91 89 70 67 68 69 72 61 64 64 54 63 72 79 56
61 80 86 100 86 91 66 97 99 92 97 99 90 86 68 61 70 68 64 61 62 69 72 72 64 62 65 75 83 89 96 84 78 68 68 79 81 64 50 58 69 78 88 96 100
88 80 82 99 84 96 88 91 77 72 95 99 87 69 66 62 74 67 66 68 62 77 80 76 65 66 73 80 80 98 76 76 80 90 91 71 88 70 56 67 72 74 86 94 98
78 97 90 93 100 95 93 83 83 76 90 94 84 74 73 70 66 61 65 66 76 75 68 65 75 81 89 84 77 70 69 76 78 96 97 88 96 68 70 76 74 72 87 84 92
83 91 96 92 84 93 95 79 60 78 97 94 80 78 79 80 81 69 69 63 69 68 68 72 72 78 75 76 75 72 86 87 86 89 92 82 88 74 87 94 83 83 88 96 98
69 79 80 78 77 71 65 53 83 92 92 90 87 76 65 84 76 76 78 75 80 75 86 74 77 78 79 87 83 81 96 91 85 91 83 87 94 80 85 87 83 91 98 99 99
66 65 64 64 60 58 51 72 89 95 89 77 74 63 79 79 80 84 88 96 78 75 92 94 72 81 83 77 79 82 88 96 95 97 90 91 97 78 89 95 98 97 99 99 99
58 65 62 62 59 56 51 90 93 81 73 78 79 79 91 70 78 82 86 82 74 73 86 88 86 60 82 72 71 87 86 84 98 87 94 85 82 86 77 84 97 99 100 100 100
52 57 58 58 59 59 82 92 93 79 69 70 75 73 84 86 86 87 85 68 73 68 69 88 93 67 70 76 76 86 80 83 90 92 96 82 91 92 95 98 96 97 99 99 100
44 52 52 52 52 56 98 95 80 72 63 66 70 74 69 78 77 88 83 68 68 76 68 80 86 73 68 91 79 95 90 88 82 89 96 96 80 88 99 98 98 97 100 100 99
48 78 52 49 65 87 98 90 77 63 67 70 62 61 68 73 76 82 83 73 67 74 79 76 89 87 81 62 63 68 72 74 86 80 85 90 84 83 90 94 98 99 100 100 99
46 49 49 42 87 96 74 74 72 68 66 63 62 59 57 68 69 78 71 64 70 75 77 81 86 95 52 46 59 70 74 67 79 82 92 91 71 81 92 94 100 100 99 99 92
45 75 48 53 74 77 72 74 66 61 64 64 68 59 57 64 67 69 67 62 73 73 73 73 86 83 80 52 58 70 75 69 76 89 81 86 73 80 91 86 87 91 92 95 92
50 79 74 84 73 77 74 72 69 69 63 62 61 72 73 65 64 64 64 63 76 69 78 74 91 91 86 80 78 76 73 75 82 73 82 66 80 66 75 83 83 81 88 74 68
53 62 61 70 71 68 70 76 72 71 66 63 64 68 69 69 63 66 70 69 64 61 76 81 91 83 94 75 78 89 80 80 74 72 81 80 77 65 62 70 79 79 74 65 64
56 57 52 76 75 72 72 71 67 72 62 60 62 69 70 64 59 56 60 60 63 71 73 78 88 90 89 72 75 64 59 76 70 69 68 80 66 72 76 75 70 65 63 60 62

GFSSW_850_rhum_111.txt.gz
RH
96 85 90 88 84 79 76 84 79 80 86 86 94 99 82 64 40 46 52 55 57 22 23 51 46 47 49 54 49 39 22 20 22 20 28 31 26 31 31 26 20 20 22 22 23
77 90 85 81 88 81 80 93 79 71 90 75 93 99 85 61 59 72 74 53 28 21 42 42 39 39 37 45 41 26 22 19 24 26 26 30 28 24 22 16 15 14 14 16 18
72 79 76 80 89 88 76 70 70 69 76 79 99 98 80 64 62 77 93 65 32 29 42 40 41 33 33 32 36 28 25 26 32 38 35 28 22 25 19 15 12 12 14 16 19
60 65 72 74 89 86 91 75 71 71 68 85 94 100 75 72 62 89 78 62 39 36 38 37 34 26 28 27 32 30 33 29 35 37 31 25 25 21 18 17 15 17 18 21 22
47 53 64 80 92 92 78 72 50 78 67 97 92 94 78 85 95 88 62 42 44 47 38 29 23 23 25 26 25 22 25 28 31 34 29 24 24 22 20 18 19 22 26 27 28
45 58 72 82 73 75 84 79 42 72 98 95 90 92 85 90 92 63 53 43 47 45 44 32 25 27 26 25 25 27 30 26 29 26 28 30 24 29 17 22 25 28 30 33 35
71 66 82 76 80 93 88 56 56 64 96 100 86 66 88 94 77 58 46 40 40 44 44 40 33 29 26 28 33 27 24 24 26 29 28 35 31 29 23 24 28 27 32 34 34
78 75 76 78 95 75 63 54 78 80 88 99 99 81 92 69 69 56 53 46 36 32 33 42 40 40 30 29 24 23 20 20 25 30 35 37 22 18 21 24 28 30 34 31 31
72 67 66 63 61 56 52 57 89 91 99 96 90 82 90 70 64 60 54 52 41 30 26 24 33 34 34 25 23 18 18 16 29 32 34 36 29 20 26 29 32 34 33 30 30
71 56 61 86 58 46 52 94 93 96 100 89 85 80 93 82 72 64 59 56 50 49 40 40 37 32 26 41 56 22 17 20 21 31 36 38 35 27 29 32 34 34 31 33 39
70 74 90 84 59 68 93 99 96 94 98 96 98 97 93 75 68 60 63 51 47 43 34 40 62 59 38 30 32 30 30 30 24 34 48 38 37 32 31 38 32 36 38 42 54
71 92 86 83 80 92 98 96 96 95 98 99 93 89 78 64 54 59 55 44 41 40 40 44 60 42 42 45 44 43 42 35 37 41 47 45 46 35 38 37 38 41 46 57 68
83 89 94 86 91 86 78 92 95 97 96 97 91 77 69 58 60 63 58 49 40 43 37 42 44 46 44 50 54 48 56 52 63 52 42 48 41 41 34 35 37 40 49 71 82
81 85 84 89 94 90 74 72 78 82 89 85 67 64 63 62 54 65 69 60 46 49 47 50 47 46 47 52 53 62 46 54 61 70 70 47 61 33 31 33 33 47 55 87 89
82 78 72 86 95 94 74 75 71 78 87 72 62 69 62 54 57 54 65 49 48 49 50 59 53 54 57 70 48 58 53 59 64 74 73 57 73 35 35 37 37 57 68 87 94
75 75 78 80 74 67 72 62 65 91 93 70 58 55 49 51 56 55 54 57 58 48 48 51 56 53 52 52 51 52 64 69 63 64 87 65 62 38 39 50 61 66 80 90 98
68 64 68 57 80 69 58 60 94 89 65 62 57 48 47 53 50 49 50 55 62 92 99 51 52 54 57 61 59 63 70 81 80 85 71 59 81 62 39 56 64 77 87 97 99
63 67 65 60 63 62 57 53 87 76 65 52 51 48 57 53 52 52 50 55 50 46 64 78 80 54 55 57 62 52 56 77 84 69 62 67 86 56 49 54 68 78 92 99 99
56 56 57 56 56 54 59 93 83 59 52 52 53 51 62 51 49 50 51 51 50 47 67 84 85 48 52 48 56 57 65 58 84 58 76 59 70 47 47 46 64 73 91 100 99
49 56 55 53 48 61 64 78 64 50 50 49 45 45 49 51 51 49 53 50 53 50 50 56 83 49 56 58 57 62 55 67 78 74 68 47 49 56 61 88 63 70 89 99 100
45 54 47 49 54 57 91 62 54 53 53 47 47 45 46 52 48 51 50 48 46 47 48 48 57 56 51 59 55 74 65 64 49 49 62 44 42 63 73 68 69 71 89 98 99
53 66 44 53 65 58 69 50 52 53 59 51 44 44 44 48 48 48 46 46 46 48 50 48 50 62 46 40 45 49 47 43 49 43 48 46 48 49 55 62 69 76 91 98 98
48 54 41 49 72 65 60 57 56 53 49 50 47 46 43 46 47 47 46 46 53 51 48 48 55 63 47 41 43 53 44 45 43 45 55 46 33 48 56 61 66 71 83 94 95
50 76 49 54 59 41 47 52 54 60 51 52 46 46 46 47 45 46 46 51 55 56 62 60 54 57 49 35 38 42 40 44 47 63 48 39 33 29 40 51 54 67 73 76 74
47 61 59 59 48 47 47 46 50 52 53 52 48 47 44 43 43 43 41 42 56 64 62 58 66 58 53 47 46 47 46 43 48 51 61 43 31 24 22 27 37 49 59 62 63
51 50 56 49 54 45 53 47 46 50 49 46 52 45 44 46 42 45 43 41 37 55 59 56 71 57 79 46 39 46 42 41 43 44 44 42 42 28 27 26 30 34 49 55 58
45 47 52 54 44 40 35 43 46 51 53 51 47 44 43 40 44 44 44 42 41 42 53 56 65 73 66 39 46 48 35 36 38 37 39 46 33 25 30 35 42 41 46 51 55

GFSSW_850_rhum_114.txt.gz
RH
99 91 95 95 86 73 67 75 72 69 73 83 92 99 84 54 30 55 73 60 60 33 42 48 46 51 51 53 45 31 41 31 25 23 36 29 26 30 28 26 20 18 20 19 17
74 84 83 80 97 77 76 79 74 68 66 67 88 99 79 45 62 87 73 44 29 32 45 42 40 42 40 43 37 34 39 36 30 34 32 29 26 23 22 17 16 16 14 14 15
72 76 71 80 93 79 70 79 75 66 76 74 82 95 60 65 69 94 80 34 26 40 39 38 34 31 33 33 35 28 38 27 33 38 32 27 22 22 21 22 13 14 16 17 18
63 67 70 77 87 87 82 64 56 62 80 92 80 99 71 72 82 96 65 32 30 31 40 42 33 28 33 32 31 32 30 27 34 36 30 26 24 22 19 19 16 16 18 19 24
56 66 76 78 82 77 76 51 45 66 77 93 82 98 91 90 87 66 50 36 33 38 34 31 26 25 30 27 23 23 25 26 30 32 28 23 23 24 22 19 19 19 26 29 30
74 74 79 82 69 64 81 60 51 75 74 96 91 95 86 90 69 56 51 46 47 42 35 27 23 24 23 24 27 25 26 24 27 25 25 31 27 25 19 21 23 26 27 29 34
59 70 62 59 75 84 77 59 66 92 97 89 81 79 75 75 64 55 52 46 45 41 38 32 28 28 26 29 29 26 28 27 27 27 28 36 38 35 21 22 24 26 26 32 32
74 73 85 88 88 77 55 70 59 74 100 90 93 85 95 65 61 51 50 45 37 40 33 33 33 29 29 27 23 26 20 31 29 29 35 36 35 26 21 21 25 28 30 33 30
70 71 75 88 65 54 66 67 88 99 90 81 90 71 95 71 61 55 50 48 35 28 24 21 30 32 29 29 35 22 30 22 38 30 34 39 42 29 24 26 28 31 33 31 32
72 77 76 59 52 50 89 80 100 95 96 84 75 72 88 79 68 56 53 51 46 35 32 34 35 45 37 78 80 41 21 20 23 41 36 44 44 34 28 28 34 35 33 38 50
90 85 65 58 49 98 94 93 90 92 96 99 92 76 67 62 58 57 52 46 42 40 38 38 86 78 43 40 36 36 33 33 29 41 49 50 46 41 33 36 36 36 40 52 63
91 88 69 57 88 95 90 89 98 95 96 98 93 82 68 62 53 59 50 42 42 47 36 57 71 44 42 44 47 47 44 50 49 41 50 54 55 45 38 36 37 40 55 70 75
85 83 85 90 90 90 81 87 89 88 96 98 95 84 71 59 59 61 56 44 42 42 43 60 49 42 41 47 56 50 63 61 65 57 53 56 62 47 40 35 36 41 63 77 81
85 83 81 81 85 90 81 72 75 86 96 94 84 65 60 58 55 61 60 56 46 52 52 54 43 43 45 63 56 67 49 55 64 80 92 57 87 43 45 42 37 54 64 82 85
78 79 78 72 81 88 78 70 64 93 91 69 60 61 55 54 55 55 55 46 50 48 51 59 54 53 57 78 47 64 55 63 65 71 77 61 86 51 38 39 57 59 70 83 86
72 69 77 78 92 74 65 58 85 97 95 65 51 49 48 49 51 52 51 50 52 48 52 54 54 52 56 50 51 50 68 68 60 67 87 83 74 62 49 52 60 65 74 86 77
66 65 73 75 77 63 58 65 96 92 59 62 55 44 46 48 48 46 51 56 73 92 97 60 56 54 54 66 61 66 92 96 92 92 94 67 91 80 47 62 62 71 78 86 82
64 68 62 52 58 60 61 83 88 74 62 48 48 46 54 47 50 51 53 72 48 46 86 93 83 60 58 61 64 54 59 92 91 93 88 79 92 80 55 54 66 71 79 90 97
52 57 57 54 54 56 81 92 87 62 47 51 50 55 57 49 51 48 51 53 50 48 67 97 90 49 53 47 56 58 68 56 86 74 86 84 76 60 52 53 60 66 75 86 92
46 73 52 51 60 67 80 80 68 45 42 45 45 45 52 51 53 52 51 50 52 48 48 54 87 53 57 58 57 68 55 81 81 93 87 73 67 81 71 68 68 65 77 92 90
47 61 42 48 61 58 98 70 55 49 52 49 42 42 48 52 46 49 50 49 45 47 46 48 61 65 53 70 76 81 80 69 57 60 88 75 71 72 71 83 73 67 79 90 93
52 81 39 52 73 57 86 50 49 53 56 48 46 44 43 45 45 45 45 48 44 46 53 56 59 78 61 46 47 52 59 60 80 55 63 63 71 53 59 64 68 66 77 87 97
48 51 43 54 90 84 56 58 53 53 49 49 46 46 43 44 49 44 44 47 48 51 61 52 66 85 59 49 46 56 52 55 52 57 73 76 53 56 58 63 64 66 76 83 88
48 90 50 48 47 47 50 51 56 54 50 49 46 44 45 46 44 48 46 55 50 54 58 59 61 68 74 47 52 56 50 47 56 84 67 59 48 38 48 63 58 64 67 74 81
48 62 56 82 52 45 46 44 50 54 53 50 48 48 45 46 42 46 40 51 56 60 62 64 78 67 66 56 57 59 56 52 56 59 70 52 51 41 38 36 33 41 57 66 70
56 57 48 47 49 47 54 48 47 49 48 48 53 42 43 50 43 46 41 41 42 65 64 63 87 68 79 58 57 64 54 51 51 49 48 47 49 35 32 31 34 36 38 57 60
45 47 51 47 44 44 45 43 45 47 47 48 46 46 47 46 46 43 44 42 43 47 69 64 84 82 86 65 65 75 48 48 45 43 46 57 44 36 38 38 38 42 42 45 49

GFSSW_850_rhum_117.txt.gz
RH
90 95 99 88 90 78 81 85 77 76 81 91 89 91 67 32 56 68 62 62 38 40 40 48 53 53 51 47 34 30 42 41 41 38 40 30 31 28 26 22 19 18 18 18 17
84 96 94 96 91 87 78 81 76 70 69 79 90 97 46 75 83 68 85 49 29 42 46 44 51 48 43 40 30 40 53 39 39 37 36 29 25 23 21 20 18 17 17 17 15
78 77 80 83 88 86 85 80 69 69 65 66 98 92 48 77 75 91 68 29 30 44 44 40 42 35 36 34 36 29 41 37 45 34 30 27 23 23 23 20 18 17 16 14 12
75 71 82 84 88 85 79 68 68 65 73 71 97 79 66 80 89 65 55 29 35 38 41 36 34 30 36 37 31 37 31 34 36 30 28 29 25 23 22 17 17 18 16 16 27
77 81 86 93 90 79 64 50 62 63 86 84 88 80 80 66 68 56 44 36 31 39 38 32 27 27 36 29 22 32 29 27 30 28 27 24 24 25 23 17 18 20 19 29 32
52 63 81 80 67 75 70 54 73 70 82 93 100 87 71 77 59 54 50 45 41 35 33 28 25 24 25 27 31 28 26 29 27 26 25 32 31 30 20 19 20 22 27 28 32
68 69 61 63 84 80 61 74 87 98 98 92 85 78 68 65 56 51 46 44 41 37 32 27 25 25 25 32 26 25 29 27 29 28 31 33 33 40 20 23 22 23 27 30 33
61 78 85 84 85 62 68 79 93 96 86 81 80 82 87 58 53 51 44 37 37 31 29 27 27 27 28 25 23 27 24 36 30 30 35 29 18 26 23 23 23 27 29 33 46
62 77 85 74 61 69 80 97 91 99 99 93 87 74 83 62 55 50 45 37 28 25 24 24 18 24 28 38 48 30 33 30 36 31 36 35 34 30 26 29 31 32 35 40 52
80 76 74 52 59 97 95 95 99 92 97 88 82 76 74 61 59 53 44 40 28 29 24 27 35 60 59 82 70 43 30 27 32 39 39 45 51 40 32 34 35 37 42 47 51
66 66 56 62 91 86 91 97 93 93 92 92 81 75 63 59 56 50 48 41 41 41 41 44 74 70 53 47 39 40 39 40 43 41 52 55 56 48 43 40 38 41 50 55 57
63 48 60 91 83 88 84 83 92 94 90 78 77 69 62 59 53 51 48 44 43 46 41 67 74 49 45 46 51 51 50 68 53 47 57 64 62 51 49 47 39 48 61 62 63
75 79 86 82 79 76 72 80 81 81 93 80 77 70 61 54 61 56 50 44 45 58 57 69 56 43 44 56 69 61 65 65 70 67 62 65 71 50 42 39 42 62 68 70 74
66 76 78 78 74 79 86 86 81 86 92 88 67 57 56 57 55 52 52 53 48 62 62 59 44 47 49 62 68 65 55 60 72 83 86 63 79 66 51 46 47 68 74 74 77
83 83 81 66 67 69 66 65 69 97 92 77 65 57 55 56 48 47 53 45 54 51 58 64 57 56 64 62 51 68 58 67 69 78 84 74 90 72 51 53 64 72 73 77 77
71 76 77 77 78 69 67 62 93 84 95 70 56 55 55 51 52 51 50 46 51 64 60 58 54 55 59 52 51 55 71 74 60 65 94 81 84 69 57 49 65 69 73 78 80
59 63 70 72 76 69 64 78 83 94 60 66 58 49 49 54 52 52 57 61 77 57 89 74 60 57 55 69 62 68 92 96 91 98 91 74 87 76 54 64 64 70 74 79 81
55 55 57 58 58 57 63 74 90 76 73 53 51 50 60 58 53 53 62 80 50 58 97 88 56 66 62 68 68 77 72 89 62 95 90 83 90 67 58 61 66 68 71 77 77
55 53 51 55 53 60 67 94 86 73 54 58 52 63 60 52 54 54 55 61 54 54 74 94 86 54 60 52 60 69 79 65 88 84 94 88 73 64 65 73 70 68 72 73 78
48 66 54 58 63 68 80 83 68 49 45 50 55 47 60 57 60 59 62 52 57 51 52 62 89 60 58 58 59 69 66 83 89 88 89 82 71 76 76 73 71 74 72 71 77
57 62 45 52 66 52 90 72 57 51 57 59 52 48 57 57 52 53 57 51 48 54 48 53 70 68 63 81 84 84 85 78 73 80 89 88 77 66 72 70 68 70 66 68 72
54 65 53 56 65 75 90 56 51 55 56 60 52 51 50 49 50 51 54 53 46 48 60 56 69 85 73 54 62 72 76 72 86 66 76 78 81 55 66 64 65 64 64 66 74
43 51 48 54 86 91 61 61 56 58 57 52 50 47 45 48 53 47 50 50 48 53 61 58 73 86 69 56 52 59 61 65 63 68 81 80 55 59 63 65 65 62 60 62 66
46 76 46 44 50 59 56 56 62 54 54 51 51 46 48 51 46 52 53 56 51 55 58 59 75 67 48 45 58 66 60 59 69 89 66 61 47 42 55 62 63 58 55 53 59
50 57 62 83 59 49 50 50 56 60 55 51 51 51 52 55 50 54 46 61 58 60 61 70 88 77 74 72 69 68 68 64 66 60 76 47 56 42 43 44 38 36 38 51 60
50 57 51 51 48 48 54 53 50 52 52 52 57 50 46 54 51 56 48 45 50 77 73 74 87 80 89 70 71 77 65 63 63 60 56 53 55 38 36 36 36 36 39 48 54
45 47 52 53 52 53 55 48 49 48 48 49 53 53 53 52 54 49 48 44 49 72 84 77 88 84 89 72 73 77 57 53 55 56 55 66 48 40 43 40 36 34 36 43 46

GFSSW_850_rhum_120.txt.gz
RH
92 98 91 94 86 82 88 86 86 89 82 91 96 87 41 41 59 60 58 68 43 33 37 48 54 55 53 42 31 30 48 47 40 41 41 30 32 28 25 22 18 19 19 19 18
90 89 96 99 100 96 86 78 75 78 78 88 91 75 51 63 63 57 84 54 42 46 48 54 53 46 44 37 28 40 53 43 42 38 36 29 26 23 20 20 17 17 17 16 16
79 82 91 96 96 97 84 73 68 66 77 74 94 52 66 69 48 68 57 32 45 47 46 51 48 38 38 31 35 34 44 45 44 32 29 27 24 24 22 18 18 17 16 15 15
80 91 94 98 96 80 74 75 65 77 73 82 97 66 81 74 76 59 37 33 44 43 41 42 42 32 38 37 31 39 33 37 37 26 24 28 25 22 23 15 18 18 18 17 24
77 90 92 88 82 76 67 62 60 78 81 77 86 73 78 58 63 48 35 30 37 42 36 33 28 30 36 28 26 34 30 32 30 24 23 23 22 23 20 13 16 19 19 27 31
59 74 79 68 69 59 47 57 67 85 94 91 81 74 70 68 55 49 38 32 39 38 32 26 25 26 27 30 31 29 30 32 26 26 25 31 30 30 18 18 18 19 22 27 32
67 55 68 65 72 63 59 69 85 85 89 97 89 74 64 61 50 41 38 36 35 32 27 26 26 24 25 31 26 27 30 28 29 28 31 34 26 40 17 21 22 23 26 29 39
78 74 72 74 60 57 67 100 99 92 91 96 86 72 61 55 50 41 39 36 33 30 26 27 25 22 26 24 23 27 29 31 30 30 35 26 16 23 23 24 25 25 27 44 48
76 76 68 53 71 80 71 96 98 92 87 85 74 58 64 53 48 47 32 29 26 26 26 26 18 27 31 42 49 40 33 29 33 32 36 35 24 26 26 31 31 33 38 45 56
71 47 48 84 88 98 93 100 98 92 88 79 70 53 59 57 48 45 34 26 26 22 20 25 35 59 61 75 49 41 27 29 33 40 40 45 50 41 28 33 34 39 45 54 57
60 40 74 94 99 88 96 93 86 72 78 93 84 62 60 58 53 49 39 40 38 32 45 49 72 69 52 48 40 40 38 39 47 44 59 61 57 47 43 45 44 44 55 59 58
59 81 84 79 96 94 86 81 89 79 77 77 65 64 62 57 51 49 43 41 38 45 48 64 74 50 45 48 50 48 49 62 55 50 63 66 68 55 55 54 47 47 62 61 57
85 88 86 87 87 77 74 74 74 84 70 67 65 61 57 50 57 53 48 44 51 62 62 61 54 45 48 61 62 64 63 65 70 71 61 68 56 53 44 56 57 65 64 61 60
81 81 88 89 83 78 71 71 79 72 91 81 67 52 56 55 45 53 51 50 52 63 59 58 46 48 58 55 70 61 57 64 75 81 71 63 66 59 54 51 71 71 64 63 71
75 76 82 84 87 71 66 56 60 80 92 72 64 54 55 50 43 46 49 43 55 59 51 58 56 57 63 58 57 68 59 67 71 78 84 73 90 70 55 58 64 73 68 70 71
66 66 69 70 72 76 73 73 89 81 96 72 60 54 56 53 53 51 48 45 53 62 63 61 55 57 60 54 53 60 74 76 66 79 91 80 85 77 59 52 61 68 65 68 69
63 67 64 64 62 61 66 89 82 95 63 66 58 51 54 58 56 54 58 62 72 57 82 71 63 58 56 69 64 73 78 83 68 94 87 78 88 80 52 59 59 64 62 64 61
57 59 59 57 55 60 68 72 91 78 74 54 52 52 63 56 55 55 64 79 56 69 94 71 51 63 60 67 70 78 72 82 48 85 90 81 94 66 56 52 58 61 59 62 61
56 61 54 61 65 66 62 94 84 76 56 59 55 67 63 53 55 56 59 67 57 58 68 94 74 60 61 54 61 70 83 66 85 90 96 89 72 59 67 74 74 69 69 65 63
51 56 50 62 66 66 79 83 69 54 48 52 56 51 63 59 60 60 62 54 57 53 56 68 85 63 58 57 60 68 66 81 90 71 80 79 74 70 78 80 77 76 69 60 57
59 55 56 63 62 47 89 73 58 54 54 56 61 54 57 59 57 59 60 52 53 54 51 56 71 71 65 79 80 84 88 81 77 83 90 84 72 63 66 72 71 67 55 50 52
60 60 54 57 60 77 89 60 52 54 57 62 55 51 55 54 53 55 59 54 48 50 62 57 74 88 76 57 65 71 79 79 83 59 85 80 81 46 69 64 60 52 44 46 47
48 54 50 52 80 92 63 61 57 57 59 56 55 49 47 51 54 50 55 51 51 54 64 60 72 85 51 58 56 72 74 72 67 74 81 83 53 49 63 64 60 58 48 46 48
45 70 46 46 55 66 62 62 60 55 56 53 54 48 50 53 49 52 55 56 52 56 59 58 77 66 38 30 60 70 67 70 74 95 75 65 48 42 57 71 63 54 43 44 49
42 60 65 80 59 54 54 57 61 62 56 53 54 53 54 59 54 57 51 63 60 60 64 69 86 84 80 74 73 71 70 66 72 69 78 43 53 36 39 42 37 34 35 37 41
44 53 54 55 52 50 58 55 56 54 56 55 58 52 53 57 50 56 49 56 59 79 74 79 82 84 94 77 77 82 70 72 69 66 63 59 60 41 38 38 40 36 35 37 38
36 47 50 60 57 53 58 51 50 48 49 50 52 55 56 54 52 50 48 46 49 80 84 85 93 86 89 74 78 77 56 54 63 68 63 71 51 42 47 44 38 35 32 34 36

GFSSW_850_rhum_123.txt.gz
RH
89 88 84 76 93 84 82 85 81 85 94 97 96 80 41 50 50 52 60 79 56 38 37 51 54 55 49 38 32 30 50 48 44 44 40 32 32 28 25 25 20 20 22 22 19
84 86 100 96 90 89 87 83 77 87 91 94 99 55 45 65 53 52 74 67 44 45 49 56 55 52 43 33 30 39 51 44 42 38 38 29 26 25 21 19 18 20 18 18 17
89 95 91 100 98 87 79 74 72 74 88 99 90 41 60 60 44 51 42 46 50 49 53 53 45 39 36 31 33 36 45 45 41 33 30 26 25 24 21 17 17 16 17 18 23
92 91 98 94 88 81 70 67 65 68 80 91 88 81 64 53 58 47 35 40 46 46 50 47 35 33 37 38 31 38 39 39 36 29 26 26 24 22 24 15 17 18 18 19 28
87 90 86 87 76 72 66 64 69 75 88 84 70 87 71 52 57 42 31 42 42 40 44 39 31 30 36 28 28 35 34 33 28 23 23 22 21 22 17 13 17 17 18 20 28
66 68 63 72 64 56 57 61 78 75 76 95 89 72 53 63 48 41 30 39 40 36 34 27 27 26 28 32 32 31 33 31 25 24 27 30 30 29 16 18 17 17 18 26 28
48 75 70 72 58 62 60 87 99 86 81 84 80 81 50 56 44 43 37 37 36 31 26 26 25 23 26 31 28 27 28 28 30 29 32 36 21 37 14 21 22 23 26 27 32
64 70 63 55 71 73 78 86 94 99 100 84 76 68 59 50 43 39 35 36 31 27 25 25 23 21 26 23 26 26 29 26 29 31 36 23 17 17 24 22 24 26 28 35 47
59 49 56 74 80 97 100 94 95 99 93 84 72 67 57 49 41 35 33 31 29 26 26 24 17 29 31 41 45 38 31 28 31 33 37 36 26 21 28 25 28 30 36 47 54
51 86 90 97 88 90 96 96 95 92 86 72 62 50 54 53 46 37 27 25 24 24 19 22 30 57 63 68 45 32 26 29 31 46 46 47 51 43 29 30 31 32 43 57 60
77 84 93 81 95 98 88 85 75 74 66 73 66 64 62 53 45 39 33 28 24 26 51 45 70 68 55 50 40 40 40 37 44 53 61 62 64 51 44 40 40 41 48 60 62
82 84 95 92 89 85 78 74 91 93 75 66 59 58 58 53 45 46 40 35 33 57 44 60 72 51 48 54 52 48 45 51 54 52 65 67 70 53 53 57 54 51 58 62 59
78 79 83 82 80 79 68 74 83 81 81 68 63 56 56 49 56 52 46 44 53 62 61 56 53 47 50 63 60 64 55 62 67 74 62 73 52 38 48 63 62 56 61 61 56
85 84 74 64 66 68 66 67 70 75 91 83 62 52 53 49 50 51 48 48 53 59 58 58 47 49 53 59 67 50 60 66 75 79 65 68 55 51 53 58 72 75 66 58 55
69 81 81 55 57 54 61 48 50 64 92 69 62 53 53 44 47 46 46 44 59 63 42 52 56 60 60 58 61 65 61 68 73 80 85 74 91 64 57 60 62 71 62 56 54
57 59 65 62 58 56 60 66 67 78 95 72 59 54 54 54 53 50 46 46 52 60 66 65 56 59 60 56 57 63 74 74 78 84 84 77 87 73 61 55 54 59 55 55 52
62 62 62 62 63 58 60 72 82 94 62 65 59 54 60 61 58 55 59 63 68 52 77 67 64 59 58 72 67 73 69 72 62 82 69 81 93 78 56 54 56 60 52 54 49
63 67 66 66 62 61 68 71 94 84 76 55 53 56 63 57 56 58 63 78 59 69 92 68 52 64 58 68 70 76 67 73 43 67 83 81 89 64 55 62 56 54 54 50 48
57 62 67 66 70 72 67 91 82 77 57 60 57 63 63 54 58 58 62 69 59 62 58 87 69 60 62 58 61 73 85 65 84 92 95 88 69 52 61 64 70 64 60 51 48
50 62 67 66 77 80 80 84 72 61 51 53 56 54 63 61 62 62 64 55 57 55 59 68 75 65 59 58 64 68 66 75 89 57 68 74 69 69 53 74 78 78 66 52 46
57 61 64 74 73 56 90 76 61 58 56 56 62 59 58 62 59 64 63 54 56 57 54 64 68 71 68 78 80 84 87 82 77 81 85 78 62 63 59 60 70 66 51 43 39
56 61 58 64 58 78 89 60 53 56 58 61 55 52 55 55 56 58 57 56 52 52 64 60 74 86 76 59 64 72 80 81 80 62 89 80 79 47 53 66 63 55 47 41 38
48 51 51 50 77 93 66 64 57 58 59 57 57 53 49 53 54 52 55 54 53 55 62 60 70 78 41 55 69 79 80 76 69 75 83 78 45 44 65 64 59 60 51 42 39
44 69 45 45 57 68 66 64 63 58 57 54 55 50 51 54 51 53 56 57 54 58 60 59 76 63 39 26 60 79 72 81 75 96 81 63 43 34 37 47 49 48 45 39 35
37 65 64 78 63 60 56 61 62 61 58 55 56 54 54 59 56 58 54 64 62 63 67 69 81 85 80 77 71 65 64 71 88 76 83 42 57 38 36 41 35 34 33 34 35
42 50 53 58 54 52 61 58 57 56 55 55 58 54 57 59 56 59 52 61 58 79 74 81 84 86 98 80 82 86 78 77 71 65 67 64 63 42 40 41 43 40 42 40 34
33 44 48 64 60 50 58 54 52 50 50 52 55 56 57 58 50 48 48 47 50 78 84 89 94 87 88 76 79 72 61 64 72 75 69 78 54 41 48 48 44 36 35 34 32